<?xml version="1.0" encoding="UTF-8" standalone="no" ?>
<gpx xmlns="http://www.topografix.com/GPX/1/1" xmlns:xsi="http://www.w3.org/2001/XMLSchema-instance" xsi:schemaLocation="http://www.topografix.com/GPX/1/1 http://www.topografix.com/GPX/1/1/gpx.xsd" version="1.1" creator="VisuGPX - https://www.visugpx.com">
  <metadata>
    <name>R.A.F. 2021 / 1100 km</name>
  </metadata>
  <trk>
    <name><![CDATA[R.A.F. 2021 / 1100 km]]></name>
    <extensions>
      <line xmlns="http://www.topografix.com/GPX/gpx_style/0/2">
        <color>0000FF</color>
        <width>4</width>
      </line>
    </extensions>
    <trkseg>
      <trkpt lat="45.03932" lon="6.25661">
        <ele>1328</ele>
        <time>2021-03-29T02:54:52.442Z</time>
      </trkpt>
      <trkpt lat="45.03936" lon="6.25705">
        <ele>1328</ele>
        <time>2021-03-29T02:55:04.234Z</time>
      </trkpt>
      <trkpt lat="45.0399" lon="6.25894">
        <ele>1328</ele>
        <time>2021-03-29T02:55:58.423Z</time>
      </trkpt>
      <trkpt lat="45.04007" lon="6.25946">
        <ele>1332</ele>
        <time>2021-03-29T02:56:37.569Z</time>
      </trkpt>
      <trkpt lat="45.04025" lon="6.25971">
        <ele>1336</ele>
        <time>2021-03-29T02:57:14.162Z</time>
      </trkpt>
      <trkpt lat="45.0409" lon="6.2602">
        <ele>1338</ele>
        <time>2021-03-29T02:57:51.039Z</time>
      </trkpt>
      <trkpt lat="45.04104" lon="6.26036">
        <ele>1344</ele>
        <time>2021-03-29T02:58:17.148Z</time>
      </trkpt>
      <trkpt lat="45.04121" lon="6.2606">
        <ele>1350</ele>
        <time>2021-03-29T02:58:51.989Z</time>
      </trkpt>
      <trkpt lat="45.04146" lon="6.26114">
        <ele>1351</ele>
        <time>2021-03-29T02:59:13.460Z</time>
      </trkpt>
      <trkpt lat="45.04158" lon="6.26158">
        <ele>1343</ele>
        <time>2021-03-29T02:59:17.862Z</time>
      </trkpt>
      <trkpt lat="45.04252" lon="6.26587">
        <ele>1341</ele>
        <time>2021-03-29T03:01:06.733Z</time>
      </trkpt>
      <trkpt lat="45.04268" lon="6.26672">
        <ele>1355</ele>
        <time>2021-03-29T03:02:36.915Z</time>
      </trkpt>
      <trkpt lat="45.04282" lon="6.26776">
        <ele>1372</ele>
        <time>2021-03-29T03:04:25.454Z</time>
      </trkpt>
      <trkpt lat="45.04284" lon="6.26826">
        <ele>1376</ele>
        <time>2021-03-29T03:05:05.108Z</time>
      </trkpt>
      <trkpt lat="45.04278" lon="6.26877">
        <ele>1383</ele>
        <time>2021-03-29T03:05:58.113Z</time>
      </trkpt>
      <trkpt lat="45.04254" lon="6.27017">
        <ele>1375</ele>
        <time>2021-03-29T03:06:11.559Z</time>
      </trkpt>
      <trkpt lat="45.04247" lon="6.27092">
        <ele>1370</ele>
        <time>2021-03-29T03:06:18.619Z</time>
      </trkpt>
      <trkpt lat="45.04241" lon="6.27174">
        <ele>1368</ele>
        <time>2021-03-29T03:06:27.956Z</time>
      </trkpt>
      <trkpt lat="45.04239" lon="6.27253">
        <ele>1363</ele>
        <time>2021-03-29T03:06:35.334Z</time>
      </trkpt>
      <trkpt lat="45.04251" lon="6.27355">
        <ele>1362</ele>
        <time>2021-03-29T03:06:50.108Z</time>
      </trkpt>
      <trkpt lat="45.0428" lon="6.27488">
        <ele>1374</ele>
        <time>2021-03-29T03:08:52.592Z</time>
      </trkpt>
      <trkpt lat="45.04286" lon="6.27535">
        <ele>1376</ele>
        <time>2021-03-29T03:09:16.223Z</time>
      </trkpt>
      <trkpt lat="45.04288" lon="6.27648">
        <ele>1378</ele>
        <time>2021-03-29T03:09:55.210Z</time>
      </trkpt>
      <trkpt lat="45.04293" lon="6.27679">
        <ele>1379</ele>
        <time>2021-03-29T03:10:09.475Z</time>
      </trkpt>
      <trkpt lat="45.04321" lon="6.27763">
        <ele>1380</ele>
        <time>2021-03-29T03:10:38.165Z</time>
      </trkpt>
      <trkpt lat="45.04325" lon="6.27782">
        <ele>1380</ele>
        <time>2021-03-29T03:10:43.435Z</time>
      </trkpt>
      <trkpt lat="45.04327" lon="6.27806">
        <ele>1380</ele>
        <time>2021-03-29T03:10:49.858Z</time>
      </trkpt>
      <trkpt lat="45.04326" lon="6.27833">
        <ele>1380</ele>
        <time>2021-03-29T03:10:57.044Z</time>
      </trkpt>
      <trkpt lat="45.04307" lon="6.27911">
        <ele>1381</ele>
        <time>2021-03-29T03:11:23.061Z</time>
      </trkpt>
      <trkpt lat="45.04305" lon="6.27939">
        <ele>1381</ele>
        <time>2021-03-29T03:11:30.541Z</time>
      </trkpt>
      <trkpt lat="45.04307" lon="6.27969">
        <ele>1382</ele>
        <time>2021-03-29T03:11:44.273Z</time>
      </trkpt>
      <trkpt lat="45.0432" lon="6.28046">
        <ele>1385</ele>
        <time>2021-03-29T03:12:21.963Z</time>
      </trkpt>
      <trkpt lat="45.04337" lon="6.28117">
        <ele>1388</ele>
        <time>2021-03-29T03:12:58.387Z</time>
      </trkpt>
      <trkpt lat="45.04359" lon="6.28243">
        <ele>1398</ele>
        <time>2021-03-29T03:14:36.767Z</time>
      </trkpt>
      <trkpt lat="45.04368" lon="6.28271">
        <ele>1400</ele>
        <time>2021-03-29T03:14:56.494Z</time>
      </trkpt>
      <trkpt lat="45.04412" lon="6.28381">
        <ele>1392</ele>
        <time>2021-03-29T03:15:08.292Z</time>
      </trkpt>
      <trkpt lat="45.04421" lon="6.2844">
        <ele>1390</ele>
        <time>2021-03-29T03:15:14.362Z</time>
      </trkpt>
      <trkpt lat="45.04417" lon="6.28485">
        <ele>1390</ele>
        <time>2021-03-29T03:15:26.417Z</time>
      </trkpt>
      <trkpt lat="45.04402" lon="6.28538">
        <ele>1393</ele>
        <time>2021-03-29T03:15:57.992Z</time>
      </trkpt>
      <trkpt lat="45.04361" lon="6.28662">
        <ele>1395</ele>
        <time>2021-03-29T03:16:42.881Z</time>
      </trkpt>
      <trkpt lat="45.04354" lon="6.28691">
        <ele>1396</ele>
        <time>2021-03-29T03:16:56.776Z</time>
      </trkpt>
      <trkpt lat="45.04352" lon="6.28775">
        <ele>1403</ele>
        <time>2021-03-29T03:18:07.120Z</time>
      </trkpt>
      <trkpt lat="45.04347" lon="6.2884">
        <ele>1405</ele>
        <time>2021-03-29T03:18:35.918Z</time>
      </trkpt>
      <trkpt lat="45.04334" lon="6.28916">
        <ele>1405</ele>
        <time>2021-03-29T03:18:56.702Z</time>
      </trkpt>
      <trkpt lat="45.04334" lon="6.28986">
        <ele>1409</ele>
        <time>2021-03-29T03:19:37.484Z</time>
      </trkpt>
      <trkpt lat="45.04325" lon="6.29063">
        <ele>1410</ele>
        <time>2021-03-29T03:20:02.360Z</time>
      </trkpt>
      <trkpt lat="45.04326" lon="6.29111">
        <ele>1412</ele>
        <time>2021-03-29T03:20:26.067Z</time>
      </trkpt>
      <trkpt lat="45.04336" lon="6.29242">
        <ele>1418</ele>
        <time>2021-03-29T03:21:33.706Z</time>
      </trkpt>
      <trkpt lat="45.04344" lon="6.29289">
        <ele>1420</ele>
        <time>2021-03-29T03:21:57.508Z</time>
      </trkpt>
      <trkpt lat="45.0435" lon="6.2931">
        <ele>1422</ele>
        <time>2021-03-29T03:22:18.197Z</time>
      </trkpt>
      <trkpt lat="45.04377" lon="6.29376">
        <ele>1427</ele>
        <time>2021-03-29T03:23:07.448Z</time>
      </trkpt>
      <trkpt lat="45.04386" lon="6.29404">
        <ele>1429</ele>
        <time>2021-03-29T03:23:27.175Z</time>
      </trkpt>
      <trkpt lat="45.04399" lon="6.29452">
        <ele>1433</ele>
        <time>2021-03-29T03:24:06.597Z</time>
      </trkpt>
      <trkpt lat="45.0443" lon="6.29602">
        <ele>1441</ele>
        <time>2021-03-29T03:25:31.754Z</time>
      </trkpt>
      <trkpt lat="45.0445" lon="6.29649">
        <ele>1448</ele>
        <time>2021-03-29T03:26:28.001Z</time>
      </trkpt>
      <trkpt lat="45.04456" lon="6.29673">
        <ele>1450</ele>
        <time>2021-03-29T03:26:47.749Z</time>
      </trkpt>
      <trkpt lat="45.04462" lon="6.29804">
        <ele>1460</ele>
        <time>2021-03-29T03:28:25.960Z</time>
      </trkpt>
      <trkpt lat="45.04447" lon="6.29911">
        <ele>1461</ele>
        <time>2021-03-29T03:28:58.864Z</time>
      </trkpt>
      <trkpt lat="45.04449" lon="6.29971">
        <ele>1465</ele>
        <time>2021-03-29T03:29:38.178Z</time>
      </trkpt>
      <trkpt lat="45.04439" lon="6.30085">
        <ele>1462</ele>
        <time>2021-03-29T03:29:50.853Z</time>
      </trkpt>
      <trkpt lat="45.04438" lon="6.30119">
        <ele>1462</ele>
        <time>2021-03-29T03:29:59.898Z</time>
      </trkpt>
      <trkpt lat="45.04442" lon="6.30154">
        <ele>1464</ele>
        <time>2021-03-29T03:30:20.379Z</time>
      </trkpt>
      <trkpt lat="45.04449" lon="6.30183">
        <ele>1466</ele>
        <time>2021-03-29T03:30:40.094Z</time>
      </trkpt>
      <trkpt lat="45.04471" lon="6.30239">
        <ele>1470</ele>
        <time>2021-03-29T03:31:19.867Z</time>
      </trkpt>
      <trkpt lat="45.04484" lon="6.30263">
        <ele>1471</ele>
        <time>2021-03-29T03:31:33.633Z</time>
      </trkpt>
      <trkpt lat="45.04537" lon="6.30336">
        <ele>1481</ele>
        <time>2021-03-29T03:33:20.937Z</time>
      </trkpt>
      <trkpt lat="45.04541" lon="6.30345">
        <ele>1482</ele>
        <time>2021-03-29T03:33:31.787Z</time>
      </trkpt>
      <trkpt lat="45.04538" lon="6.30374">
        <ele>1481</ele>
        <time>2021-03-29T03:33:34.698Z</time>
      </trkpt>
      <trkpt lat="45.04528" lon="6.30398">
        <ele>1478</ele>
        <time>2021-03-29T03:33:37.298Z</time>
      </trkpt>
      <trkpt lat="45.04512" lon="6.30422">
        <ele>1475</ele>
        <time>2021-03-29T03:33:40.378Z</time>
      </trkpt>
      <trkpt lat="45.04507" lon="6.30436">
        <ele>1474</ele>
        <time>2021-03-29T03:33:41.842Z</time>
      </trkpt>
      <trkpt lat="45.04504" lon="6.30471">
        <ele>1476</ele>
        <time>2021-03-29T03:34:02.284Z</time>
      </trkpt>
      <trkpt lat="45.04509" lon="6.30525">
        <ele>1480</ele>
        <time>2021-03-29T03:34:41.433Z</time>
      </trkpt>
      <trkpt lat="45.04509" lon="6.30551">
        <ele>1481</ele>
        <time>2021-03-29T03:34:53.878Z</time>
      </trkpt>
      <trkpt lat="45.04502" lon="6.30616">
        <ele>1477</ele>
        <time>2021-03-29T03:35:00.014Z</time>
      </trkpt>
      <trkpt lat="45.04503" lon="6.30624">
        <ele>1477</ele>
        <time>2021-03-29T03:35:02.173Z</time>
      </trkpt>
      <trkpt lat="45.04508" lon="6.3064">
        <ele>1477</ele>
        <time>2021-03-29T03:35:06.823Z</time>
      </trkpt>
      <trkpt lat="45.04513" lon="6.30646">
        <ele>1477</ele>
        <time>2021-03-29T03:35:09.289Z</time>
      </trkpt>
      <trkpt lat="45.04627" lon="6.30743">
        <ele>1488</ele>
        <time>2021-03-29T03:37:00.635Z</time>
      </trkpt>
      <trkpt lat="45.04637" lon="6.30765">
        <ele>1487</ele>
        <time>2021-03-29T03:37:03.107Z</time>
      </trkpt>
      <trkpt lat="45.04669" lon="6.30949">
        <ele>1487</ele>
        <time>2021-03-29T03:37:53.469Z</time>
      </trkpt>
      <trkpt lat="45.04674" lon="6.30991">
        <ele>1489</ele>
        <time>2021-03-29T03:38:15.655Z</time>
      </trkpt>
      <trkpt lat="45.0467" lon="6.31078">
        <ele>1493</ele>
        <time>2021-03-29T03:39:00.567Z</time>
      </trkpt>
      <trkpt lat="45.04664" lon="6.31122">
        <ele>1496</ele>
        <time>2021-03-29T03:39:30.033Z</time>
      </trkpt>
      <trkpt lat="45.04657" lon="6.31146">
        <ele>1497</ele>
        <time>2021-03-29T03:39:42.467Z</time>
      </trkpt>
      <trkpt lat="45.04657" lon="6.31173">
        <ele>1503</ele>
        <time>2021-03-29T03:40:10.145Z</time>
      </trkpt>
      <trkpt lat="45.0466" lon="6.31184">
        <ele>1508</ele>
        <time>2021-03-29T03:40:22.233Z</time>
      </trkpt>
      <trkpt lat="45.04893" lon="6.31487">
        <ele>1501</ele>
        <time>2021-03-29T03:41:20.038Z</time>
      </trkpt>
      <trkpt lat="45.04899" lon="6.31496">
        <ele>1501</ele>
        <time>2021-03-29T03:41:23.326Z</time>
      </trkpt>
      <trkpt lat="45.04906" lon="6.31514">
        <ele>1505</ele>
        <time>2021-03-29T03:41:44.389Z</time>
      </trkpt>
      <trkpt lat="45.04908" lon="6.31527">
        <ele>1509</ele>
        <time>2021-03-29T03:41:58.027Z</time>
      </trkpt>
      <trkpt lat="45.04905" lon="6.31547">
        <ele>1513</ele>
        <time>2021-03-29T03:42:18.986Z</time>
      </trkpt>
      <trkpt lat="45.04895" lon="6.31568">
        <ele>1515</ele>
        <time>2021-03-29T03:42:38.758Z</time>
      </trkpt>
      <trkpt lat="45.04819" lon="6.31634">
        <ele>1504</ele>
        <time>2021-03-29T03:42:50.536Z</time>
      </trkpt>
      <trkpt lat="45.04775" lon="6.31701">
        <ele>1502</ele>
        <time>2021-03-29T03:43:01.260Z</time>
      </trkpt>
      <trkpt lat="45.04769" lon="6.31729">
        <ele>1503</ele>
        <time>2021-03-29T03:43:14.714Z</time>
      </trkpt>
      <trkpt lat="45.0477" lon="6.31745">
        <ele>1506</ele>
        <time>2021-03-29T03:43:31.180Z</time>
      </trkpt>
      <trkpt lat="45.04776" lon="6.3177">
        <ele>1508</ele>
        <time>2021-03-29T03:43:50.808Z</time>
      </trkpt>
      <trkpt lat="45.04805" lon="6.31802">
        <ele>1522</ele>
        <time>2021-03-29T03:44:44.161Z</time>
      </trkpt>
      <trkpt lat="45.04812" lon="6.31815">
        <ele>1525</ele>
        <time>2021-03-29T03:45:00.917Z</time>
      </trkpt>
      <trkpt lat="45.04832" lon="6.31912">
        <ele>1532</ele>
        <time>2021-03-29T03:46:09.452Z</time>
      </trkpt>
      <trkpt lat="45.04833" lon="6.31974">
        <ele>1538</ele>
        <time>2021-03-29T03:47:13.025Z</time>
      </trkpt>
      <trkpt lat="45.04823" lon="6.32012">
        <ele>1536</ele>
        <time>2021-03-29T03:47:16.809Z</time>
      </trkpt>
      <trkpt lat="45.04817" lon="6.3205">
        <ele>1537</ele>
        <time>2021-03-29T03:47:32.323Z</time>
      </trkpt>
      <trkpt lat="45.04815" lon="6.32083">
        <ele>1540</ele>
        <time>2021-03-29T03:48:03.889Z</time>
      </trkpt>
      <trkpt lat="45.04816" lon="6.3218">
        <ele>1539</ele>
        <time>2021-03-29T03:48:17.592Z</time>
      </trkpt>
      <trkpt lat="45.0482" lon="6.322">
        <ele>1545</ele>
        <time>2021-03-29T03:48:38.899Z</time>
      </trkpt>
      <trkpt lat="45.04823" lon="6.32276">
        <ele>1566</ele>
        <time>2021-03-29T03:49:56.929Z</time>
      </trkpt>
      <trkpt lat="45.04818" lon="6.32312">
        <ele>1576</ele>
        <time>2021-03-29T03:50:34.539Z</time>
      </trkpt>
      <trkpt lat="45.04554" lon="6.32899">
        <ele>1573</ele>
        <time>2021-03-29T03:53:23.662Z</time>
      </trkpt>
      <trkpt lat="45.04551" lon="6.32912">
        <ele>1573</ele>
        <time>2021-03-29T03:53:27.297Z</time>
      </trkpt>
      <trkpt lat="45.04551" lon="6.32924">
        <ele>1573</ele>
        <time>2021-03-29T03:53:30.486Z</time>
      </trkpt>
      <trkpt lat="45.04555" lon="6.32932">
        <ele>1575</ele>
        <time>2021-03-29T03:53:40.533Z</time>
      </trkpt>
      <trkpt lat="45.04563" lon="6.32938">
        <ele>1576</ele>
        <time>2021-03-29T03:53:50.394Z</time>
      </trkpt>
      <trkpt lat="45.04571" lon="6.32937">
        <ele>1577</ele>
        <time>2021-03-29T03:54:00.716Z</time>
      </trkpt>
      <trkpt lat="45.04578" lon="6.32929">
        <ele>1578</ele>
        <time>2021-03-29T03:54:10.590Z</time>
      </trkpt>
      <trkpt lat="45.04582" lon="6.32918">
        <ele>1578</ele>
        <time>2021-03-29T03:54:13.878Z</time>
      </trkpt>
      <trkpt lat="45.04587" lon="6.3289">
        <ele>1580</ele>
        <time>2021-03-29T03:54:33.460Z</time>
      </trkpt>
      <trkpt lat="45.04591" lon="6.3288">
        <ele>1581</ele>
        <time>2021-03-29T03:54:43.718Z</time>
      </trkpt>
      <trkpt lat="45.04597" lon="6.32874">
        <ele>1583</ele>
        <time>2021-03-29T03:54:54.378Z</time>
      </trkpt>
      <trkpt lat="45.04605" lon="6.32872">
        <ele>1584</ele>
        <time>2021-03-29T03:55:04.632Z</time>
      </trkpt>
      <trkpt lat="45.04614" lon="6.32876">
        <ele>1586</ele>
        <time>2021-03-29T03:55:18.319Z</time>
      </trkpt>
      <trkpt lat="45.04621" lon="6.32883">
        <ele>1586</ele>
        <time>2021-03-29T03:55:21.544Z</time>
      </trkpt>
      <trkpt lat="45.04625" lon="6.32902">
        <ele>1586</ele>
        <time>2021-03-29T03:55:26.813Z</time>
      </trkpt>
      <trkpt lat="45.04623" lon="6.33001">
        <ele>1586</ele>
        <time>2021-03-29T03:55:53.135Z</time>
      </trkpt>
      <trkpt lat="45.04618" lon="6.33113">
        <ele>1592</ele>
        <time>2021-03-29T03:56:55.835Z</time>
      </trkpt>
      <trkpt lat="45.04611" lon="6.33145">
        <ele>1595</ele>
        <time>2021-03-29T03:57:27.152Z</time>
      </trkpt>
      <trkpt lat="45.04598" lon="6.33165">
        <ele>1594</ele>
        <time>2021-03-29T03:57:29.764Z</time>
      </trkpt>
      <trkpt lat="45.04578" lon="6.33181">
        <ele>1595</ele>
        <time>2021-03-29T03:57:44.137Z</time>
      </trkpt>
      <trkpt lat="45.04545" lon="6.33191">
        <ele>1599</ele>
        <time>2021-03-29T03:58:24.422Z</time>
      </trkpt>
      <trkpt lat="45.04524" lon="6.33194">
        <ele>1600</ele>
        <time>2021-03-29T03:58:38.071Z</time>
      </trkpt>
      <trkpt lat="45.04501" lon="6.33193">
        <ele>1602</ele>
        <time>2021-03-29T03:58:58.035Z</time>
      </trkpt>
      <trkpt lat="45.04461" lon="6.33175">
        <ele>1603</ele>
        <time>2021-03-29T03:59:18.232Z</time>
      </trkpt>
      <trkpt lat="45.04399" lon="6.3313">
        <ele>1600</ele>
        <time>2021-03-29T03:59:28.501Z</time>
      </trkpt>
      <trkpt lat="45.0438" lon="6.33123">
        <ele>1597</ele>
        <time>2021-03-29T03:59:31.094Z</time>
      </trkpt>
      <trkpt lat="45.04363" lon="6.33128">
        <ele>1598</ele>
        <time>2021-03-29T03:59:43.113Z</time>
      </trkpt>
      <trkpt lat="45.04349" lon="6.33142">
        <ele>1600</ele>
        <time>2021-03-29T04:00:03.135Z</time>
      </trkpt>
      <trkpt lat="45.04324" lon="6.33188">
        <ele>1606</ele>
        <time>2021-03-29T04:01:02.630Z</time>
      </trkpt>
      <trkpt lat="45.04321" lon="6.332">
        <ele>1608</ele>
        <time>2021-03-29T04:01:15.680Z</time>
      </trkpt>
      <trkpt lat="45.04321" lon="6.33226">
        <ele>1611</ele>
        <time>2021-03-29T04:01:42.335Z</time>
      </trkpt>
      <trkpt lat="45.04333" lon="6.33247">
        <ele>1615</ele>
        <time>2021-03-29T04:02:10.023Z</time>
      </trkpt>
      <trkpt lat="45.04395" lon="6.33328">
        <ele>1623</ele>
        <time>2021-03-29T04:03:28.592Z</time>
      </trkpt>
      <trkpt lat="45.0441" lon="6.33338">
        <ele>1624</ele>
        <time>2021-03-29T04:03:40.288Z</time>
      </trkpt>
      <trkpt lat="45.04423" lon="6.33342">
        <ele>1624</ele>
        <time>2021-03-29T04:03:45.292Z</time>
      </trkpt>
      <trkpt lat="45.04455" lon="6.33343">
        <ele>1626</ele>
        <time>2021-03-29T04:04:08.221Z</time>
      </trkpt>
      <trkpt lat="45.04573" lon="6.33335">
        <ele>1628</ele>
        <time>2021-03-29T04:05:00.816Z</time>
      </trkpt>
      <trkpt lat="45.04582" lon="6.33337">
        <ele>1629</ele>
        <time>2021-03-29T04:05:10.665Z</time>
      </trkpt>
      <trkpt lat="45.04588" lon="6.33343">
        <ele>1630</ele>
        <time>2021-03-29T04:05:21.325Z</time>
      </trkpt>
      <trkpt lat="45.0459" lon="6.33353">
        <ele>1632</ele>
        <time>2021-03-29T04:05:31.979Z</time>
      </trkpt>
      <trkpt lat="45.04586" lon="6.33364">
        <ele>1634</ele>
        <time>2021-03-29T04:05:44.662Z</time>
      </trkpt>
      <trkpt lat="45.04578" lon="6.3337">
        <ele>1635</ele>
        <time>2021-03-29T04:05:54.522Z</time>
      </trkpt>
      <trkpt lat="45.04531" lon="6.33376">
        <ele>1635</ele>
        <time>2021-03-29T04:06:12.274Z</time>
      </trkpt>
      <trkpt lat="45.04507" lon="6.33388">
        <ele>1636</ele>
        <time>2021-03-29T04:06:27.232Z</time>
      </trkpt>
      <trkpt lat="45.04478" lon="6.33418">
        <ele>1639</ele>
        <time>2021-03-29T04:06:57.507Z</time>
      </trkpt>
      <trkpt lat="45.04452" lon="6.33454">
        <ele>1642</ele>
        <time>2021-03-29T04:07:27.900Z</time>
      </trkpt>
      <trkpt lat="45.04436" lon="6.33486">
        <ele>1645</ele>
        <time>2021-03-29T04:07:57.382Z</time>
      </trkpt>
      <trkpt lat="45.04431" lon="6.33504">
        <ele>1647</ele>
        <time>2021-03-29T04:08:17.210Z</time>
      </trkpt>
      <trkpt lat="45.04426" lon="6.33551">
        <ele>1650</ele>
        <time>2021-03-29T04:08:46.968Z</time>
      </trkpt>
      <trkpt lat="45.04425" lon="6.33652">
        <ele>1657</ele>
        <time>2021-03-29T04:09:55.502Z</time>
      </trkpt>
      <trkpt lat="45.04418" lon="6.33688">
        <ele>1659</ele>
        <time>2021-03-29T04:10:16.387Z</time>
      </trkpt>
      <trkpt lat="45.04408" lon="6.33717">
        <ele>1659</ele>
        <time>2021-03-29T04:10:24.963Z</time>
      </trkpt>
      <trkpt lat="45.04379" lon="6.3377">
        <ele>1662</ele>
        <time>2021-03-29T04:10:59.101Z</time>
      </trkpt>
      <trkpt lat="45.04322" lon="6.33828">
        <ele>1664</ele>
        <time>2021-03-29T04:11:34.833Z</time>
      </trkpt>
      <trkpt lat="45.04289" lon="6.33857">
        <ele>1667</ele>
        <time>2021-03-29T04:12:05.932Z</time>
      </trkpt>
      <trkpt lat="45.04277" lon="6.33873">
        <ele>1668</ele>
        <time>2021-03-29T04:12:17.590Z</time>
      </trkpt>
      <trkpt lat="45.04267" lon="6.3389">
        <ele>1668</ele>
        <time>2021-03-29T04:12:23.470Z</time>
      </trkpt>
      <trkpt lat="45.04244" lon="6.33958">
        <ele>1674</ele>
        <time>2021-03-29T04:13:22.896Z</time>
      </trkpt>
      <trkpt lat="45.04237" lon="6.33967">
        <ele>1675</ele>
        <time>2021-03-29T04:13:32.695Z</time>
      </trkpt>
      <trkpt lat="45.04187" lon="6.3401">
        <ele>1677</ele>
        <time>2021-03-29T04:14:04.737Z</time>
      </trkpt>
      <trkpt lat="45.04139" lon="6.34101">
        <ele>1684</ele>
        <time>2021-03-29T04:15:14.548Z</time>
      </trkpt>
      <trkpt lat="45.04129" lon="6.34139">
        <ele>1687</ele>
        <time>2021-03-29T04:15:43.923Z</time>
      </trkpt>
      <trkpt lat="45.04128" lon="6.34158">
        <ele>1689</ele>
        <time>2021-03-29T04:16:03.456Z</time>
      </trkpt>
      <trkpt lat="45.04144" lon="6.34304">
        <ele>1698</ele>
        <time>2021-03-29T04:17:33.482Z</time>
      </trkpt>
      <trkpt lat="45.04143" lon="6.34329">
        <ele>1698</ele>
        <time>2021-03-29T04:17:40.138Z</time>
      </trkpt>
      <trkpt lat="45.0411" lon="6.34486">
        <ele>1705</ele>
        <time>2021-03-29T04:19:01.879Z</time>
      </trkpt>
      <trkpt lat="45.04105" lon="6.34515">
        <ele>1707</ele>
        <time>2021-03-29T04:19:21.521Z</time>
      </trkpt>
      <trkpt lat="45.04104" lon="6.34542">
        <ele>1709</ele>
        <time>2021-03-29T04:19:41.104Z</time>
      </trkpt>
      <trkpt lat="45.04111" lon="6.34583">
        <ele>1713</ele>
        <time>2021-03-29T04:20:24.348Z</time>
      </trkpt>
      <trkpt lat="45.04139" lon="6.34645">
        <ele>1719</ele>
        <time>2021-03-29T04:21:24.190Z</time>
      </trkpt>
      <trkpt lat="45.04147" lon="6.34672">
        <ele>1721</ele>
        <time>2021-03-29T04:21:43.792Z</time>
      </trkpt>
      <trkpt lat="45.0415" lon="6.34705">
        <ele>1723</ele>
        <time>2021-03-29T04:22:03.869Z</time>
      </trkpt>
      <trkpt lat="45.04146" lon="6.34733">
        <ele>1723</ele>
        <time>2021-03-29T04:22:11.462Z</time>
      </trkpt>
      <trkpt lat="45.04123" lon="6.34796">
        <ele>1723</ele>
        <time>2021-03-29T04:22:30.310Z</time>
      </trkpt>
      <trkpt lat="45.04118" lon="6.34818">
        <ele>1724</ele>
        <time>2021-03-29T04:22:41.905Z</time>
      </trkpt>
      <trkpt lat="45.04116" lon="6.34849">
        <ele>1725</ele>
        <time>2021-03-29T04:22:55.955Z</time>
      </trkpt>
      <trkpt lat="45.04127" lon="6.35046">
        <ele>1740</ele>
        <time>2021-03-29T04:25:23.201Z</time>
      </trkpt>
      <trkpt lat="45.04124" lon="6.35074">
        <ele>1741</ele>
        <time>2021-03-29T04:25:36.361Z</time>
      </trkpt>
      <trkpt lat="45.0411" lon="6.35123">
        <ele>1739</ele>
        <time>2021-03-29T04:25:41.379Z</time>
      </trkpt>
      <trkpt lat="45.04108" lon="6.35146">
        <ele>1739</ele>
        <time>2021-03-29T04:25:47.538Z</time>
      </trkpt>
      <trkpt lat="45.04131" lon="6.35239">
        <ele>1748</ele>
        <time>2021-03-29T04:27:22.820Z</time>
      </trkpt>
      <trkpt lat="45.04151" lon="6.35356">
        <ele>1751</ele>
        <time>2021-03-29T04:28:10.086Z</time>
      </trkpt>
      <trkpt lat="45.04161" lon="6.35383">
        <ele>1753</ele>
        <time>2021-03-29T04:28:29.785Z</time>
      </trkpt>
      <trkpt lat="45.04182" lon="6.35425">
        <ele>1755</ele>
        <time>2021-03-29T04:28:54.509Z</time>
      </trkpt>
      <trkpt lat="45.04205" lon="6.35455">
        <ele>1757</ele>
        <time>2021-03-29T04:29:17.151Z</time>
      </trkpt>
      <trkpt lat="45.04236" lon="6.35485">
        <ele>1760</ele>
        <time>2021-03-29T04:29:47.867Z</time>
      </trkpt>
      <trkpt lat="45.04245" lon="6.35515">
        <ele>1764</ele>
        <time>2021-03-29T04:30:21.281Z</time>
      </trkpt>
      <trkpt lat="45.04242" lon="6.35539">
        <ele>1767</ele>
        <time>2021-03-29T04:30:46.268Z</time>
      </trkpt>
      <trkpt lat="45.04208" lon="6.35592">
        <ele>1770</ele>
        <time>2021-03-29T04:31:21.699Z</time>
      </trkpt>
      <trkpt lat="45.04193" lon="6.35606">
        <ele>1773</ele>
        <time>2021-03-29T04:31:47.770Z</time>
      </trkpt>
      <trkpt lat="45.04178" lon="6.35616">
        <ele>1774</ele>
        <time>2021-03-29T04:31:59.466Z</time>
      </trkpt>
      <trkpt lat="45.04126" lon="6.35637">
        <ele>1770</ele>
        <time>2021-03-29T04:32:06.609Z</time>
      </trkpt>
      <trkpt lat="45.04112" lon="6.35658">
        <ele>1773</ele>
        <time>2021-03-29T04:32:36.209Z</time>
      </trkpt>
      <trkpt lat="45.0408" lon="6.35719">
        <ele>1782</ele>
        <time>2021-03-29T04:33:54.100Z</time>
      </trkpt>
      <trkpt lat="45.04019" lon="6.35786">
        <ele>1782</ele>
        <time>2021-03-29T04:34:23.146Z</time>
      </trkpt>
      <trkpt lat="45.04009" lon="6.35801">
        <ele>1783</ele>
        <time>2021-03-29T04:34:34.063Z</time>
      </trkpt>
      <trkpt lat="45.04002" lon="6.35817">
        <ele>1784</ele>
        <time>2021-03-29T04:34:44.539Z</time>
      </trkpt>
      <trkpt lat="45.03973" lon="6.35959">
        <ele>1798</ele>
        <time>2021-03-29T04:37:16.084Z</time>
      </trkpt>
      <trkpt lat="45.03962" lon="6.35987">
        <ele>1801</ele>
        <time>2021-03-29T04:37:48.503Z</time>
      </trkpt>
      <trkpt lat="45.03951" lon="6.36004">
        <ele>1802</ele>
        <time>2021-03-29T04:38:00.081Z</time>
      </trkpt>
      <trkpt lat="45.03896" lon="6.3605">
        <ele>1799</ele>
        <time>2021-03-29T04:38:09.170Z</time>
      </trkpt>
      <trkpt lat="45.03878" lon="6.36073">
        <ele>1800</ele>
        <time>2021-03-29T04:38:23.829Z</time>
      </trkpt>
      <trkpt lat="45.03867" lon="6.36096">
        <ele>1800</ele>
        <time>2021-03-29T04:38:31.211Z</time>
      </trkpt>
      <trkpt lat="45.03861" lon="6.3612">
        <ele>1801</ele>
        <time>2021-03-29T04:38:43.494Z</time>
      </trkpt>
      <trkpt lat="45.03857" lon="6.36164">
        <ele>1803</ele>
        <time>2021-03-29T04:39:06.163Z</time>
      </trkpt>
      <trkpt lat="45.03857" lon="6.36202">
        <ele>1805</ele>
        <time>2021-03-29T04:39:27.199Z</time>
      </trkpt>
      <trkpt lat="45.03862" lon="6.36224">
        <ele>1807</ele>
        <time>2021-03-29T04:39:47.653Z</time>
      </trkpt>
      <trkpt lat="45.03891" lon="6.36284">
        <ele>1819</ele>
        <time>2021-03-29T04:41:02.183Z</time>
      </trkpt>
      <trkpt lat="45.03894" lon="6.36306">
        <ele>1821</ele>
        <time>2021-03-29T04:41:23.014Z</time>
      </trkpt>
      <trkpt lat="45.0389" lon="6.36331">
        <ele>1823</ele>
        <time>2021-03-29T04:41:42.735Z</time>
      </trkpt>
      <trkpt lat="45.03885" lon="6.36341">
        <ele>1824</ele>
        <time>2021-03-29T04:41:52.712Z</time>
      </trkpt>
      <trkpt lat="45.03857" lon="6.36362">
        <ele>1824</ele>
        <time>2021-03-29T04:42:04.632Z</time>
      </trkpt>
      <trkpt lat="45.03818" lon="6.36387">
        <ele>1825</ele>
        <time>2021-03-29T04:42:25.121Z</time>
      </trkpt>
      <trkpt lat="45.03777" lon="6.36404">
        <ele>1823</ele>
        <time>2021-03-29T04:42:31.207Z</time>
      </trkpt>
      <trkpt lat="45.0376" lon="6.36418">
        <ele>1824</ele>
        <time>2021-03-29T04:42:44.216Z</time>
      </trkpt>
      <trkpt lat="45.03743" lon="6.36438">
        <ele>1824</ele>
        <time>2021-03-29T04:42:52.532Z</time>
      </trkpt>
      <trkpt lat="45.03713" lon="6.36515">
        <ele>1830</ele>
        <time>2021-03-29T04:43:51.345Z</time>
      </trkpt>
      <trkpt lat="45.03689" lon="6.36589">
        <ele>1835</ele>
        <time>2021-03-29T04:44:41.258Z</time>
      </trkpt>
      <trkpt lat="45.03642" lon="6.36719">
        <ele>1843</ele>
        <time>2021-03-29T04:46:04.067Z</time>
      </trkpt>
      <trkpt lat="45.03632" lon="6.36737">
        <ele>1844</ele>
        <time>2021-03-29T04:46:15.601Z</time>
      </trkpt>
      <trkpt lat="45.03621" lon="6.3675">
        <ele>1844</ele>
        <time>2021-03-29T04:46:20.992Z</time>
      </trkpt>
      <trkpt lat="45.03594" lon="6.36769">
        <ele>1841</ele>
        <time>2021-03-29T04:46:24.975Z</time>
      </trkpt>
      <trkpt lat="45.03586" lon="6.36778">
        <ele>1840</ele>
        <time>2021-03-29T04:46:26.325Z</time>
      </trkpt>
      <trkpt lat="45.03579" lon="6.36806">
        <ele>1841</ele>
        <time>2021-03-29T04:46:39.921Z</time>
      </trkpt>
      <trkpt lat="45.03583" lon="6.3682">
        <ele>1844</ele>
        <time>2021-03-29T04:46:55.404Z</time>
      </trkpt>
      <trkpt lat="45.03591" lon="6.36827">
        <ele>1846</ele>
        <time>2021-03-29T04:47:09.052Z</time>
      </trkpt>
      <trkpt lat="45.03599" lon="6.36829">
        <ele>1849</ele>
        <time>2021-03-29T04:47:20.839Z</time>
      </trkpt>
      <trkpt lat="45.03609" lon="6.36823">
        <ele>1851</ele>
        <time>2021-03-29T04:47:36.599Z</time>
      </trkpt>
      <trkpt lat="45.03657" lon="6.36771">
        <ele>1854</ele>
        <time>2021-03-29T04:48:16.263Z</time>
      </trkpt>
      <trkpt lat="45.03685" lon="6.36722">
        <ele>1854</ele>
        <time>2021-03-29T04:48:33.014Z</time>
      </trkpt>
      <trkpt lat="45.03703" lon="6.36697">
        <ele>1856</ele>
        <time>2021-03-29T04:48:53.545Z</time>
      </trkpt>
      <trkpt lat="45.03761" lon="6.36639">
        <ele>1862</ele>
        <time>2021-03-29T04:49:53.893Z</time>
      </trkpt>
      <trkpt lat="45.03786" lon="6.36609">
        <ele>1862</ele>
        <time>2021-03-29T04:50:06.224Z</time>
      </trkpt>
      <trkpt lat="45.03797" lon="6.36586">
        <ele>1860</ele>
        <time>2021-03-29T04:50:08.816Z</time>
      </trkpt>
      <trkpt lat="45.03812" lon="6.36536">
        <ele>1855</ele>
        <time>2021-03-29T04:50:13.886Z</time>
      </trkpt>
      <trkpt lat="45.03821" lon="6.36526">
        <ele>1855</ele>
        <time>2021-03-29T04:50:18.191Z</time>
      </trkpt>
      <trkpt lat="45.03833" lon="6.36524">
        <ele>1857</ele>
        <time>2021-03-29T04:50:35.722Z</time>
      </trkpt>
      <trkpt lat="45.03843" lon="6.36529">
        <ele>1860</ele>
        <time>2021-03-29T04:50:51.110Z</time>
      </trkpt>
      <trkpt lat="45.03849" lon="6.36541">
        <ele>1864</ele>
        <time>2021-03-29T04:51:06.182Z</time>
      </trkpt>
      <trkpt lat="45.0385" lon="6.36559">
        <ele>1867</ele>
        <time>2021-03-29T04:51:24.694Z</time>
      </trkpt>
      <trkpt lat="45.03843" lon="6.36577">
        <ele>1869</ele>
        <time>2021-03-29T04:51:45.760Z</time>
      </trkpt>
      <trkpt lat="45.03783" lon="6.36666">
        <ele>1872</ele>
        <time>2021-03-29T04:52:33.572Z</time>
      </trkpt>
      <trkpt lat="45.03764" lon="6.36703">
        <ele>1874</ele>
        <time>2021-03-29T04:52:56.625Z</time>
      </trkpt>
      <trkpt lat="45.03742" lon="6.36759">
        <ele>1879</ele>
        <time>2021-03-29T04:53:45.928Z</time>
      </trkpt>
      <trkpt lat="45.03719" lon="6.36835">
        <ele>1885</ele>
        <time>2021-03-29T04:54:44.623Z</time>
      </trkpt>
      <trkpt lat="45.03674" lon="6.36915">
        <ele>1890</ele>
        <time>2021-03-29T04:55:38.988Z</time>
      </trkpt>
      <trkpt lat="45.03635" lon="6.37012">
        <ele>1894</ele>
        <time>2021-03-29T04:56:31.107Z</time>
      </trkpt>
      <trkpt lat="45.03608" lon="6.37062">
        <ele>1894</ele>
        <time>2021-03-29T04:56:47.835Z</time>
      </trkpt>
      <trkpt lat="45.035" lon="6.37186">
        <ele>1899</ele>
        <time>2021-03-29T04:58:05.838Z</time>
      </trkpt>
      <trkpt lat="45.03485" lon="6.37207">
        <ele>1899</ele>
        <time>2021-03-29T04:58:13.775Z</time>
      </trkpt>
      <trkpt lat="45.03474" lon="6.37228">
        <ele>1900</ele>
        <time>2021-03-29T04:58:26.264Z</time>
      </trkpt>
      <trkpt lat="45.03464" lon="6.37255">
        <ele>1902</ele>
        <time>2021-03-29T04:58:45.963Z</time>
      </trkpt>
      <trkpt lat="45.03455" lon="6.37291">
        <ele>1905</ele>
        <time>2021-03-29T04:59:15.586Z</time>
      </trkpt>
      <trkpt lat="45.03449" lon="6.37338">
        <ele>1910</ele>
        <time>2021-03-29T05:00:04.557Z</time>
      </trkpt>
      <trkpt lat="45.03449" lon="6.3743">
        <ele>1919</ele>
        <time>2021-03-29T05:01:38.889Z</time>
      </trkpt>
      <trkpt lat="45.03445" lon="6.37453">
        <ele>1921</ele>
        <time>2021-03-29T05:01:59.101Z</time>
      </trkpt>
      <trkpt lat="45.03368" lon="6.37604">
        <ele>1924</ele>
        <time>2021-03-29T05:03:01.666Z</time>
      </trkpt>
      <trkpt lat="45.03338" lon="6.37695">
        <ele>1934</ele>
        <time>2021-03-29T05:04:44.628Z</time>
      </trkpt>
      <trkpt lat="45.03298" lon="6.37804">
        <ele>1944</ele>
        <time>2021-03-29T05:06:24.311Z</time>
      </trkpt>
      <trkpt lat="45.03246" lon="6.37963">
        <ele>1953</ele>
        <time>2021-03-29T05:07:59.972Z</time>
      </trkpt>
      <trkpt lat="45.03224" lon="6.38052">
        <ele>1954</ele>
        <time>2021-03-29T05:08:29.032Z</time>
      </trkpt>
      <trkpt lat="45.03209" lon="6.3814">
        <ele>1957</ele>
        <time>2021-03-29T05:09:10.272Z</time>
      </trkpt>
      <trkpt lat="45.032" lon="6.38216">
        <ele>1959</ele>
        <time>2021-03-29T05:09:41.142Z</time>
      </trkpt>
      <trkpt lat="45.03199" lon="6.38277">
        <ele>1959</ele>
        <time>2021-03-29T05:09:57.363Z</time>
      </trkpt>
      <trkpt lat="45.03211" lon="6.38311">
        <ele>1962</ele>
        <time>2021-03-29T05:10:27.017Z</time>
      </trkpt>
      <trkpt lat="45.03219" lon="6.38326">
        <ele>1964</ele>
        <time>2021-03-29T05:10:46.286Z</time>
      </trkpt>
      <trkpt lat="45.0323" lon="6.38339">
        <ele>1966</ele>
        <time>2021-03-29T05:11:07.081Z</time>
      </trkpt>
      <trkpt lat="45.03252" lon="6.38354">
        <ele>1972</ele>
        <time>2021-03-29T05:11:42.514Z</time>
      </trkpt>
      <trkpt lat="45.03293" lon="6.38375">
        <ele>1979</ele>
        <time>2021-03-29T05:12:45.780Z</time>
      </trkpt>
      <trkpt lat="45.03306" lon="6.38387">
        <ele>1981</ele>
        <time>2021-03-29T05:13:06.902Z</time>
      </trkpt>
      <trkpt lat="45.03313" lon="6.38398">
        <ele>1982</ele>
        <time>2021-03-29T05:13:16.714Z</time>
      </trkpt>
      <trkpt lat="45.0332" lon="6.38414">
        <ele>1982</ele>
        <time>2021-03-29T05:13:21.716Z</time>
      </trkpt>
      <trkpt lat="45.03338" lon="6.38484">
        <ele>1985</ele>
        <time>2021-03-29T05:13:58.003Z</time>
      </trkpt>
      <trkpt lat="45.03344" lon="6.38533">
        <ele>1987</ele>
        <time>2021-03-29T05:14:22.216Z</time>
      </trkpt>
      <trkpt lat="45.03344" lon="6.38548">
        <ele>1988</ele>
        <time>2021-03-29T05:14:32.043Z</time>
      </trkpt>
      <trkpt lat="45.03338" lon="6.38581">
        <ele>1987</ele>
        <time>2021-03-29T05:14:35.643Z</time>
      </trkpt>
      <trkpt lat="45.03284" lon="6.38793">
        <ele>1997</ele>
        <time>2021-03-29T05:16:29.976Z</time>
      </trkpt>
      <trkpt lat="45.03256" lon="6.38978">
        <ele>2001</ele>
        <time>2021-03-29T05:17:39.257Z</time>
      </trkpt>
      <trkpt lat="45.03251" lon="6.39038">
        <ele>2003</ele>
        <time>2021-03-29T05:18:06.771Z</time>
      </trkpt>
      <trkpt lat="45.03251" lon="6.39069">
        <ele>2005</ele>
        <time>2021-03-29T05:18:26.525Z</time>
      </trkpt>
      <trkpt lat="45.03255" lon="6.39105">
        <ele>2008</ele>
        <time>2021-03-29T05:18:56.541Z</time>
      </trkpt>
      <trkpt lat="45.03291" lon="6.39268">
        <ele>2016</ele>
        <time>2021-03-29T05:20:25.406Z</time>
      </trkpt>
      <trkpt lat="45.03295" lon="6.393">
        <ele>2017</ele>
        <time>2021-03-29T05:20:39.777Z</time>
      </trkpt>
      <trkpt lat="45.03294" lon="6.39366">
        <ele>2016</ele>
        <time>2021-03-29T05:20:48.368Z</time>
      </trkpt>
      <trkpt lat="45.03283" lon="6.39479">
        <ele>2012</ele>
        <time>2021-03-29T05:20:59.570Z</time>
      </trkpt>
      <trkpt lat="45.03282" lon="6.39513">
        <ele>2012</ele>
        <time>2021-03-29T05:21:08.616Z</time>
      </trkpt>
      <trkpt lat="45.03292" lon="6.39614">
        <ele>2014</ele>
        <time>2021-03-29T05:21:44.968Z</time>
      </trkpt>
      <trkpt lat="45.03307" lon="6.3973">
        <ele>2016</ele>
        <time>2021-03-29T05:22:25.150Z</time>
      </trkpt>
      <trkpt lat="45.03366" lon="6.39952">
        <ele>2020</ele>
        <time>2021-03-29T05:23:45.839Z</time>
      </trkpt>
      <trkpt lat="45.03375" lon="6.40011">
        <ele>2024</ele>
        <time>2021-03-29T05:24:25.179Z</time>
      </trkpt>
      <trkpt lat="45.0338" lon="6.40075">
        <ele>2027</ele>
        <time>2021-03-29T05:24:58.597Z</time>
      </trkpt>
      <trkpt lat="45.03378" lon="6.40143">
        <ele>2030</ele>
        <time>2021-03-29T05:25:33.024Z</time>
      </trkpt>
      <trkpt lat="45.03372" lon="6.40193">
        <ele>2032</ele>
        <time>2021-03-29T05:25:57.530Z</time>
      </trkpt>
      <trkpt lat="45.03331" lon="6.40421">
        <ele>2042</ele>
        <time>2021-03-29T05:27:54.676Z</time>
      </trkpt>
      <trkpt lat="45.0333" lon="6.4044">
        <ele>2043</ele>
        <time>2021-03-29T05:28:05.207Z</time>
      </trkpt>
      <trkpt lat="45.03333" lon="6.40465">
        <ele>2044</ele>
        <time>2021-03-29T05:28:17.460Z</time>
      </trkpt>
      <trkpt lat="45.03341" lon="6.40489">
        <ele>2046</ele>
        <time>2021-03-29T05:28:37.076Z</time>
      </trkpt>
      <trkpt lat="45.03353" lon="6.40509">
        <ele>2048</ele>
        <time>2021-03-29T05:28:56.720Z</time>
      </trkpt>
      <trkpt lat="45.03377" lon="6.40528">
        <ele>2051</ele>
        <time>2021-03-29T05:29:26.235Z</time>
      </trkpt>
      <trkpt lat="45.03397" lon="6.40533">
        <ele>2052</ele>
        <time>2021-03-29T05:29:39.528Z</time>
      </trkpt>
      <trkpt lat="45.03405" lon="6.40532">
        <ele>2053</ele>
        <time>2021-03-29T05:29:49.850Z</time>
      </trkpt>
      <trkpt lat="45.03464" lon="6.40503">
        <ele>2057</ele>
        <time>2021-03-29T05:30:35.095Z</time>
      </trkpt>
      <trkpt lat="45.03501" lon="6.40505">
        <ele>2061</ele>
        <time>2021-03-29T05:31:14.390Z</time>
      </trkpt>
      <trkpt lat="45.03523" lon="6.4051">
        <ele>2060</ele>
        <time>2021-03-29T05:31:17.620Z</time>
      </trkpt>
      <trkpt lat="45.03542" lon="6.40519">
        <ele>2060</ele>
        <time>2021-03-29T05:31:25.157Z</time>
      </trkpt>
      <trkpt lat="45.03555" lon="6.40498">
        <ele>2059</ele>
        <time>2021-03-29T05:31:27.873Z</time>
      </trkpt>
      <trkpt lat="45.03664" lon="6.40418">
        <ele>2061</ele>
        <time>2021-03-29T05:32:22.162Z</time>
      </trkpt>
      <trkpt lat="45.03681" lon="6.40397">
        <ele>2062</ele>
        <time>2021-03-29T05:32:36.451Z</time>
      </trkpt>
      <trkpt lat="45.03704" lon="6.40355">
        <ele>2065</ele>
        <time>2021-03-29T05:33:07.165Z</time>
      </trkpt>
      <trkpt lat="45.03724" lon="6.403">
        <ele>2072</ele>
        <time>2021-03-29T05:34:10.585Z</time>
      </trkpt>
      <trkpt lat="45.03735" lon="6.40287">
        <ele>2073</ele>
        <time>2021-03-29T05:34:21.415Z</time>
      </trkpt>
      <trkpt lat="45.03745" lon="6.4028">
        <ele>2073</ele>
        <time>2021-03-29T05:34:25.611Z</time>
      </trkpt>
      <trkpt lat="45.03756" lon="6.40277">
        <ele>2073</ele>
        <time>2021-03-29T05:34:29.825Z</time>
      </trkpt>
      <trkpt lat="45.03797" lon="6.40285">
        <ele>2067</ele>
        <time>2021-03-29T05:34:35.292Z</time>
      </trkpt>
      <trkpt lat="45.03804" lon="6.40284">
        <ele>2066</ele>
        <time>2021-03-29T05:34:36.222Z</time>
      </trkpt>
      <trkpt lat="45.03812" lon="6.40278">
        <ele>2067</ele>
        <time>2021-03-29T05:34:46.083Z</time>
      </trkpt>
      <trkpt lat="45.03817" lon="6.40266">
        <ele>2068</ele>
        <time>2021-03-29T05:34:55.863Z</time>
      </trkpt>
      <trkpt lat="45.03858" lon="6.40115">
        <ele>2084</ele>
        <time>2021-03-29T05:37:41.717Z</time>
      </trkpt>
      <trkpt lat="45.03872" lon="6.40086">
        <ele>2088</ele>
        <time>2021-03-29T05:38:17.726Z</time>
      </trkpt>
      <trkpt lat="45.03884" lon="6.40075">
        <ele>2090</ele>
        <time>2021-03-29T05:38:38.471Z</time>
      </trkpt>
      <trkpt lat="45.03897" lon="6.40069">
        <ele>2092</ele>
        <time>2021-03-29T05:38:58.311Z</time>
      </trkpt>
      <trkpt lat="45.03908" lon="6.40067">
        <ele>2092</ele>
        <time>2021-03-29T05:39:02.483Z</time>
      </trkpt>
      <trkpt lat="45.03926" lon="6.4007">
        <ele>2094</ele>
        <time>2021-03-29T05:39:22.201Z</time>
      </trkpt>
      <trkpt lat="45.04015" lon="6.40117">
        <ele>2100</ele>
        <time>2021-03-29T05:40:30.581Z</time>
      </trkpt>
      <trkpt lat="45.04035" lon="6.40135">
        <ele>2100</ele>
        <time>2021-03-29T05:40:39.497Z</time>
      </trkpt>
      <trkpt lat="45.04055" lon="6.40159">
        <ele>2099</ele>
        <time>2021-03-29T05:40:43.545Z</time>
      </trkpt>
      <trkpt lat="45.04065" lon="6.40166">
        <ele>2100</ele>
        <time>2021-03-29T05:40:53.458Z</time>
      </trkpt>
      <trkpt lat="45.04073" lon="6.40167">
        <ele>2101</ele>
        <time>2021-03-29T05:41:03.780Z</time>
      </trkpt>
      <trkpt lat="45.04079" lon="6.40165">
        <ele>2103</ele>
        <time>2021-03-29T05:41:12.723Z</time>
      </trkpt>
      <trkpt lat="45.04087" lon="6.40149">
        <ele>2111</ele>
        <time>2021-03-29T05:41:32.819Z</time>
      </trkpt>
      <trkpt lat="45.04086" lon="6.40136">
        <ele>2114</ele>
        <time>2021-03-29T05:41:46.226Z</time>
      </trkpt>
      <trkpt lat="45.0408" lon="6.40122">
        <ele>2115</ele>
        <time>2021-03-29T05:41:56.222Z</time>
      </trkpt>
      <trkpt lat="45.04042" lon="6.40101">
        <ele>2111</ele>
        <time>2021-03-29T05:42:01.610Z</time>
      </trkpt>
      <trkpt lat="45.04027" lon="6.40086">
        <ele>2111</ele>
        <time>2021-03-29T05:42:08.519Z</time>
      </trkpt>
      <trkpt lat="45.03839" lon="6.39845">
        <ele>2132</ele>
        <time>2021-03-29T05:45:41.017Z</time>
      </trkpt>
      <trkpt lat="45.03824" lon="6.39836">
        <ele>2132</ele>
        <time>2021-03-29T05:45:47.145Z</time>
      </trkpt>
      <trkpt lat="45.03814" lon="6.39833">
        <ele>2133</ele>
        <time>2021-03-29T05:45:56.938Z</time>
      </trkpt>
      <trkpt lat="45.03772" lon="6.39835">
        <ele>2131</ele>
        <time>2021-03-29T05:46:02.882Z</time>
      </trkpt>
      <trkpt lat="45.03759" lon="6.39831">
        <ele>2132</ele>
        <time>2021-03-29T05:46:13.361Z</time>
      </trkpt>
      <trkpt lat="45.03744" lon="6.3982">
        <ele>2132</ele>
        <time>2021-03-29T05:46:19.716Z</time>
      </trkpt>
      <trkpt lat="45.03733" lon="6.39797">
        <ele>2131</ele>
        <time>2021-03-29T05:46:22.412Z</time>
      </trkpt>
      <trkpt lat="45.03729" lon="6.39781">
        <ele>2132</ele>
        <time>2021-03-29T05:46:32.509Z</time>
      </trkpt>
      <trkpt lat="45.03728" lon="6.39758">
        <ele>2135</ele>
        <time>2021-03-29T05:46:56.135Z</time>
      </trkpt>
      <trkpt lat="45.0373" lon="6.39685">
        <ele>2139</ele>
        <time>2021-03-29T05:47:37.549Z</time>
      </trkpt>
      <trkpt lat="45.03734" lon="6.39652">
        <ele>2142</ele>
        <time>2021-03-29T05:48:08.873Z</time>
      </trkpt>
      <trkpt lat="45.03744" lon="6.39604">
        <ele>2147</ele>
        <time>2021-03-29T05:49:00.181Z</time>
      </trkpt>
      <trkpt lat="45.03752" lon="6.39578">
        <ele>2150</ele>
        <time>2021-03-29T05:49:29.257Z</time>
      </trkpt>
      <trkpt lat="45.03788" lon="6.39495">
        <ele>2158</ele>
        <time>2021-03-29T05:50:49.240Z</time>
      </trkpt>
      <trkpt lat="45.03796" lon="6.3947">
        <ele>2162</ele>
        <time>2021-03-29T05:51:17.378Z</time>
      </trkpt>
      <trkpt lat="45.03806" lon="6.39374">
        <ele>2166</ele>
        <time>2021-03-29T05:52:05.086Z</time>
      </trkpt>
      <trkpt lat="45.03799" lon="6.39307">
        <ele>2161</ele>
        <time>2021-03-29T05:52:11.408Z</time>
      </trkpt>
      <trkpt lat="45.03803" lon="6.39294">
        <ele>2162</ele>
        <time>2021-03-29T05:52:21.191Z</time>
      </trkpt>
      <trkpt lat="45.03812" lon="6.39285">
        <ele>2167</ele>
        <time>2021-03-29T05:52:37.180Z</time>
      </trkpt>
      <trkpt lat="45.03821" lon="6.39286">
        <ele>2172</ele>
        <time>2021-03-29T05:52:50.279Z</time>
      </trkpt>
      <trkpt lat="45.03826" lon="6.3929">
        <ele>2175</ele>
        <time>2021-03-29T05:52:58.613Z</time>
      </trkpt>
      <trkpt lat="45.0383" lon="6.39299">
        <ele>2178</ele>
        <time>2021-03-29T05:53:09.514Z</time>
      </trkpt>
      <trkpt lat="45.03826" lon="6.39348">
        <ele>2177</ele>
        <time>2021-03-29T05:53:15.436Z</time>
      </trkpt>
      <trkpt lat="45.03826" lon="6.39378">
        <ele>2177</ele>
        <time>2021-03-29T05:53:23.411Z</time>
      </trkpt>
      <trkpt lat="45.03838" lon="6.39486">
        <ele>2181</ele>
        <time>2021-03-29T05:54:14.823Z</time>
      </trkpt>
      <trkpt lat="45.03846" lon="6.39518">
        <ele>2183</ele>
        <time>2021-03-29T05:54:35.017Z</time>
      </trkpt>
      <trkpt lat="45.03946" lon="6.39685">
        <ele>2194</ele>
        <time>2021-03-29T05:56:33.093Z</time>
      </trkpt>
      <trkpt lat="45.03982" lon="6.3974">
        <ele>2199</ele>
        <time>2021-03-29T05:57:22.226Z</time>
      </trkpt>
      <trkpt lat="45.03993" lon="6.39752">
        <ele>2201</ele>
        <time>2021-03-29T05:57:42.378Z</time>
      </trkpt>
      <trkpt lat="45.04119" lon="6.39865">
        <ele>2214</ele>
        <time>2021-03-29T05:59:52.060Z</time>
      </trkpt>
      <trkpt lat="45.04182" lon="6.39904">
        <ele>2226</ele>
        <time>2021-03-29T06:01:31.832Z</time>
      </trkpt>
      <trkpt lat="45.04198" lon="6.39919">
        <ele>2229</ele>
        <time>2021-03-29T06:01:59.678Z</time>
      </trkpt>
      <trkpt lat="45.04243" lon="6.39979">
        <ele>2233</ele>
        <time>2021-03-29T06:02:44.678Z</time>
      </trkpt>
      <trkpt lat="45.04289" lon="6.40055">
        <ele>2236</ele>
        <time>2021-03-29T06:03:28.184Z</time>
      </trkpt>
      <trkpt lat="45.04338" lon="6.40162">
        <ele>2230</ele>
        <time>2021-03-29T06:03:39.091Z</time>
      </trkpt>
      <trkpt lat="45.04345" lon="6.40173">
        <ele>2228</ele>
        <time>2021-03-29T06:03:40.473Z</time>
      </trkpt>
      <trkpt lat="45.04352" lon="6.40181">
        <ele>2228</ele>
        <time>2021-03-29T06:03:43.858Z</time>
      </trkpt>
      <trkpt lat="45.04363" lon="6.40185">
        <ele>2228</ele>
        <time>2021-03-29T06:03:48.130Z</time>
      </trkpt>
      <trkpt lat="45.04371" lon="6.40185">
        <ele>2229</ele>
        <time>2021-03-29T06:03:58.476Z</time>
      </trkpt>
      <trkpt lat="45.04379" lon="6.40183">
        <ele>2230</ele>
        <time>2021-03-29T06:04:08.731Z</time>
      </trkpt>
      <trkpt lat="45.04387" lon="6.40177">
        <ele>2232</ele>
        <time>2021-03-29T06:04:21.867Z</time>
      </trkpt>
      <trkpt lat="45.04397" lon="6.40163">
        <ele>2236</ele>
        <time>2021-03-29T06:04:42.276Z</time>
      </trkpt>
      <trkpt lat="45.0442" lon="6.40114">
        <ele>2250</ele>
        <time>2021-03-29T06:05:42.585Z</time>
      </trkpt>
      <trkpt lat="45.04435" lon="6.40096">
        <ele>2253</ele>
        <time>2021-03-29T06:06:11.119Z</time>
      </trkpt>
      <trkpt lat="45.04443" lon="6.40092">
        <ele>2252</ele>
        <time>2021-03-29T06:06:12.239Z</time>
      </trkpt>
      <trkpt lat="45.04485" lon="6.40085">
        <ele>2247</ele>
        <time>2021-03-29T06:06:17.826Z</time>
      </trkpt>
      <trkpt lat="45.04498" lon="6.40078">
        <ele>2247</ele>
        <time>2021-03-29T06:06:23.058Z</time>
      </trkpt>
      <trkpt lat="45.04573" lon="6.40003">
        <ele>2264</ele>
        <time>2021-03-29T06:08:36.300Z</time>
      </trkpt>
      <trkpt lat="45.04653" lon="6.39917">
        <ele>2270</ele>
        <time>2021-03-29T06:09:46.875Z</time>
      </trkpt>
      <trkpt lat="45.04671" lon="6.39895">
        <ele>2272</ele>
        <time>2021-03-29T06:10:07.017Z</time>
      </trkpt>
      <trkpt lat="45.04725" lon="6.39817">
        <ele>2278</ele>
        <time>2021-03-29T06:11:09.052Z</time>
      </trkpt>
      <trkpt lat="45.04783" lon="6.39722">
        <ele>2286</ele>
        <time>2021-03-29T06:12:28.253Z</time>
      </trkpt>
      <trkpt lat="45.04837" lon="6.39651">
        <ele>2285</ele>
        <time>2021-03-29T06:12:43.179Z</time>
      </trkpt>
      <trkpt lat="45.04853" lon="6.39619">
        <ele>2286</ele>
        <time>2021-03-29T06:12:58.746Z</time>
      </trkpt>
      <trkpt lat="45.04863" lon="6.39584">
        <ele>2292</ele>
        <time>2021-03-29T06:13:37.447Z</time>
      </trkpt>
      <trkpt lat="45.04871" lon="6.39493">
        <ele>2302</ele>
        <time>2021-03-29T06:15:11.450Z</time>
      </trkpt>
      <trkpt lat="45.04874" lon="6.39476">
        <ele>2305</ele>
        <time>2021-03-29T06:15:29.412Z</time>
      </trkpt>
      <trkpt lat="45.0488" lon="6.39462">
        <ele>2306</ele>
        <time>2021-03-29T06:15:39.408Z</time>
      </trkpt>
      <trkpt lat="45.04905" lon="6.3942">
        <ele>2306</ele>
        <time>2021-03-29T06:15:54.004Z</time>
      </trkpt>
      <trkpt lat="45.04923" lon="6.39395">
        <ele>2309</ele>
        <time>2021-03-29T06:16:24.264Z</time>
      </trkpt>
      <trkpt lat="45.04941" lon="6.39382">
        <ele>2310</ele>
        <time>2021-03-29T06:16:37.511Z</time>
      </trkpt>
      <trkpt lat="45.04992" lon="6.39356">
        <ele>2305</ele>
        <time>2021-03-29T06:16:44.672Z</time>
      </trkpt>
      <trkpt lat="45.05006" lon="6.39338">
        <ele>2308</ele>
        <time>2021-03-29T06:17:12.114Z</time>
      </trkpt>
      <trkpt lat="45.05011" lon="6.39316">
        <ele>2312</ele>
        <time>2021-03-29T06:17:35.804Z</time>
      </trkpt>
      <trkpt lat="45.05005" lon="6.39236">
        <ele>2325</ele>
        <time>2021-03-29T06:18:58.270Z</time>
      </trkpt>
      <trkpt lat="45.05007" lon="6.39222">
        <ele>2327</ele>
        <time>2021-03-29T06:19:12.912Z</time>
      </trkpt>
      <trkpt lat="45.05013" lon="6.39205">
        <ele>2329</ele>
        <time>2021-03-29T06:19:32.391Z</time>
      </trkpt>
      <trkpt lat="45.05023" lon="6.39189">
        <ele>2330</ele>
        <time>2021-03-29T06:19:43.502Z</time>
      </trkpt>
      <trkpt lat="45.05094" lon="6.39112">
        <ele>2335</ele>
        <time>2021-03-29T06:20:44.700Z</time>
      </trkpt>
      <trkpt lat="45.05115" lon="6.3908">
        <ele>2339</ele>
        <time>2021-03-29T06:21:27.140Z</time>
      </trkpt>
      <trkpt lat="45.0517" lon="6.38972">
        <ele>2347</ele>
        <time>2021-03-29T06:22:47.452Z</time>
      </trkpt>
      <trkpt lat="45.05186" lon="6.38949">
        <ele>2350</ele>
        <time>2021-03-29T06:23:19.665Z</time>
      </trkpt>
      <trkpt lat="45.05199" lon="6.38946">
        <ele>2349</ele>
        <time>2021-03-29T06:23:21.405Z</time>
      </trkpt>
      <trkpt lat="45.05223" lon="6.38961">
        <ele>2348</ele>
        <time>2021-03-29T06:23:25.457Z</time>
      </trkpt>
      <trkpt lat="45.05233" lon="6.38973">
        <ele>2349</ele>
        <time>2021-03-29T06:23:35.873Z</time>
      </trkpt>
      <trkpt lat="45.0524" lon="6.38991">
        <ele>2350</ele>
        <time>2021-03-29T06:23:46.770Z</time>
      </trkpt>
      <trkpt lat="45.05241" lon="6.39009">
        <ele>2351</ele>
        <time>2021-03-29T06:23:57.078Z</time>
      </trkpt>
      <trkpt lat="45.05235" lon="6.39027">
        <ele>2353</ele>
        <time>2021-03-29T06:24:17.479Z</time>
      </trkpt>
      <trkpt lat="45.05207" lon="6.39067">
        <ele>2349</ele>
        <time>2021-03-29T06:24:22.734Z</time>
      </trkpt>
      <trkpt lat="45.05197" lon="6.3909">
        <ele>2347</ele>
        <time>2021-03-29T06:24:25.254Z</time>
      </trkpt>
      <trkpt lat="45.05166" lon="6.392">
        <ele>2342</ele>
        <time>2021-03-29T06:24:35.937Z</time>
      </trkpt>
      <trkpt lat="45.05165" lon="6.39242">
        <ele>2345</ele>
        <time>2021-03-29T06:25:05.279Z</time>
      </trkpt>
      <trkpt lat="45.05173" lon="6.39258">
        <ele>2348</ele>
        <time>2021-03-29T06:25:25.372Z</time>
      </trkpt>
      <trkpt lat="45.05208" lon="6.39288">
        <ele>2358</ele>
        <time>2021-03-29T06:26:24.740Z</time>
      </trkpt>
      <trkpt lat="45.05221" lon="6.39307">
        <ele>2361</ele>
        <time>2021-03-29T06:26:51.852Z</time>
      </trkpt>
      <trkpt lat="45.0523" lon="6.39332">
        <ele>2362</ele>
        <time>2021-03-29T06:27:04.929Z</time>
      </trkpt>
      <trkpt lat="45.05237" lon="6.39376">
        <ele>2362</ele>
        <time>2021-03-29T06:27:16.915Z</time>
      </trkpt>
      <trkpt lat="45.05246" lon="6.39397">
        <ele>2364</ele>
        <time>2021-03-29T06:27:36.854Z</time>
      </trkpt>
      <trkpt lat="45.05279" lon="6.39425">
        <ele>2372</ele>
        <time>2021-03-29T06:28:32.678Z</time>
      </trkpt>
      <trkpt lat="45.05293" lon="6.39442">
        <ele>2375</ele>
        <time>2021-03-29T06:28:59.441Z</time>
      </trkpt>
      <trkpt lat="45.05303" lon="6.39473">
        <ele>2377</ele>
        <time>2021-03-29T06:29:19.658Z</time>
      </trkpt>
      <trkpt lat="45.05324" lon="6.39559">
        <ele>2379</ele>
        <time>2021-03-29T06:29:53.476Z</time>
      </trkpt>
      <trkpt lat="45.0533" lon="6.39596">
        <ele>2379</ele>
        <time>2021-03-29T06:30:03.565Z</time>
      </trkpt>
      <trkpt lat="45.05332" lon="6.39723">
        <ele>2381</ele>
        <time>2021-03-29T06:30:45.981Z</time>
      </trkpt>
      <trkpt lat="45.05324" lon="6.39866">
        <ele>2394</ele>
        <time>2021-03-29T06:33:02.829Z</time>
      </trkpt>
      <trkpt lat="45.05312" lon="6.39932">
        <ele>2397</ele>
        <time>2021-03-29T06:33:37.276Z</time>
      </trkpt>
      <trkpt lat="45.05295" lon="6.3999">
        <ele>2393</ele>
        <time>2021-03-29T06:33:43.135Z</time>
      </trkpt>
      <trkpt lat="45.05286" lon="6.40045">
        <ele>2393</ele>
        <time>2021-03-29T06:33:58.138Z</time>
      </trkpt>
      <trkpt lat="45.05308" lon="6.40156">
        <ele>2409</ele>
        <time>2021-03-29T06:35:56.308Z</time>
      </trkpt>
      <trkpt lat="45.0531" lon="6.40227">
        <ele>2409</ele>
        <time>2021-03-29T06:36:15.191Z</time>
      </trkpt>
      <trkpt lat="45.05313" lon="6.40238">
        <ele>2410</ele>
        <time>2021-03-29T06:36:25.318Z</time>
      </trkpt>
      <trkpt lat="45.0532" lon="6.40249">
        <ele>2412</ele>
        <time>2021-03-29T06:36:40.494Z</time>
      </trkpt>
      <trkpt lat="45.05329" lon="6.40256">
        <ele>2415</ele>
        <time>2021-03-29T06:36:55.393Z</time>
      </trkpt>
      <trkpt lat="45.05338" lon="6.40257">
        <ele>2418</ele>
        <time>2021-03-29T06:37:08.492Z</time>
      </trkpt>
      <trkpt lat="45.05368" lon="6.40251">
        <ele>2426</ele>
        <time>2021-03-29T06:37:52.452Z</time>
      </trkpt>
      <trkpt lat="45.05379" lon="6.40255">
        <ele>2429</ele>
        <time>2021-03-29T06:38:08.931Z</time>
      </trkpt>
      <trkpt lat="45.05387" lon="6.40266">
        <ele>2431</ele>
        <time>2021-03-29T06:38:25.113Z</time>
      </trkpt>
      <trkpt lat="45.05392" lon="6.40287">
        <ele>2432</ele>
        <time>2021-03-29T06:38:36.440Z</time>
      </trkpt>
      <trkpt lat="45.05393" lon="6.40305">
        <ele>2432</ele>
        <time>2021-03-29T06:38:41.238Z</time>
      </trkpt>
      <trkpt lat="45.05381" lon="6.40373">
        <ele>2428</ele>
        <time>2021-03-29T06:38:47.779Z</time>
      </trkpt>
      <trkpt lat="45.0538" lon="6.40397">
        <ele>2429</ele>
        <time>2021-03-29T06:38:59.640Z</time>
      </trkpt>
      <trkpt lat="45.05384" lon="6.4042">
        <ele>2431</ele>
        <time>2021-03-29T06:39:19.855Z</time>
      </trkpt>
      <trkpt lat="45.05415" lon="6.40508">
        <ele>2433</ele>
        <time>2021-03-29T06:39:55.346Z</time>
      </trkpt>
      <trkpt lat="45.05438" lon="6.40564">
        <ele>2437</ele>
        <time>2021-03-29T06:40:35.219Z</time>
      </trkpt>
      <trkpt lat="45.05473" lon="6.40623">
        <ele>2444</ele>
        <time>2021-03-29T06:41:49.045Z</time>
      </trkpt>
      <trkpt lat="45.05496" lon="6.40671">
        <ele>2445</ele>
        <time>2021-03-29T06:42:08.896Z</time>
      </trkpt>
      <trkpt lat="45.05522" lon="6.40745">
        <ele>2444</ele>
        <time>2021-03-29T06:42:20.209Z</time>
      </trkpt>
      <trkpt lat="45.05542" lon="6.40815">
        <ele>2445</ele>
        <time>2021-03-29T06:42:44.434Z</time>
      </trkpt>
      <trkpt lat="45.05549" lon="6.40829">
        <ele>2446</ele>
        <time>2021-03-29T06:42:54.563Z</time>
      </trkpt>
      <trkpt lat="45.05563" lon="6.40847">
        <ele>2447</ele>
        <time>2021-03-29T06:43:07.241Z</time>
      </trkpt>
      <trkpt lat="45.05575" lon="6.40854">
        <ele>2448</ele>
        <time>2021-03-29T06:43:17.617Z</time>
      </trkpt>
      <trkpt lat="45.05621" lon="6.40852">
        <ele>2455</ele>
        <time>2021-03-29T06:44:24.392Z</time>
      </trkpt>
      <trkpt lat="45.05679" lon="6.40856">
        <ele>2455</ele>
        <time>2021-03-29T06:44:46.235Z</time>
      </trkpt>
      <trkpt lat="45.05688" lon="6.40851">
        <ele>2455</ele>
        <time>2021-03-29T06:44:49.872Z</time>
      </trkpt>
      <trkpt lat="45.05696" lon="6.40842">
        <ele>2457</ele>
        <time>2021-03-29T06:45:04.699Z</time>
      </trkpt>
      <trkpt lat="45.05713" lon="6.40805">
        <ele>2471</ele>
        <time>2021-03-29T06:45:49.938Z</time>
      </trkpt>
      <trkpt lat="45.05724" lon="6.40792">
        <ele>2476</ele>
        <time>2021-03-29T06:46:10.729Z</time>
      </trkpt>
      <trkpt lat="45.05792" lon="6.40763">
        <ele>2480</ele>
        <time>2021-03-29T06:46:59.461Z</time>
      </trkpt>
      <trkpt lat="45.05832" lon="6.4074">
        <ele>2485</ele>
        <time>2021-03-29T06:47:49.387Z</time>
      </trkpt>
      <trkpt lat="45.05896" lon="6.40718">
        <ele>2488</ele>
        <time>2021-03-29T06:48:31.479Z</time>
      </trkpt>
      <trkpt lat="45.05935" lon="6.40699">
        <ele>2493</ele>
        <time>2021-03-29T06:49:22.348Z</time>
      </trkpt>
      <trkpt lat="45.05989" lon="6.40686">
        <ele>2493</ele>
        <time>2021-03-29T06:49:42.953Z</time>
      </trkpt>
      <trkpt lat="45.06006" lon="6.40686">
        <ele>2493</ele>
        <time>2021-03-29T06:49:49.348Z</time>
      </trkpt>
      <trkpt lat="45.06024" lon="6.4069">
        <ele>2496</ele>
        <time>2021-03-29T06:50:15.785Z</time>
      </trkpt>
      <trkpt lat="45.06075" lon="6.40711">
        <ele>2502</ele>
        <time>2021-03-29T06:51:15.255Z</time>
      </trkpt>
      <trkpt lat="45.06085" lon="6.40723">
        <ele>2502</ele>
        <time>2021-03-29T06:51:20.187Z</time>
      </trkpt>
      <trkpt lat="45.06097" lon="6.40745">
        <ele>2501</ele>
        <time>2021-03-29T06:51:22.884Z</time>
      </trkpt>
      <trkpt lat="45.06102" lon="6.40759">
        <ele>2501</ele>
        <time>2021-03-29T06:51:27.053Z</time>
      </trkpt>
      <trkpt lat="45.06103" lon="6.40773">
        <ele>2501</ele>
        <time>2021-03-29T06:51:30.791Z</time>
      </trkpt>
      <trkpt lat="45.06095" lon="6.40837">
        <ele>2494</ele>
        <time>2021-03-29T06:51:36.856Z</time>
      </trkpt>
      <trkpt lat="45.06093" lon="6.40977">
        <ele>2510</ele>
        <time>2021-03-29T06:54:00.368Z</time>
      </trkpt>
      <trkpt lat="45.06085" lon="6.4101">
        <ele>2510</ele>
        <time>2021-03-29T06:54:09.638Z</time>
      </trkpt>
      <trkpt lat="45.06031" lon="6.41126">
        <ele>2507</ele>
        <time>2021-03-29T06:54:25.985Z</time>
      </trkpt>
      <trkpt lat="45.06029" lon="6.41142">
        <ele>2508</ele>
        <time>2021-03-29T06:54:35.962Z</time>
      </trkpt>
      <trkpt lat="45.06033" lon="6.41156">
        <ele>2512</ele>
        <time>2021-03-29T06:54:51.439Z</time>
      </trkpt>
      <trkpt lat="45.06042" lon="6.41163">
        <ele>2517</ele>
        <time>2021-03-29T06:55:06.339Z</time>
      </trkpt>
      <trkpt lat="45.06047" lon="6.41164">
        <ele>2519</ele>
        <time>2021-03-29T06:55:13.665Z</time>
      </trkpt>
      <trkpt lat="45.06058" lon="6.41155">
        <ele>2522</ele>
        <time>2021-03-29T06:55:32.100Z</time>
      </trkpt>
      <trkpt lat="45.06079" lon="6.41075">
        <ele>2519</ele>
        <time>2021-03-29T06:55:40.466Z</time>
      </trkpt>
      <trkpt lat="45.06146" lon="6.40961">
        <ele>2532</ele>
        <time>2021-03-29T06:57:54.392Z</time>
      </trkpt>
      <trkpt lat="45.0615" lon="6.4094">
        <ele>2530</ele>
        <time>2021-03-29T06:57:56.422Z</time>
      </trkpt>
      <trkpt lat="45.06148" lon="6.40883">
        <ele>2521</ele>
        <time>2021-03-29T06:58:01.746Z</time>
      </trkpt>
      <trkpt lat="45.06152" lon="6.40866">
        <ele>2521</ele>
        <time>2021-03-29T06:58:06.507Z</time>
      </trkpt>
      <trkpt lat="45.0616" lon="6.40849">
        <ele>2522</ele>
        <time>2021-03-29T06:58:17.372Z</time>
      </trkpt>
      <trkpt lat="45.06169" lon="6.40836">
        <ele>2524</ele>
        <time>2021-03-29T06:58:36.028Z</time>
      </trkpt>
      <trkpt lat="45.06178" lon="6.40828">
        <ele>2527</ele>
        <time>2021-03-29T06:58:51.447Z</time>
      </trkpt>
      <trkpt lat="45.06232" lon="6.40794">
        <ele>2545</ele>
        <time>2021-03-29T07:00:17.197Z</time>
      </trkpt>
      <trkpt lat="45.06242" lon="6.40782">
        <ele>2547</ele>
        <time>2021-03-29T07:00:36.217Z</time>
      </trkpt>
      <trkpt lat="45.06249" lon="6.40767">
        <ele>2547</ele>
        <time>2021-03-29T07:00:40.994Z</time>
      </trkpt>
      <trkpt lat="45.06251" lon="6.40744">
        <ele>2546</ele>
        <time>2021-03-29T07:00:43.062Z</time>
      </trkpt>
      <trkpt lat="45.06249" lon="6.40735">
        <ele>2546</ele>
        <time>2021-03-29T07:00:45.569Z</time>
      </trkpt>
      <trkpt lat="45.06242" lon="6.40722">
        <ele>2545</ele>
        <time>2021-03-29T07:00:47.094Z</time>
      </trkpt>
      <trkpt lat="45.06232" lon="6.40712">
        <ele>2543</ele>
        <time>2021-03-29T07:00:48.711Z</time>
      </trkpt>
      <trkpt lat="45.06213" lon="6.40702">
        <ele>2539</ele>
        <time>2021-03-29T07:00:51.389Z</time>
      </trkpt>
      <trkpt lat="45.06189" lon="6.40684">
        <ele>2535</ele>
        <time>2021-03-29T07:00:54.976Z</time>
      </trkpt>
      <trkpt lat="45.06176" lon="6.40671">
        <ele>2534</ele>
        <time>2021-03-29T07:00:56.960Z</time>
      </trkpt>
      <trkpt lat="45.0615" lon="6.40634">
        <ele>2532</ele>
        <time>2021-03-29T07:01:01.884Z</time>
      </trkpt>
      <trkpt lat="45.06145" lon="6.4062">
        <ele>2533</ele>
        <time>2021-03-29T07:01:11.783Z</time>
      </trkpt>
      <trkpt lat="45.06145" lon="6.40602">
        <ele>2535</ele>
        <time>2021-03-29T07:01:30.231Z</time>
      </trkpt>
      <trkpt lat="45.0615" lon="6.40588">
        <ele>2538</ele>
        <time>2021-03-29T07:01:46.308Z</time>
      </trkpt>
      <trkpt lat="45.06159" lon="6.40576">
        <ele>2540</ele>
        <time>2021-03-29T07:02:04.246Z</time>
      </trkpt>
      <trkpt lat="45.06165" lon="6.40574">
        <ele>2541</ele>
        <time>2021-03-29T07:02:13.190Z</time>
      </trkpt>
      <trkpt lat="45.0618" lon="6.40575">
        <ele>2544</ele>
        <time>2021-03-29T07:02:34.978Z</time>
      </trkpt>
      <trkpt lat="45.06187" lon="6.4058">
        <ele>2545</ele>
        <time>2021-03-29T07:02:45.462Z</time>
      </trkpt>
      <trkpt lat="45.06227" lon="6.40652">
        <ele>2548</ele>
        <time>2021-03-29T07:03:27.030Z</time>
      </trkpt>
      <trkpt lat="45.06248" lon="6.40666">
        <ele>2552</ele>
        <time>2021-03-29T07:04:00.709Z</time>
      </trkpt>
      <trkpt lat="45.06284" lon="6.40707">
        <ele>2566</ele>
        <time>2021-03-29T07:05:07.746Z</time>
      </trkpt>
      <trkpt lat="45.06291" lon="6.40726">
        <ele>2569</ele>
        <time>2021-03-29T07:05:29.708Z</time>
      </trkpt>
      <trkpt lat="45.06293" lon="6.40741">
        <ele>2570</ele>
        <time>2021-03-29T07:05:39.559Z</time>
      </trkpt>
      <trkpt lat="45.06291" lon="6.40766">
        <ele>2571</ele>
        <time>2021-03-29T07:05:51.749Z</time>
      </trkpt>
      <trkpt lat="45.06294" lon="6.40814">
        <ele>2578</ele>
        <time>2021-03-29T07:06:41.133Z</time>
      </trkpt>
      <trkpt lat="45.06291" lon="6.40846">
        <ele>2582</ele>
        <time>2021-03-29T07:07:14.216Z</time>
      </trkpt>
      <trkpt lat="45.06286" lon="6.40858">
        <ele>2581</ele>
        <time>2021-03-29T07:07:15.516Z</time>
      </trkpt>
      <trkpt lat="45.06264" lon="6.40885">
        <ele>2575</ele>
        <time>2021-03-29T07:07:19.362Z</time>
      </trkpt>
      <trkpt lat="45.06248" lon="6.40915">
        <ele>2574</ele>
        <time>2021-03-29T07:07:23.480Z</time>
      </trkpt>
      <trkpt lat="45.06223" lon="6.40984">
        <ele>2574</ele>
        <time>2021-03-29T07:07:44.085Z</time>
      </trkpt>
      <trkpt lat="45.06221" lon="6.40997">
        <ele>2576</ele>
        <time>2021-03-29T07:07:57.720Z</time>
      </trkpt>
      <trkpt lat="45.06223" lon="6.4107">
        <ele>2585</ele>
        <time>2021-03-29T07:09:12.591Z</time>
      </trkpt>
      <trkpt lat="45.0623" lon="6.41114">
        <ele>2592</ele>
        <time>2021-03-29T07:09:58.814Z</time>
      </trkpt>
      <trkpt lat="45.0623" lon="6.41123">
        <ele>2592</ele>
        <time>2021-03-29T07:10:01.205Z</time>
      </trkpt>
      <trkpt lat="45.06222" lon="6.41151">
        <ele>2590</ele>
        <time>2021-03-29T07:10:04.023Z</time>
      </trkpt>
      <trkpt lat="45.06224" lon="6.41158">
        <ele>2592</ele>
        <time>2021-03-29T07:10:11.762Z</time>
      </trkpt>
      <trkpt lat="45.06231" lon="6.41157">
        <ele>2595</ele>
        <time>2021-03-29T07:10:21.970Z</time>
      </trkpt>
      <trkpt lat="45.0624" lon="6.41138">
        <ele>2598</ele>
        <time>2021-03-29T07:10:45.416Z</time>
      </trkpt>
      <trkpt lat="45.06246" lon="6.41117">
        <ele>2600</ele>
        <time>2021-03-29T07:11:06.108Z</time>
      </trkpt>
      <trkpt lat="45.06247" lon="6.41092">
        <ele>2598</ele>
        <time>2021-03-29T07:11:08.444Z</time>
      </trkpt>
      <trkpt lat="45.06252" lon="6.41088">
        <ele>2600</ele>
        <time>2021-03-29T07:11:16.777Z</time>
      </trkpt>
      <trkpt lat="45.06256" lon="6.41089">
        <ele>2602</ele>
        <time>2021-03-29T07:11:22.670Z</time>
      </trkpt>
      <trkpt lat="45.0626" lon="6.41114">
        <ele>2606</ele>
        <time>2021-03-29T07:11:48.941Z</time>
      </trkpt>
      <trkpt lat="45.06251" lon="6.41161">
        <ele>2605</ele>
        <time>2021-03-29T07:11:54.762Z</time>
      </trkpt>
      <trkpt lat="45.06255" lon="6.41168">
        <ele>2608</ele>
        <time>2021-03-29T07:12:03.989Z</time>
      </trkpt>
      <trkpt lat="45.06263" lon="6.41164">
        <ele>2611</ele>
        <time>2021-03-29T07:12:16.299Z</time>
      </trkpt>
      <trkpt lat="45.06273" lon="6.41135">
        <ele>2614</ele>
        <time>2021-03-29T07:12:48.524Z</time>
      </trkpt>
      <trkpt lat="45.06283" lon="6.41074">
        <ele>2613</ele>
        <time>2021-03-29T07:12:56.560Z</time>
      </trkpt>
      <trkpt lat="45.06289" lon="6.41051">
        <ele>2613</ele>
        <time>2021-03-29T07:13:03.074Z</time>
      </trkpt>
      <trkpt lat="45.06297" lon="6.41031">
        <ele>2616</ele>
        <time>2021-03-29T07:13:26.630Z</time>
      </trkpt>
      <trkpt lat="45.06324" lon="6.40995">
        <ele>2626</ele>
        <time>2021-03-29T07:14:20.443Z</time>
      </trkpt>
      <trkpt lat="45.06334" lon="6.40949">
        <ele>2622</ele>
        <time>2021-03-29T07:14:24.934Z</time>
      </trkpt>
      <trkpt lat="45.06343" lon="6.40925">
        <ele>2621</ele>
        <time>2021-03-29T07:14:27.544Z</time>
      </trkpt>
      <trkpt lat="45.06368" lon="6.40897">
        <ele>2625</ele>
        <time>2021-03-29T07:15:09.028Z</time>
      </trkpt>
      <trkpt lat="45.06375" lon="6.40885">
        <ele>2625</ele>
        <time>2021-03-29T07:15:13.164Z</time>
      </trkpt>
      <trkpt lat="45.06398" lon="6.40799">
        <ele>2626</ele>
        <time>2021-03-29T07:15:41.608Z</time>
      </trkpt>
      <trkpt lat="45.06401" lon="6.4079">
        <ele>2627</ele>
        <time>2021-03-29T07:15:51.807Z</time>
      </trkpt>
      <trkpt lat="45.06407" lon="6.40784">
        <ele>2630</ele>
        <time>2021-03-29T07:16:02.465Z</time>
      </trkpt>
      <trkpt lat="45.06416" lon="6.40787">
        <ele>2634</ele>
        <time>2021-03-29T07:16:15.880Z</time>
      </trkpt>
      <trkpt lat="45.0642" lon="6.40798">
        <ele>2633</ele>
        <time>2021-03-29T07:16:17.035Z</time>
      </trkpt>
      <trkpt lat="45.06419" lon="6.40826">
        <ele>2633</ele>
        <time>2021-03-29T07:16:24.484Z</time>
      </trkpt>
      <trkpt lat="45.06422" lon="6.40847">
        <ele>2633</ele>
        <time>2021-03-29T07:16:30.176Z</time>
      </trkpt>
      <trkpt lat="45.06433" lon="6.40886">
        <ele>2634</ele>
        <time>2021-03-29T07:16:46.319Z</time>
      </trkpt>
      <trkpt lat="45.06447" lon="6.40921">
        <ele>2633</ele>
        <time>2021-03-29T07:16:50.834Z</time>
      </trkpt>
      <trkpt lat="45.0646" lon="6.40938">
        <ele>2632</ele>
        <time>2021-03-29T07:16:53.154Z</time>
      </trkpt>
      <trkpt lat="45.06483" lon="6.40961">
        <ele>2628</ele>
        <time>2021-03-29T07:16:56.873Z</time>
      </trkpt>
      <trkpt lat="45.06512" lon="6.4102">
        <ele>2628</ele>
        <time>2021-03-29T07:17:15.971Z</time>
      </trkpt>
      <trkpt lat="45.06524" lon="6.41039">
        <ele>2625</ele>
        <time>2021-03-29T07:17:18.349Z</time>
      </trkpt>
      <trkpt lat="45.06547" lon="6.41089">
        <ele>2624</ele>
        <time>2021-03-29T07:17:25.910Z</time>
      </trkpt>
      <trkpt lat="45.06558" lon="6.41098">
        <ele>2620</ele>
        <time>2021-03-29T07:17:27.588Z</time>
      </trkpt>
      <trkpt lat="45.06608" lon="6.41125">
        <ele>2602</ele>
        <time>2021-03-29T07:17:34.656Z</time>
      </trkpt>
      <trkpt lat="45.06613" lon="6.41133">
        <ele>2600</ele>
        <time>2021-03-29T07:17:35.653Z</time>
      </trkpt>
      <trkpt lat="45.06615" lon="6.41144">
        <ele>2601</ele>
        <time>2021-03-29T07:17:45.982Z</time>
      </trkpt>
      <trkpt lat="45.06614" lon="6.41207">
        <ele>2599</ele>
        <time>2021-03-29T07:17:52.430Z</time>
      </trkpt>
      <trkpt lat="45.06602" lon="6.41262">
        <ele>2597</ele>
        <time>2021-03-29T07:17:58.101Z</time>
      </trkpt>
      <trkpt lat="45.06587" lon="6.41296">
        <ele>2598</ele>
        <time>2021-03-29T07:18:13.845Z</time>
      </trkpt>
      <trkpt lat="45.06588" lon="6.41303">
        <ele>2596</ele>
        <time>2021-03-29T07:18:14.511Z</time>
      </trkpt>
      <trkpt lat="45.06592" lon="6.41307">
        <ele>2595</ele>
        <time>2021-03-29T07:18:15.158Z</time>
      </trkpt>
      <trkpt lat="45.06599" lon="6.41304">
        <ele>2593</ele>
        <time>2021-03-29T07:18:16.124Z</time>
      </trkpt>
      <trkpt lat="45.06629" lon="6.41243">
        <ele>2589</ele>
        <time>2021-03-29T07:18:23.059Z</time>
      </trkpt>
      <trkpt lat="45.06652" lon="6.41184">
        <ele>2584</ele>
        <time>2021-03-29T07:18:29.346Z</time>
      </trkpt>
      <trkpt lat="45.06669" lon="6.41151">
        <ele>2575</ele>
        <time>2021-03-29T07:18:33.157Z</time>
      </trkpt>
      <trkpt lat="45.06673" lon="6.41135">
        <ele>2572</ele>
        <time>2021-03-29T07:18:34.740Z</time>
      </trkpt>
      <trkpt lat="45.06641" lon="6.41073">
        <ele>2580</ele>
        <time>2021-03-29T07:19:53.433Z</time>
      </trkpt>
      <trkpt lat="45.0662" lon="6.41001">
        <ele>2575</ele>
        <time>2021-03-29T07:20:00.700Z</time>
      </trkpt>
      <trkpt lat="45.06598" lon="6.40948">
        <ele>2574</ele>
        <time>2021-03-29T07:20:08.551Z</time>
      </trkpt>
      <trkpt lat="45.06594" lon="6.40925">
        <ele>2572</ele>
        <time>2021-03-29T07:20:10.761Z</time>
      </trkpt>
      <trkpt lat="45.06598" lon="6.40913">
        <ele>2569</ele>
        <time>2021-03-29T07:20:11.999Z</time>
      </trkpt>
      <trkpt lat="45.06603" lon="6.40908">
        <ele>2567</ele>
        <time>2021-03-29T07:20:12.808Z</time>
      </trkpt>
      <trkpt lat="45.06611" lon="6.4091">
        <ele>2565</ele>
        <time>2021-03-29T07:20:13.881Z</time>
      </trkpt>
      <trkpt lat="45.06624" lon="6.40941">
        <ele>2566</ele>
        <time>2021-03-29T07:20:28.841Z</time>
      </trkpt>
      <trkpt lat="45.06636" lon="6.40954">
        <ele>2563</ele>
        <time>2021-03-29T07:20:30.837Z</time>
      </trkpt>
      <trkpt lat="45.06643" lon="6.40955">
        <ele>2561</ele>
        <time>2021-03-29T07:20:31.766Z</time>
      </trkpt>
      <trkpt lat="45.06654" lon="6.40945">
        <ele>2557</ele>
        <time>2021-03-29T07:20:33.493Z</time>
      </trkpt>
      <trkpt lat="45.06675" lon="6.40914">
        <ele>2548</ele>
        <time>2021-03-29T07:20:37.500Z</time>
      </trkpt>
      <trkpt lat="45.06689" lon="6.4091">
        <ele>2544</ele>
        <time>2021-03-29T07:20:39.387Z</time>
      </trkpt>
      <trkpt lat="45.06694" lon="6.40979">
        <ele>2545</ele>
        <time>2021-03-29T07:21:02.053Z</time>
      </trkpt>
      <trkpt lat="45.06706" lon="6.41057">
        <ele>2547</ele>
        <time>2021-03-29T07:21:33.470Z</time>
      </trkpt>
      <trkpt lat="45.06711" lon="6.4107">
        <ele>2546</ele>
        <time>2021-03-29T07:21:34.851Z</time>
      </trkpt>
      <trkpt lat="45.06715" lon="6.41073">
        <ele>2544</ele>
        <time>2021-03-29T07:21:35.449Z</time>
      </trkpt>
      <trkpt lat="45.06722" lon="6.41073">
        <ele>2541</ele>
        <time>2021-03-29T07:21:36.373Z</time>
      </trkpt>
      <trkpt lat="45.06728" lon="6.4107">
        <ele>2537</ele>
        <time>2021-03-29T07:21:37.214Z</time>
      </trkpt>
      <trkpt lat="45.06731" lon="6.41061">
        <ele>2535</ele>
        <time>2021-03-29T07:21:38.142Z</time>
      </trkpt>
      <trkpt lat="45.06732" lon="6.41017">
        <ele>2532</ele>
        <time>2021-03-29T07:21:42.249Z</time>
      </trkpt>
      <trkpt lat="45.06738" lon="6.40974">
        <ele>2529</ele>
        <time>2021-03-29T07:21:46.339Z</time>
      </trkpt>
      <trkpt lat="45.06746" lon="6.40932">
        <ele>2528</ele>
        <time>2021-03-29T07:21:51.353Z</time>
      </trkpt>
      <trkpt lat="45.06756" lon="6.40903">
        <ele>2525</ele>
        <time>2021-03-29T07:21:54.364Z</time>
      </trkpt>
      <trkpt lat="45.06768" lon="6.40892">
        <ele>2521</ele>
        <time>2021-03-29T07:21:56.252Z</time>
      </trkpt>
      <trkpt lat="45.06822" lon="6.40866">
        <ele>2503</ele>
        <time>2021-03-29T07:22:03.786Z</time>
      </trkpt>
      <trkpt lat="45.06842" lon="6.40867">
        <ele>2497</ele>
        <time>2021-03-29T07:22:06.430Z</time>
      </trkpt>
      <trkpt lat="45.06856" lon="6.40887">
        <ele>2493</ele>
        <time>2021-03-29T07:22:09.057Z</time>
      </trkpt>
      <trkpt lat="45.06857" lon="6.40898">
        <ele>2494</ele>
        <time>2021-03-29T07:22:19.547Z</time>
      </trkpt>
      <trkpt lat="45.06855" lon="6.40911">
        <ele>2495</ele>
        <time>2021-03-29T07:22:29.353Z</time>
      </trkpt>
      <trkpt lat="45.06851" lon="6.40918">
        <ele>2496</ele>
        <time>2021-03-29T07:22:38.580Z</time>
      </trkpt>
      <trkpt lat="45.06845" lon="6.40924">
        <ele>2497</ele>
        <time>2021-03-29T07:22:49.238Z</time>
      </trkpt>
      <trkpt lat="45.06823" lon="6.40929">
        <ele>2503</ele>
        <time>2021-03-29T07:23:21.567Z</time>
      </trkpt>
      <trkpt lat="45.06814" lon="6.40935">
        <ele>2505</ele>
        <time>2021-03-29T07:23:36.001Z</time>
      </trkpt>
      <trkpt lat="45.06809" lon="6.40942">
        <ele>2506</ele>
        <time>2021-03-29T07:23:46.203Z</time>
      </trkpt>
      <trkpt lat="45.06805" lon="6.40955">
        <ele>2506</ele>
        <time>2021-03-29T07:23:49.970Z</time>
      </trkpt>
      <trkpt lat="45.06801" lon="6.4104">
        <ele>2503</ele>
        <time>2021-03-29T07:23:58.313Z</time>
      </trkpt>
      <trkpt lat="45.06795" lon="6.41074">
        <ele>2506</ele>
        <time>2021-03-29T07:24:28.832Z</time>
      </trkpt>
      <trkpt lat="45.06797" lon="6.41086">
        <ele>2505</ele>
        <time>2021-03-29T07:24:29.983Z</time>
      </trkpt>
      <trkpt lat="45.06801" lon="6.41091">
        <ele>2503</ele>
        <time>2021-03-29T07:24:30.687Z</time>
      </trkpt>
      <trkpt lat="45.0681" lon="6.41093">
        <ele>2499</ele>
        <time>2021-03-29T07:24:31.891Z</time>
      </trkpt>
      <trkpt lat="45.06818" lon="6.41087">
        <ele>2495</ele>
        <time>2021-03-29T07:24:33.087Z</time>
      </trkpt>
      <trkpt lat="45.06821" lon="6.41073">
        <ele>2494</ele>
        <time>2021-03-29T07:24:34.451Z</time>
      </trkpt>
      <trkpt lat="45.0682" lon="6.41048">
        <ele>2495</ele>
        <time>2021-03-29T07:24:46.605Z</time>
      </trkpt>
      <trkpt lat="45.06822" lon="6.41037">
        <ele>2495</ele>
        <time>2021-03-29T07:24:49.623Z</time>
      </trkpt>
      <trkpt lat="45.06826" lon="6.41027">
        <ele>2493</ele>
        <time>2021-03-29T07:24:50.695Z</time>
      </trkpt>
      <trkpt lat="45.0684" lon="6.4101">
        <ele>2489</ele>
        <time>2021-03-29T07:24:53.131Z</time>
      </trkpt>
      <trkpt lat="45.06854" lon="6.41001">
        <ele>2487</ele>
        <time>2021-03-29T07:24:55.162Z</time>
      </trkpt>
      <trkpt lat="45.06891" lon="6.40992">
        <ele>2481</ele>
        <time>2021-03-29T07:25:00.121Z</time>
      </trkpt>
      <trkpt lat="45.06914" lon="6.40975">
        <ele>2478</ele>
        <time>2021-03-29T07:25:03.548Z</time>
      </trkpt>
      <trkpt lat="45.06922" lon="6.40978">
        <ele>2475</ele>
        <time>2021-03-29T07:25:04.641Z</time>
      </trkpt>
      <trkpt lat="45.06926" lon="6.40988">
        <ele>2474</ele>
        <time>2021-03-29T07:25:05.713Z</time>
      </trkpt>
      <trkpt lat="45.06926" lon="6.41">
        <ele>2474</ele>
        <time>2021-03-29T07:25:08.901Z</time>
      </trkpt>
      <trkpt lat="45.06919" lon="6.41023">
        <ele>2473</ele>
        <time>2021-03-29T07:25:11.220Z</time>
      </trkpt>
      <trkpt lat="45.06918" lon="6.41036">
        <ele>2472</ele>
        <time>2021-03-29T07:25:12.440Z</time>
      </trkpt>
      <trkpt lat="45.06919" lon="6.41046">
        <ele>2471</ele>
        <time>2021-03-29T07:25:13.382Z</time>
      </trkpt>
      <trkpt lat="45.06925" lon="6.41057">
        <ele>2470</ele>
        <time>2021-03-29T07:25:14.679Z</time>
      </trkpt>
      <trkpt lat="45.0694" lon="6.41067">
        <ele>2469</ele>
        <time>2021-03-29T07:25:16.786Z</time>
      </trkpt>
      <trkpt lat="45.06966" lon="6.41079">
        <ele>2468</ele>
        <time>2021-03-29T07:25:21.074Z</time>
      </trkpt>
      <trkpt lat="45.07015" lon="6.41089">
        <ele>2466</ele>
        <time>2021-03-29T07:25:28.554Z</time>
      </trkpt>
      <trkpt lat="45.07032" lon="6.41098">
        <ele>2462</ele>
        <time>2021-03-29T07:25:30.951Z</time>
      </trkpt>
      <trkpt lat="45.07105" lon="6.4115">
        <ele>2458</ele>
        <time>2021-03-29T07:25:42.373Z</time>
      </trkpt>
      <trkpt lat="45.07145" lon="6.41153">
        <ele>2456</ele>
        <time>2021-03-29T07:25:47.925Z</time>
      </trkpt>
      <trkpt lat="45.0719" lon="6.41161">
        <ele>2451</ele>
        <time>2021-03-29T07:25:53.915Z</time>
      </trkpt>
      <trkpt lat="45.07201" lon="6.41169">
        <ele>2450</ele>
        <time>2021-03-29T07:25:55.549Z</time>
      </trkpt>
      <trkpt lat="45.0721" lon="6.41183">
        <ele>2449</ele>
        <time>2021-03-29T07:25:57.315Z</time>
      </trkpt>
      <trkpt lat="45.07212" lon="6.41191">
        <ele>2448</ele>
        <time>2021-03-29T07:25:58.107Z</time>
      </trkpt>
      <trkpt lat="45.07212" lon="6.41212">
        <ele>2448</ele>
        <time>2021-03-29T07:26:03.685Z</time>
      </trkpt>
      <trkpt lat="45.07207" lon="6.41247">
        <ele>2448</ele>
        <time>2021-03-29T07:26:13.172Z</time>
      </trkpt>
      <trkpt lat="45.07209" lon="6.41282">
        <ele>2446</ele>
        <time>2021-03-29T07:26:16.447Z</time>
      </trkpt>
      <trkpt lat="45.07214" lon="6.41293">
        <ele>2445</ele>
        <time>2021-03-29T07:26:17.668Z</time>
      </trkpt>
      <trkpt lat="45.07225" lon="6.41301">
        <ele>2443</ele>
        <time>2021-03-29T07:26:19.301Z</time>
      </trkpt>
      <trkpt lat="45.0724" lon="6.41299">
        <ele>2442</ele>
        <time>2021-03-29T07:26:21.128Z</time>
      </trkpt>
      <trkpt lat="45.0729" lon="6.41285">
        <ele>2437</ele>
        <time>2021-03-29T07:26:27.861Z</time>
      </trkpt>
      <trkpt lat="45.07324" lon="6.41284">
        <ele>2433</ele>
        <time>2021-03-29T07:26:32.353Z</time>
      </trkpt>
      <trkpt lat="45.07351" lon="6.41277">
        <ele>2431</ele>
        <time>2021-03-29T07:26:35.979Z</time>
      </trkpt>
      <trkpt lat="45.07365" lon="6.41277">
        <ele>2430</ele>
        <time>2021-03-29T07:26:37.828Z</time>
      </trkpt>
      <trkpt lat="45.07373" lon="6.41279">
        <ele>2429</ele>
        <time>2021-03-29T07:26:38.901Z</time>
      </trkpt>
      <trkpt lat="45.07381" lon="6.41287">
        <ele>2428</ele>
        <time>2021-03-29T07:26:40.195Z</time>
      </trkpt>
      <trkpt lat="45.07407" lon="6.41327">
        <ele>2424</ele>
        <time>2021-03-29T07:26:45.266Z</time>
      </trkpt>
      <trkpt lat="45.07418" lon="6.41334">
        <ele>2423</ele>
        <time>2021-03-29T07:26:46.859Z</time>
      </trkpt>
      <trkpt lat="45.07451" lon="6.41332">
        <ele>2419</ele>
        <time>2021-03-29T07:26:51.222Z</time>
      </trkpt>
      <trkpt lat="45.07496" lon="6.41325">
        <ele>2414</ele>
        <time>2021-03-29T07:26:57.202Z</time>
      </trkpt>
      <trkpt lat="45.07506" lon="6.41321">
        <ele>2413</ele>
        <time>2021-03-29T07:26:58.574Z</time>
      </trkpt>
      <trkpt lat="45.07584" lon="6.4126">
        <ele>2399</ele>
        <time>2021-03-29T07:27:10.344Z</time>
      </trkpt>
      <trkpt lat="45.0759" lon="6.41252">
        <ele>2399</ele>
        <time>2021-03-29T07:27:13.444Z</time>
      </trkpt>
      <trkpt lat="45.07593" lon="6.41243">
        <ele>2399</ele>
        <time>2021-03-29T07:27:16.088Z</time>
      </trkpt>
      <trkpt lat="45.07595" lon="6.41215">
        <ele>2401</ele>
        <time>2021-03-29T07:27:35.650Z</time>
      </trkpt>
      <trkpt lat="45.07601" lon="6.41197">
        <ele>2403</ele>
        <time>2021-03-29T07:27:56.045Z</time>
      </trkpt>
      <trkpt lat="45.07613" lon="6.41189">
        <ele>2403</ele>
        <time>2021-03-29T07:28:01.034Z</time>
      </trkpt>
      <trkpt lat="45.07626" lon="6.41191">
        <ele>2403</ele>
        <time>2021-03-29T07:28:05.953Z</time>
      </trkpt>
      <trkpt lat="45.07667" lon="6.4122">
        <ele>2399</ele>
        <time>2021-03-29T07:28:12.007Z</time>
      </trkpt>
      <trkpt lat="45.07724" lon="6.41272">
        <ele>2394</ele>
        <time>2021-03-29T07:28:20.963Z</time>
      </trkpt>
      <trkpt lat="45.07761" lon="6.41316">
        <ele>2389</ele>
        <time>2021-03-29T07:28:27.345Z</time>
      </trkpt>
      <trkpt lat="45.07864" lon="6.41402">
        <ele>2384</ele>
        <time>2021-03-29T07:28:45.172Z</time>
      </trkpt>
      <trkpt lat="45.07876" lon="6.41415">
        <ele>2383</ele>
        <time>2021-03-29T07:28:47.007Z</time>
      </trkpt>
      <trkpt lat="45.07885" lon="6.41427">
        <ele>2382</ele>
        <time>2021-03-29T07:28:48.639Z</time>
      </trkpt>
      <trkpt lat="45.07909" lon="6.41472">
        <ele>2377</ele>
        <time>2021-03-29T07:28:53.899Z</time>
      </trkpt>
      <trkpt lat="45.07926" lon="6.41549">
        <ele>2365</ele>
        <time>2021-03-29T07:29:01.424Z</time>
      </trkpt>
      <trkpt lat="45.07956" lon="6.41609">
        <ele>2359</ele>
        <time>2021-03-29T07:29:08.282Z</time>
      </trkpt>
      <trkpt lat="45.07966" lon="6.4162">
        <ele>2358</ele>
        <time>2021-03-29T07:29:09.954Z</time>
      </trkpt>
      <trkpt lat="45.08036" lon="6.41668">
        <ele>2360</ele>
        <time>2021-03-29T07:29:48.225Z</time>
      </trkpt>
      <trkpt lat="45.08046" lon="6.41679">
        <ele>2360</ele>
        <time>2021-03-29T07:29:52.988Z</time>
      </trkpt>
      <trkpt lat="45.08066" lon="6.41719">
        <ele>2357</ele>
        <time>2021-03-29T07:29:57.560Z</time>
      </trkpt>
      <trkpt lat="45.08074" lon="6.41746">
        <ele>2354</ele>
        <time>2021-03-29T07:30:00.291Z</time>
      </trkpt>
      <trkpt lat="45.08083" lon="6.41931">
        <ele>2339</ele>
        <time>2021-03-29T07:30:17.587Z</time>
      </trkpt>
      <trkpt lat="45.08105" lon="6.42064">
        <ele>2334</ele>
        <time>2021-03-29T07:30:30.737Z</time>
      </trkpt>
      <trkpt lat="45.08106" lon="6.42085">
        <ele>2333</ele>
        <time>2021-03-29T07:30:32.700Z</time>
      </trkpt>
      <trkpt lat="45.08097" lon="6.42124">
        <ele>2330</ele>
        <time>2021-03-29T07:30:36.527Z</time>
      </trkpt>
      <trkpt lat="45.0809" lon="6.42172">
        <ele>2327</ele>
        <time>2021-03-29T07:30:41.098Z</time>
      </trkpt>
      <trkpt lat="45.08083" lon="6.42199">
        <ele>2326</ele>
        <time>2021-03-29T07:30:43.930Z</time>
      </trkpt>
      <trkpt lat="45.08064" lon="6.42247">
        <ele>2322</ele>
        <time>2021-03-29T07:30:49.062Z</time>
      </trkpt>
      <trkpt lat="45.08042" lon="6.42338">
        <ele>2320</ele>
        <time>2021-03-29T07:31:00.511Z</time>
      </trkpt>
      <trkpt lat="45.08036" lon="6.42386">
        <ele>2312</ele>
        <time>2021-03-29T07:31:05.057Z</time>
      </trkpt>
      <trkpt lat="45.0803" lon="6.42391">
        <ele>2309</ele>
        <time>2021-03-29T07:31:05.977Z</time>
      </trkpt>
      <trkpt lat="45.08025" lon="6.42392">
        <ele>2308</ele>
        <time>2021-03-29T07:31:06.644Z</time>
      </trkpt>
      <trkpt lat="45.0802" lon="6.42389">
        <ele>2307</ele>
        <time>2021-03-29T07:31:07.361Z</time>
      </trkpt>
      <trkpt lat="45.08016" lon="6.4238">
        <ele>2307</ele>
        <time>2021-03-29T07:31:10.186Z</time>
      </trkpt>
      <trkpt lat="45.08016" lon="6.42367">
        <ele>2308</ele>
        <time>2021-03-29T07:31:20.022Z</time>
      </trkpt>
      <trkpt lat="45.08025" lon="6.42331">
        <ele>2315</ele>
        <time>2021-03-29T07:31:59.149Z</time>
      </trkpt>
      <trkpt lat="45.08025" lon="6.42307">
        <ele>2314</ele>
        <time>2021-03-29T07:32:01.326Z</time>
      </trkpt>
      <trkpt lat="45.08022" lon="6.42293">
        <ele>2312</ele>
        <time>2021-03-29T07:32:02.691Z</time>
      </trkpt>
      <trkpt lat="45.08016" lon="6.42277">
        <ele>2310</ele>
        <time>2021-03-29T07:32:04.380Z</time>
      </trkpt>
      <trkpt lat="45.07999" lon="6.42255">
        <ele>2304</ele>
        <time>2021-03-29T07:32:07.422Z</time>
      </trkpt>
      <trkpt lat="45.07996" lon="6.42248">
        <ele>2304</ele>
        <time>2021-03-29T07:32:09.597Z</time>
      </trkpt>
      <trkpt lat="45.07993" lon="6.42215">
        <ele>2304</ele>
        <time>2021-03-29T07:32:18.435Z</time>
      </trkpt>
      <trkpt lat="45.07988" lon="6.42199">
        <ele>2304</ele>
        <time>2021-03-29T07:32:23.083Z</time>
      </trkpt>
      <trkpt lat="45.07981" lon="6.42188">
        <ele>2304</ele>
        <time>2021-03-29T07:32:27.016Z</time>
      </trkpt>
      <trkpt lat="45.07973" lon="6.42184">
        <ele>2303</ele>
        <time>2021-03-29T07:32:28.137Z</time>
      </trkpt>
      <trkpt lat="45.07967" lon="6.42184">
        <ele>2302</ele>
        <time>2021-03-29T07:32:28.929Z</time>
      </trkpt>
      <trkpt lat="45.07957" lon="6.42191">
        <ele>2301</ele>
        <time>2021-03-29T07:32:30.403Z</time>
      </trkpt>
      <trkpt lat="45.079" lon="6.42267">
        <ele>2295</ele>
        <time>2021-03-29T07:32:40.744Z</time>
      </trkpt>
      <trkpt lat="45.07893" lon="6.42284">
        <ele>2294</ele>
        <time>2021-03-29T07:32:42.579Z</time>
      </trkpt>
      <trkpt lat="45.07881" lon="6.42367">
        <ele>2288</ele>
        <time>2021-03-29T07:32:50.482Z</time>
      </trkpt>
      <trkpt lat="45.07876" lon="6.42381">
        <ele>2286</ele>
        <time>2021-03-29T07:32:51.945Z</time>
      </trkpt>
      <trkpt lat="45.07829" lon="6.42446">
        <ele>2278</ele>
        <time>2021-03-29T07:33:00.623Z</time>
      </trkpt>
      <trkpt lat="45.07816" lon="6.42458">
        <ele>2276</ele>
        <time>2021-03-29T07:33:02.672Z</time>
      </trkpt>
      <trkpt lat="45.07795" lon="6.4247">
        <ele>2276</ele>
        <time>2021-03-29T07:33:11.191Z</time>
      </trkpt>
      <trkpt lat="45.07791" lon="6.42477">
        <ele>2275</ele>
        <time>2021-03-29T07:33:12.031Z</time>
      </trkpt>
      <trkpt lat="45.07788" lon="6.42499">
        <ele>2273</ele>
        <time>2021-03-29T07:33:14.121Z</time>
      </trkpt>
      <trkpt lat="45.07797" lon="6.42521">
        <ele>2272</ele>
        <time>2021-03-29T07:33:16.490Z</time>
      </trkpt>
      <trkpt lat="45.07819" lon="6.42545">
        <ele>2269</ele>
        <time>2021-03-29T07:33:20.159Z</time>
      </trkpt>
      <trkpt lat="45.07939" lon="6.42653">
        <ele>2251</ele>
        <time>2021-03-29T07:33:38.940Z</time>
      </trkpt>
      <trkpt lat="45.07958" lon="6.42667">
        <ele>2247</ele>
        <time>2021-03-29T07:33:41.769Z</time>
      </trkpt>
      <trkpt lat="45.07978" lon="6.42668">
        <ele>2245</ele>
        <time>2021-03-29T07:33:44.412Z</time>
      </trkpt>
      <trkpt lat="45.08026" lon="6.42655">
        <ele>2239</ele>
        <time>2021-03-29T07:33:50.868Z</time>
      </trkpt>
      <trkpt lat="45.08036" lon="6.4265">
        <ele>2238</ele>
        <time>2021-03-29T07:33:52.269Z</time>
      </trkpt>
      <trkpt lat="45.08048" lon="6.42636">
        <ele>2239</ele>
        <time>2021-03-29T07:34:03.554Z</time>
      </trkpt>
      <trkpt lat="45.0807" lon="6.42603">
        <ele>2241</ele>
        <time>2021-03-29T07:34:26.498Z</time>
      </trkpt>
      <trkpt lat="45.08081" lon="6.42594">
        <ele>2242</ele>
        <time>2021-03-29T07:34:36.790Z</time>
      </trkpt>
      <trkpt lat="45.08091" lon="6.42592">
        <ele>2243</ele>
        <time>2021-03-29T07:34:46.576Z</time>
      </trkpt>
      <trkpt lat="45.08106" lon="6.42597">
        <ele>2242</ele>
        <time>2021-03-29T07:34:48.466Z</time>
      </trkpt>
      <trkpt lat="45.08241" lon="6.42682">
        <ele>2221</ele>
        <time>2021-03-29T07:35:07.981Z</time>
      </trkpt>
      <trkpt lat="45.08338" lon="6.42724">
        <ele>2210</ele>
        <time>2021-03-29T07:35:21.380Z</time>
      </trkpt>
      <trkpt lat="45.08346" lon="6.42731">
        <ele>2209</ele>
        <time>2021-03-29T07:35:22.622Z</time>
      </trkpt>
      <trkpt lat="45.08374" lon="6.42767">
        <ele>2203</ele>
        <time>2021-03-29T07:35:27.617Z</time>
      </trkpt>
      <trkpt lat="45.08417" lon="6.42792">
        <ele>2200</ele>
        <time>2021-03-29T07:35:33.334Z</time>
      </trkpt>
      <trkpt lat="45.08425" lon="6.42802">
        <ele>2198</ele>
        <time>2021-03-29T07:35:34.744Z</time>
      </trkpt>
      <trkpt lat="45.08467" lon="6.42884">
        <ele>2186</ele>
        <time>2021-03-29T07:35:44.192Z</time>
      </trkpt>
      <trkpt lat="45.0849" lon="6.42917">
        <ele>2182</ele>
        <time>2021-03-29T07:35:48.516Z</time>
      </trkpt>
      <trkpt lat="45.08506" lon="6.42971">
        <ele>2176</ele>
        <time>2021-03-29T07:35:53.978Z</time>
      </trkpt>
      <trkpt lat="45.08531" lon="6.42989">
        <ele>2173</ele>
        <time>2021-03-29T07:35:57.682Z</time>
      </trkpt>
      <trkpt lat="45.08548" lon="6.42994">
        <ele>2171</ele>
        <time>2021-03-29T07:35:59.976Z</time>
      </trkpt>
      <trkpt lat="45.08587" lon="6.42991">
        <ele>2169</ele>
        <time>2021-03-29T07:36:05.330Z</time>
      </trkpt>
      <trkpt lat="45.08602" lon="6.42986">
        <ele>2166</ele>
        <time>2021-03-29T07:36:07.365Z</time>
      </trkpt>
      <trkpt lat="45.08611" lon="6.4298">
        <ele>2166</ele>
        <time>2021-03-29T07:36:11.107Z</time>
      </trkpt>
      <trkpt lat="45.08635" lon="6.42954">
        <ele>2166</ele>
        <time>2021-03-29T07:36:22.473Z</time>
      </trkpt>
      <trkpt lat="45.0865" lon="6.42934">
        <ele>2168</ele>
        <time>2021-03-29T07:36:42.069Z</time>
      </trkpt>
      <trkpt lat="45.0866" lon="6.42932">
        <ele>2167</ele>
        <time>2021-03-29T07:36:43.403Z</time>
      </trkpt>
      <trkpt lat="45.08667" lon="6.42942">
        <ele>2163</ele>
        <time>2021-03-29T07:36:44.716Z</time>
      </trkpt>
      <trkpt lat="45.08668" lon="6.42953">
        <ele>2160</ele>
        <time>2021-03-29T07:36:45.750Z</time>
      </trkpt>
      <trkpt lat="45.08664" lon="6.42962">
        <ele>2159</ele>
        <time>2021-03-29T07:36:46.742Z</time>
      </trkpt>
      <trkpt lat="45.08623" lon="6.42999">
        <ele>2160</ele>
        <time>2021-03-29T07:37:09.275Z</time>
      </trkpt>
      <trkpt lat="45.08586" lon="6.43069">
        <ele>2154</ele>
        <time>2021-03-29T07:37:17.430Z</time>
      </trkpt>
      <trkpt lat="45.08576" lon="6.43102">
        <ele>2151</ele>
        <time>2021-03-29T07:37:20.779Z</time>
      </trkpt>
      <trkpt lat="45.0857" lon="6.43194">
        <ele>2144</ele>
        <time>2021-03-29T07:37:29.396Z</time>
      </trkpt>
      <trkpt lat="45.08577" lon="6.43229">
        <ele>2138</ele>
        <time>2021-03-29T07:37:32.789Z</time>
      </trkpt>
      <trkpt lat="45.08589" lon="6.43246">
        <ele>2134</ele>
        <time>2021-03-29T07:37:35.031Z</time>
      </trkpt>
      <trkpt lat="45.08603" lon="6.4325">
        <ele>2129</ele>
        <time>2021-03-29T07:37:36.917Z</time>
      </trkpt>
      <trkpt lat="45.08614" lon="6.43245">
        <ele>2127</ele>
        <time>2021-03-29T07:37:38.443Z</time>
      </trkpt>
      <trkpt lat="45.0867" lon="6.43199">
        <ele>2119</ele>
        <time>2021-03-29T07:37:46.994Z</time>
      </trkpt>
      <trkpt lat="45.0868" lon="6.43183">
        <ele>2118</ele>
        <time>2021-03-29T07:37:48.825Z</time>
      </trkpt>
      <trkpt lat="45.08686" lon="6.43163">
        <ele>2119</ele>
        <time>2021-03-29T07:38:00.031Z</time>
      </trkpt>
      <trkpt lat="45.0869" lon="6.43106">
        <ele>2122</ele>
        <time>2021-03-29T07:38:31.640Z</time>
      </trkpt>
      <trkpt lat="45.08687" lon="6.43062">
        <ele>2130</ele>
        <time>2021-03-29T07:39:16.924Z</time>
      </trkpt>
      <trkpt lat="45.08689" lon="6.43053">
        <ele>2132</ele>
        <time>2021-03-29T07:39:26.590Z</time>
      </trkpt>
      <trkpt lat="45.08699" lon="6.43041">
        <ele>2132</ele>
        <time>2021-03-29T07:39:31.520Z</time>
      </trkpt>
      <trkpt lat="45.08788" lon="6.43019">
        <ele>2117</ele>
        <time>2021-03-29T07:39:43.454Z</time>
      </trkpt>
      <trkpt lat="45.08814" lon="6.43024">
        <ele>2110</ele>
        <time>2021-03-29T07:39:46.920Z</time>
      </trkpt>
      <trkpt lat="45.08828" lon="6.43023">
        <ele>2107</ele>
        <time>2021-03-29T07:39:48.771Z</time>
      </trkpt>
      <trkpt lat="45.08851" lon="6.43016">
        <ele>2106</ele>
        <time>2021-03-29T07:39:52.256Z</time>
      </trkpt>
      <trkpt lat="45.08866" lon="6.43015">
        <ele>2105</ele>
        <time>2021-03-29T07:39:54.074Z</time>
      </trkpt>
      <trkpt lat="45.08877" lon="6.43015">
        <ele>2104</ele>
        <time>2021-03-29T07:39:55.527Z</time>
      </trkpt>
      <trkpt lat="45.08919" lon="6.43028">
        <ele>2095</ele>
        <time>2021-03-29T07:40:01.206Z</time>
      </trkpt>
      <trkpt lat="45.08939" lon="6.43038">
        <ele>2089</ele>
        <time>2021-03-29T07:40:04.008Z</time>
      </trkpt>
      <trkpt lat="45.08952" lon="6.43039">
        <ele>2087</ele>
        <time>2021-03-29T07:40:05.727Z</time>
      </trkpt>
      <trkpt lat="45.09004" lon="6.43027">
        <ele>2085</ele>
        <time>2021-03-29T07:40:13.876Z</time>
      </trkpt>
      <trkpt lat="45.09016" lon="6.43022">
        <ele>2085</ele>
        <time>2021-03-29T07:40:18.581Z</time>
      </trkpt>
      <trkpt lat="45.0905" lon="6.42995">
        <ele>2087</ele>
        <time>2021-03-29T07:40:44.441Z</time>
      </trkpt>
      <trkpt lat="45.09057" lon="6.42994">
        <ele>2086</ele>
        <time>2021-03-29T07:40:45.371Z</time>
      </trkpt>
      <trkpt lat="45.0906" lon="6.42996">
        <ele>2085</ele>
        <time>2021-03-29T07:40:45.809Z</time>
      </trkpt>
      <trkpt lat="45.09062" lon="6.43002">
        <ele>2082</ele>
        <time>2021-03-29T07:40:46.427Z</time>
      </trkpt>
      <trkpt lat="45.09059" lon="6.43016">
        <ele>2078</ele>
        <time>2021-03-29T07:40:47.792Z</time>
      </trkpt>
      <trkpt lat="45.09004" lon="6.43066">
        <ele>2069</ele>
        <time>2021-03-29T07:40:56.424Z</time>
      </trkpt>
      <trkpt lat="45.08962" lon="6.43084">
        <ele>2068</ele>
        <time>2021-03-29T07:41:04.380Z</time>
      </trkpt>
      <trkpt lat="45.08933" lon="6.43109">
        <ele>2064</ele>
        <time>2021-03-29T07:41:08.865Z</time>
      </trkpt>
      <trkpt lat="45.0892" lon="6.43116">
        <ele>2064</ele>
        <time>2021-03-29T07:41:14.096Z</time>
      </trkpt>
      <trkpt lat="45.08904" lon="6.43118">
        <ele>2066</ele>
        <time>2021-03-29T07:41:34.741Z</time>
      </trkpt>
      <trkpt lat="45.08876" lon="6.43115">
        <ele>2071</ele>
        <time>2021-03-29T07:42:15.483Z</time>
      </trkpt>
      <trkpt lat="45.08871" lon="6.43117">
        <ele>2072</ele>
        <time>2021-03-29T07:42:23.021Z</time>
      </trkpt>
      <trkpt lat="45.08867" lon="6.43125">
        <ele>2070</ele>
        <time>2021-03-29T07:42:23.936Z</time>
      </trkpt>
      <trkpt lat="45.08869" lon="6.43136">
        <ele>2066</ele>
        <time>2021-03-29T07:42:24.995Z</time>
      </trkpt>
      <trkpt lat="45.08877" lon="6.43139">
        <ele>2063</ele>
        <time>2021-03-29T07:42:26.088Z</time>
      </trkpt>
      <trkpt lat="45.08901" lon="6.43135">
        <ele>2060</ele>
        <time>2021-03-29T07:42:29.280Z</time>
      </trkpt>
      <trkpt lat="45.08923" lon="6.43137">
        <ele>2056</ele>
        <time>2021-03-29T07:42:32.192Z</time>
      </trkpt>
      <trkpt lat="45.08935" lon="6.43134">
        <ele>2055</ele>
        <time>2021-03-29T07:42:33.802Z</time>
      </trkpt>
      <trkpt lat="45.08964" lon="6.4312">
        <ele>2056</ele>
        <time>2021-03-29T07:42:50.242Z</time>
      </trkpt>
      <trkpt lat="45.08988" lon="6.43104">
        <ele>2058</ele>
        <time>2021-03-29T07:43:11.172Z</time>
      </trkpt>
      <trkpt lat="45.08995" lon="6.43102">
        <ele>2057</ele>
        <time>2021-03-29T07:43:12.115Z</time>
      </trkpt>
      <trkpt lat="45.09" lon="6.43107">
        <ele>2055</ele>
        <time>2021-03-29T07:43:12.924Z</time>
      </trkpt>
      <trkpt lat="45.08996" lon="6.43123">
        <ele>2050</ele>
        <time>2021-03-29T07:43:14.507Z</time>
      </trkpt>
      <trkpt lat="45.08962" lon="6.43141">
        <ele>2049</ele>
        <time>2021-03-29T07:43:20.750Z</time>
      </trkpt>
      <trkpt lat="45.08899" lon="6.43181">
        <ele>2045</ele>
        <time>2021-03-29T07:43:29.697Z</time>
      </trkpt>
      <trkpt lat="45.08863" lon="6.43218">
        <ele>2038</ele>
        <time>2021-03-29T07:43:35.572Z</time>
      </trkpt>
      <trkpt lat="45.08831" lon="6.43241">
        <ele>2037</ele>
        <time>2021-03-29T07:43:41.723Z</time>
      </trkpt>
      <trkpt lat="45.08821" lon="6.43261">
        <ele>2035</ele>
        <time>2021-03-29T07:43:44.009Z</time>
      </trkpt>
      <trkpt lat="45.0881" lon="6.43313">
        <ele>2023</ele>
        <time>2021-03-29T07:43:49.071Z</time>
      </trkpt>
      <trkpt lat="45.08796" lon="6.4334">
        <ele>2018</ele>
        <time>2021-03-29T07:43:52.195Z</time>
      </trkpt>
      <trkpt lat="45.08785" lon="6.43353">
        <ele>2017</ele>
        <time>2021-03-29T07:43:54.088Z</time>
      </trkpt>
      <trkpt lat="45.08754" lon="6.43377">
        <ele>2018</ele>
        <time>2021-03-29T07:44:12.029Z</time>
      </trkpt>
      <trkpt lat="45.08696" lon="6.4343">
        <ele>2019</ele>
        <time>2021-03-29T07:44:41.966Z</time>
      </trkpt>
      <trkpt lat="45.08618" lon="6.43548">
        <ele>2005</ele>
        <time>2021-03-29T07:44:57.041Z</time>
      </trkpt>
      <trkpt lat="45.08606" lon="6.43574">
        <ele>2000</ele>
        <time>2021-03-29T07:44:59.938Z</time>
      </trkpt>
      <trkpt lat="45.08595" lon="6.4361">
        <ele>1996</ele>
        <time>2021-03-29T07:45:03.597Z</time>
      </trkpt>
      <trkpt lat="45.08571" lon="6.43666">
        <ele>1993</ele>
        <time>2021-03-29T07:45:09.271Z</time>
      </trkpt>
      <trkpt lat="45.0857" lon="6.437">
        <ele>1993</ele>
        <time>2021-03-29T07:45:18.309Z</time>
      </trkpt>
      <trkpt lat="45.08584" lon="6.43724">
        <ele>1990</ele>
        <time>2021-03-29T07:45:21.213Z</time>
      </trkpt>
      <trkpt lat="45.08598" lon="6.43738">
        <ele>1990</ele>
        <time>2021-03-29T07:45:27.660Z</time>
      </trkpt>
      <trkpt lat="45.08612" lon="6.43738">
        <ele>1990</ele>
        <time>2021-03-29T07:45:32.926Z</time>
      </trkpt>
      <trkpt lat="45.0862" lon="6.43734">
        <ele>1990</ele>
        <time>2021-03-29T07:45:36.117Z</time>
      </trkpt>
      <trkpt lat="45.08654" lon="6.43702">
        <ele>1987</ele>
        <time>2021-03-29T07:45:41.510Z</time>
      </trkpt>
      <trkpt lat="45.08753" lon="6.43596">
        <ele>1976</ele>
        <time>2021-03-29T07:45:57.903Z</time>
      </trkpt>
      <trkpt lat="45.08775" lon="6.4358">
        <ele>1974</ele>
        <time>2021-03-29T07:46:01.170Z</time>
      </trkpt>
      <trkpt lat="45.08825" lon="6.43554">
        <ele>1971</ele>
        <time>2021-03-29T07:46:08.163Z</time>
      </trkpt>
      <trkpt lat="45.08921" lon="6.4353">
        <ele>1965</ele>
        <time>2021-03-29T07:46:20.436Z</time>
      </trkpt>
      <trkpt lat="45.08959" lon="6.43527">
        <ele>1964</ele>
        <time>2021-03-29T07:46:27.073Z</time>
      </trkpt>
      <trkpt lat="45.09004" lon="6.43535">
        <ele>1964</ele>
        <time>2021-03-29T07:46:44.134Z</time>
      </trkpt>
      <trkpt lat="45.09031" lon="6.43534">
        <ele>1965</ele>
        <time>2021-03-29T07:46:59.507Z</time>
      </trkpt>
      <trkpt lat="45.09071" lon="6.43521">
        <ele>1964</ele>
        <time>2021-03-29T07:47:06.817Z</time>
      </trkpt>
      <trkpt lat="45.09088" lon="6.43513">
        <ele>1963</ele>
        <time>2021-03-29T07:47:09.179Z</time>
      </trkpt>
      <trkpt lat="45.09108" lon="6.43499">
        <ele>1965</ele>
        <time>2021-03-29T07:47:29.003Z</time>
      </trkpt>
      <trkpt lat="45.09119" lon="6.43482">
        <ele>1966</ele>
        <time>2021-03-29T07:47:40.578Z</time>
      </trkpt>
      <trkpt lat="45.09127" lon="6.43458">
        <ele>1965</ele>
        <time>2021-03-29T07:47:43.099Z</time>
      </trkpt>
      <trkpt lat="45.09141" lon="6.43396">
        <ele>1960</ele>
        <time>2021-03-29T07:47:49.169Z</time>
      </trkpt>
      <trkpt lat="45.09146" lon="6.43384">
        <ele>1959</ele>
        <time>2021-03-29T07:47:50.469Z</time>
      </trkpt>
      <trkpt lat="45.09168" lon="6.43349">
        <ele>1955</ele>
        <time>2021-03-29T07:47:54.839Z</time>
      </trkpt>
      <trkpt lat="45.09182" lon="6.43313">
        <ele>1954</ele>
        <time>2021-03-29T07:47:59.484Z</time>
      </trkpt>
      <trkpt lat="45.09196" lon="6.4329">
        <ele>1954</ele>
        <time>2021-03-29T07:48:07.549Z</time>
      </trkpt>
      <trkpt lat="45.09214" lon="6.43271">
        <ele>1953</ele>
        <time>2021-03-29T07:48:10.812Z</time>
      </trkpt>
      <trkpt lat="45.09235" lon="6.43255">
        <ele>1951</ele>
        <time>2021-03-29T07:48:13.962Z</time>
      </trkpt>
      <trkpt lat="45.0929" lon="6.43226">
        <ele>1956</ele>
        <time>2021-03-29T07:49:04.134Z</time>
      </trkpt>
      <trkpt lat="45.09311" lon="6.4319">
        <ele>1950</ele>
        <time>2021-03-29T07:49:08.489Z</time>
      </trkpt>
      <trkpt lat="45.09328" lon="6.43173">
        <ele>1946</ele>
        <time>2021-03-29T07:49:11.238Z</time>
      </trkpt>
      <trkpt lat="45.09364" lon="6.43155">
        <ele>1946</ele>
        <time>2021-03-29T07:49:25.599Z</time>
      </trkpt>
      <trkpt lat="45.09394" lon="6.43129">
        <ele>1942</ele>
        <time>2021-03-29T07:49:30.244Z</time>
      </trkpt>
      <trkpt lat="45.09425" lon="6.43108">
        <ele>1937</ele>
        <time>2021-03-29T07:49:34.783Z</time>
      </trkpt>
      <trkpt lat="45.09471" lon="6.43064">
        <ele>1933</ele>
        <time>2021-03-29T07:49:42.115Z</time>
      </trkpt>
      <trkpt lat="45.09485" lon="6.43054">
        <ele>1933</ele>
        <time>2021-03-29T07:49:48.013Z</time>
      </trkpt>
      <trkpt lat="45.09502" lon="6.43049">
        <ele>1932</ele>
        <time>2021-03-29T07:49:50.269Z</time>
      </trkpt>
      <trkpt lat="45.09534" lon="6.43051">
        <ele>1931</ele>
        <time>2021-03-29T07:49:55.569Z</time>
      </trkpt>
      <trkpt lat="45.09619" lon="6.43049">
        <ele>1926</ele>
        <time>2021-03-29T07:50:06.508Z</time>
      </trkpt>
      <trkpt lat="45.09657" lon="6.43052">
        <ele>1925</ele>
        <time>2021-03-29T07:50:13.145Z</time>
      </trkpt>
      <trkpt lat="45.09673" lon="6.43048">
        <ele>1924</ele>
        <time>2021-03-29T07:50:15.190Z</time>
      </trkpt>
      <trkpt lat="45.09691" lon="6.43035">
        <ele>1920</ele>
        <time>2021-03-29T07:50:17.859Z</time>
      </trkpt>
      <trkpt lat="45.09719" lon="6.43008">
        <ele>1912</ele>
        <time>2021-03-29T07:50:22.333Z</time>
      </trkpt>
      <trkpt lat="45.09731" lon="6.43001">
        <ele>1910</ele>
        <time>2021-03-29T07:50:24.048Z</time>
      </trkpt>
      <trkpt lat="45.09798" lon="6.42979">
        <ele>1903</ele>
        <time>2021-03-29T07:50:33.132Z</time>
      </trkpt>
      <trkpt lat="45.09838" lon="6.4297">
        <ele>1901</ele>
        <time>2021-03-29T07:50:38.772Z</time>
      </trkpt>
      <trkpt lat="45.09869" lon="6.42955">
        <ele>1901</ele>
        <time>2021-03-29T07:50:51.095Z</time>
      </trkpt>
      <trkpt lat="45.09886" lon="6.42939">
        <ele>1899</ele>
        <time>2021-03-29T07:50:53.791Z</time>
      </trkpt>
      <trkpt lat="45.09903" lon="6.42908">
        <ele>1893</ele>
        <time>2021-03-29T07:50:57.451Z</time>
      </trkpt>
      <trkpt lat="45.09918" lon="6.42894">
        <ele>1891</ele>
        <time>2021-03-29T07:50:59.824Z</time>
      </trkpt>
      <trkpt lat="45.09926" lon="6.42891">
        <ele>1890</ele>
        <time>2021-03-29T07:51:00.917Z</time>
      </trkpt>
      <trkpt lat="45.09964" lon="6.42893">
        <ele>1889</ele>
        <time>2021-03-29T07:51:07.547Z</time>
      </trkpt>
      <trkpt lat="45.1" lon="6.42884">
        <ele>1885</ele>
        <time>2021-03-29T07:51:12.376Z</time>
      </trkpt>
      <trkpt lat="45.10014" lon="6.42883">
        <ele>1881</ele>
        <time>2021-03-29T07:51:14.228Z</time>
      </trkpt>
      <trkpt lat="45.10027" lon="6.42888">
        <ele>1880</ele>
        <time>2021-03-29T07:51:16.007Z</time>
      </trkpt>
      <trkpt lat="45.10047" lon="6.42908">
        <ele>1881</ele>
        <time>2021-03-29T07:51:30.722Z</time>
      </trkpt>
      <trkpt lat="45.10078" lon="6.42949">
        <ele>1883</ele>
        <time>2021-03-29T07:51:58.107Z</time>
      </trkpt>
      <trkpt lat="45.10088" lon="6.42959">
        <ele>1884</ele>
        <time>2021-03-29T07:52:08.268Z</time>
      </trkpt>
      <trkpt lat="45.10107" lon="6.4296">
        <ele>1883</ele>
        <time>2021-03-29T07:52:10.844Z</time>
      </trkpt>
      <trkpt lat="45.10134" lon="6.42952">
        <ele>1880</ele>
        <time>2021-03-29T07:52:14.487Z</time>
      </trkpt>
      <trkpt lat="45.10155" lon="6.4294">
        <ele>1874</ele>
        <time>2021-03-29T07:52:17.478Z</time>
      </trkpt>
      <trkpt lat="45.10186" lon="6.42908">
        <ele>1863</ele>
        <time>2021-03-29T07:52:22.545Z</time>
      </trkpt>
      <trkpt lat="45.10224" lon="6.42897">
        <ele>1863</ele>
        <time>2021-03-29T07:52:37.135Z</time>
      </trkpt>
      <trkpt lat="45.10241" lon="6.42887">
        <ele>1862</ele>
        <time>2021-03-29T07:52:39.592Z</time>
      </trkpt>
      <trkpt lat="45.10253" lon="6.4287">
        <ele>1859</ele>
        <time>2021-03-29T07:52:41.834Z</time>
      </trkpt>
      <trkpt lat="45.10287" lon="6.42809">
        <ele>1850</ele>
        <time>2021-03-29T07:52:49.080Z</time>
      </trkpt>
      <trkpt lat="45.10298" lon="6.42794">
        <ele>1848</ele>
        <time>2021-03-29T07:52:51.097Z</time>
      </trkpt>
      <trkpt lat="45.10311" lon="6.42785">
        <ele>1847</ele>
        <time>2021-03-29T07:52:53.008Z</time>
      </trkpt>
      <trkpt lat="45.10407" lon="6.42736">
        <ele>1845</ele>
        <time>2021-03-29T07:53:12.204Z</time>
      </trkpt>
      <trkpt lat="45.10416" lon="6.42725">
        <ele>1842</ele>
        <time>2021-03-29T07:53:13.774Z</time>
      </trkpt>
      <trkpt lat="45.10427" lon="6.42692">
        <ele>1835</ele>
        <time>2021-03-29T07:53:17.177Z</time>
      </trkpt>
      <trkpt lat="45.10437" lon="6.42676">
        <ele>1833</ele>
        <time>2021-03-29T07:53:19.169Z</time>
      </trkpt>
      <trkpt lat="45.10556" lon="6.42577">
        <ele>1823</ele>
        <time>2021-03-29T07:53:37.398Z</time>
      </trkpt>
      <trkpt lat="45.10574" lon="6.42567">
        <ele>1822</ele>
        <time>2021-03-29T07:53:40.036Z</time>
      </trkpt>
      <trkpt lat="45.1063" lon="6.42546">
        <ele>1815</ele>
        <time>2021-03-29T07:53:47.688Z</time>
      </trkpt>
      <trkpt lat="45.1067" lon="6.42537">
        <ele>1813</ele>
        <time>2021-03-29T07:53:53.328Z</time>
      </trkpt>
      <trkpt lat="45.10702" lon="6.42534">
        <ele>1807</ele>
        <time>2021-03-29T07:53:57.564Z</time>
      </trkpt>
      <trkpt lat="45.10865" lon="6.42579">
        <ele>1801</ele>
        <time>2021-03-29T07:54:23.711Z</time>
      </trkpt>
      <trkpt lat="45.10911" lon="6.42597">
        <ele>1801</ele>
        <time>2021-03-29T07:54:41.663Z</time>
      </trkpt>
      <trkpt lat="45.1093" lon="6.42599">
        <ele>1802</ele>
        <time>2021-03-29T07:54:54.402Z</time>
      </trkpt>
      <trkpt lat="45.10942" lon="6.4259">
        <ele>1800</ele>
        <time>2021-03-29T07:54:56.196Z</time>
      </trkpt>
      <trkpt lat="45.10956" lon="6.42575">
        <ele>1797</ele>
        <time>2021-03-29T07:54:58.514Z</time>
      </trkpt>
      <trkpt lat="45.10982" lon="6.42533">
        <ele>1788</ele>
        <time>2021-03-29T07:55:03.722Z</time>
      </trkpt>
      <trkpt lat="45.10999" lon="6.42516">
        <ele>1786</ele>
        <time>2021-03-29T07:55:06.471Z</time>
      </trkpt>
      <trkpt lat="45.11052" lon="6.42483">
        <ele>1781</ele>
        <time>2021-03-29T07:55:14.118Z</time>
      </trkpt>
      <trkpt lat="45.11116" lon="6.42439">
        <ele>1771</ele>
        <time>2021-03-29T07:55:23.514Z</time>
      </trkpt>
      <trkpt lat="45.1113" lon="6.42434">
        <ele>1770</ele>
        <time>2021-03-29T07:55:25.421Z</time>
      </trkpt>
      <trkpt lat="45.11163" lon="6.4243">
        <ele>1770</ele>
        <time>2021-03-29T07:55:37.880Z</time>
      </trkpt>
      <trkpt lat="45.11231" lon="6.42432">
        <ele>1770</ele>
        <time>2021-03-29T07:56:03.465Z</time>
      </trkpt>
      <trkpt lat="45.11245" lon="6.42429">
        <ele>1769</ele>
        <time>2021-03-29T07:56:05.335Z</time>
      </trkpt>
      <trkpt lat="45.11256" lon="6.42424">
        <ele>1767</ele>
        <time>2021-03-29T07:56:06.861Z</time>
      </trkpt>
      <trkpt lat="45.11283" lon="6.4239">
        <ele>1761</ele>
        <time>2021-03-29T07:56:11.633Z</time>
      </trkpt>
      <trkpt lat="45.11303" lon="6.42374">
        <ele>1758</ele>
        <time>2021-03-29T07:56:14.666Z</time>
      </trkpt>
      <trkpt lat="45.11331" lon="6.42366">
        <ele>1756</ele>
        <time>2021-03-29T07:56:18.439Z</time>
      </trkpt>
      <trkpt lat="45.11361" lon="6.42362">
        <ele>1755</ele>
        <time>2021-03-29T07:56:23.326Z</time>
      </trkpt>
      <trkpt lat="45.11445" lon="6.42359">
        <ele>1751</ele>
        <time>2021-03-29T07:56:35.211Z</time>
      </trkpt>
      <trkpt lat="45.11466" lon="6.42354">
        <ele>1749</ele>
        <time>2021-03-29T07:56:38.024Z</time>
      </trkpt>
      <trkpt lat="45.11477" lon="6.42347">
        <ele>1747</ele>
        <time>2021-03-29T07:56:39.617Z</time>
      </trkpt>
      <trkpt lat="45.11489" lon="6.42335">
        <ele>1745</ele>
        <time>2021-03-29T07:56:41.557Z</time>
      </trkpt>
      <trkpt lat="45.11501" lon="6.42317">
        <ele>1743</ele>
        <time>2021-03-29T07:56:43.865Z</time>
      </trkpt>
      <trkpt lat="45.11516" lon="6.4229">
        <ele>1741</ele>
        <time>2021-03-29T07:56:47.068Z</time>
      </trkpt>
      <trkpt lat="45.11551" lon="6.42197">
        <ele>1732</ele>
        <time>2021-03-29T07:56:56.893Z</time>
      </trkpt>
      <trkpt lat="45.11574" lon="6.42162">
        <ele>1728</ele>
        <time>2021-03-29T07:57:01.351Z</time>
      </trkpt>
      <trkpt lat="45.11599" lon="6.42136">
        <ele>1727</ele>
        <time>2021-03-29T07:57:06.428Z</time>
      </trkpt>
      <trkpt lat="45.11661" lon="6.42099">
        <ele>1725</ele>
        <time>2021-03-29T07:57:17.734Z</time>
      </trkpt>
      <trkpt lat="45.11722" lon="6.42028">
        <ele>1723</ele>
        <time>2021-03-29T07:57:31.643Z</time>
      </trkpt>
      <trkpt lat="45.11785" lon="6.41966">
        <ele>1716</ele>
        <time>2021-03-29T07:57:41.775Z</time>
      </trkpt>
      <trkpt lat="45.11874" lon="6.41823">
        <ele>1702</ele>
        <time>2021-03-29T07:57:59.548Z</time>
      </trkpt>
      <trkpt lat="45.11892" lon="6.41802">
        <ele>1701</ele>
        <time>2021-03-29T07:58:02.989Z</time>
      </trkpt>
      <trkpt lat="45.11905" lon="6.41797">
        <ele>1699</ele>
        <time>2021-03-29T07:58:04.769Z</time>
      </trkpt>
      <trkpt lat="45.12192" lon="6.41781">
        <ele>1671</ele>
        <time>2021-03-29T07:58:42.708Z</time>
      </trkpt>
      <trkpt lat="45.12228" lon="6.41785">
        <ele>1668</ele>
        <time>2021-03-29T07:58:47.478Z</time>
      </trkpt>
      <trkpt lat="45.12355" lon="6.41862">
        <ele>1662</ele>
        <time>2021-03-29T07:59:07.766Z</time>
      </trkpt>
      <trkpt lat="45.1237" lon="6.41872">
        <ele>1661</ele>
        <time>2021-03-29T07:59:09.873Z</time>
      </trkpt>
      <trkpt lat="45.12393" lon="6.41894">
        <ele>1661</ele>
        <time>2021-03-29T07:59:20.311Z</time>
      </trkpt>
      <trkpt lat="45.12398" lon="6.41894">
        <ele>1660</ele>
        <time>2021-03-29T07:59:20.971Z</time>
      </trkpt>
      <trkpt lat="45.12405" lon="6.41884">
        <ele>1658</ele>
        <time>2021-03-29T07:59:22.284Z</time>
      </trkpt>
      <trkpt lat="45.12404" lon="6.41872">
        <ele>1657</ele>
        <time>2021-03-29T07:59:23.410Z</time>
      </trkpt>
      <trkpt lat="45.12391" lon="6.41846">
        <ele>1656</ele>
        <time>2021-03-29T07:59:26.681Z</time>
      </trkpt>
      <trkpt lat="45.12371" lon="6.41772">
        <ele>1651</ele>
        <time>2021-03-29T07:59:34.067Z</time>
      </trkpt>
      <trkpt lat="45.12372" lon="6.41765">
        <ele>1650</ele>
        <time>2021-03-29T07:59:34.732Z</time>
      </trkpt>
      <trkpt lat="45.1238" lon="6.41758">
        <ele>1649</ele>
        <time>2021-03-29T07:59:35.974Z</time>
      </trkpt>
      <trkpt lat="45.12389" lon="6.41759">
        <ele>1648</ele>
        <time>2021-03-29T07:59:37.167Z</time>
      </trkpt>
      <trkpt lat="45.12412" lon="6.41779">
        <ele>1647</ele>
        <time>2021-03-29T07:59:41.377Z</time>
      </trkpt>
      <trkpt lat="45.12444" lon="6.418">
        <ele>1647</ele>
        <time>2021-03-29T07:59:54.642Z</time>
      </trkpt>
      <trkpt lat="45.12494" lon="6.4186">
        <ele>1645</ele>
        <time>2021-03-29T08:00:05.561Z</time>
      </trkpt>
      <trkpt lat="45.12502" lon="6.41864">
        <ele>1646</ele>
        <time>2021-03-29T08:00:15.610Z</time>
      </trkpt>
      <trkpt lat="45.12529" lon="6.41866">
        <ele>1646</ele>
        <time>2021-03-29T08:00:25.781Z</time>
      </trkpt>
      <trkpt lat="45.12677" lon="6.4186">
        <ele>1632</ele>
        <time>2021-03-29T08:00:45.338Z</time>
      </trkpt>
      <trkpt lat="45.12867" lon="6.41834">
        <ele>1610</ele>
        <time>2021-03-29T08:01:10.552Z</time>
      </trkpt>
      <trkpt lat="45.13021" lon="6.4183">
        <ele>1604</ele>
        <time>2021-03-29T08:01:34.147Z</time>
      </trkpt>
      <trkpt lat="45.13067" lon="6.41835">
        <ele>1604</ele>
        <time>2021-03-29T08:01:51.501Z</time>
      </trkpt>
      <trkpt lat="45.13223" lon="6.41867">
        <ele>1599</ele>
        <time>2021-03-29T08:02:17.448Z</time>
      </trkpt>
      <trkpt lat="45.13599" lon="6.41977">
        <ele>1598</ele>
        <time>2021-03-29T08:04:36.326Z</time>
      </trkpt>
      <trkpt lat="45.13672" lon="6.41983">
        <ele>1597</ele>
        <time>2021-03-29T08:04:51.114Z</time>
      </trkpt>
      <trkpt lat="45.13687" lon="6.41982">
        <ele>1596</ele>
        <time>2021-03-29T08:04:52.932Z</time>
      </trkpt>
      <trkpt lat="45.13697" lon="6.41975">
        <ele>1594</ele>
        <time>2021-03-29T08:04:54.405Z</time>
      </trkpt>
      <trkpt lat="45.13717" lon="6.41949">
        <ele>1592</ele>
        <time>2021-03-29T08:04:57.990Z</time>
      </trkpt>
      <trkpt lat="45.13725" lon="6.41944">
        <ele>1592</ele>
        <time>2021-03-29T08:05:01.279Z</time>
      </trkpt>
      <trkpt lat="45.13744" lon="6.41946">
        <ele>1592</ele>
        <time>2021-03-29T08:05:08.446Z</time>
      </trkpt>
      <trkpt lat="45.13768" lon="6.41957">
        <ele>1590</ele>
        <time>2021-03-29T08:05:11.777Z</time>
      </trkpt>
      <trkpt lat="45.1385" lon="6.41985">
        <ele>1585</ele>
        <time>2021-03-29T08:05:22.589Z</time>
      </trkpt>
      <trkpt lat="45.13873" lon="6.41989">
        <ele>1584</ele>
        <time>2021-03-29T08:05:26.001Z</time>
      </trkpt>
      <trkpt lat="45.13967" lon="6.41986">
        <ele>1582</ele>
        <time>2021-03-29T08:05:43.348Z</time>
      </trkpt>
      <trkpt lat="45.142" lon="6.41973">
        <ele>1571</ele>
        <time>2021-03-29T08:06:16.456Z</time>
      </trkpt>
      <trkpt lat="45.14452" lon="6.4198">
        <ele>1564</ele>
        <time>2021-03-29T08:06:59.707Z</time>
      </trkpt>
      <trkpt lat="45.14529" lon="6.41991">
        <ele>1563</ele>
        <time>2021-03-29T08:07:15.509Z</time>
      </trkpt>
      <trkpt lat="45.14606" lon="6.42007">
        <ele>1562</ele>
        <time>2021-03-29T08:07:31.414Z</time>
      </trkpt>
      <trkpt lat="45.14637" lon="6.42018">
        <ele>1564</ele>
        <time>2021-03-29T08:07:54.322Z</time>
      </trkpt>
      <trkpt lat="45.1468" lon="6.42027">
        <ele>1565</ele>
        <time>2021-03-29T08:08:15.039Z</time>
      </trkpt>
      <trkpt lat="45.14759" lon="6.42025">
        <ele>1563</ele>
        <time>2021-03-29T08:08:28.965Z</time>
      </trkpt>
      <trkpt lat="45.14803" lon="6.42038">
        <ele>1561</ele>
        <time>2021-03-29T08:08:35.502Z</time>
      </trkpt>
      <trkpt lat="45.14834" lon="6.42054">
        <ele>1560</ele>
        <time>2021-03-29T08:08:41.013Z</time>
      </trkpt>
      <trkpt lat="45.14858" lon="6.42055">
        <ele>1559</ele>
        <time>2021-03-29T08:08:44.598Z</time>
      </trkpt>
      <trkpt lat="45.14888" lon="6.4205">
        <ele>1558</ele>
        <time>2021-03-29T08:08:49.500Z</time>
      </trkpt>
      <trkpt lat="45.14913" lon="6.42049">
        <ele>1558</ele>
        <time>2021-03-29T08:08:58.908Z</time>
      </trkpt>
      <trkpt lat="45.14939" lon="6.42053">
        <ele>1556</ele>
        <time>2021-03-29T08:09:02.363Z</time>
      </trkpt>
      <trkpt lat="45.14964" lon="6.42051">
        <ele>1555</ele>
        <time>2021-03-29T08:09:06.163Z</time>
      </trkpt>
      <trkpt lat="45.15003" lon="6.42041">
        <ele>1552</ele>
        <time>2021-03-29T08:09:11.398Z</time>
      </trkpt>
      <trkpt lat="45.15014" lon="6.42041">
        <ele>1551</ele>
        <time>2021-03-29T08:09:12.851Z</time>
      </trkpt>
      <trkpt lat="45.15064" lon="6.4205">
        <ele>1547</ele>
        <time>2021-03-29T08:09:19.508Z</time>
      </trkpt>
      <trkpt lat="45.15084" lon="6.42045">
        <ele>1546</ele>
        <time>2021-03-29T08:09:22.340Z</time>
      </trkpt>
      <trkpt lat="45.15122" lon="6.42022">
        <ele>1544</ele>
        <time>2021-03-29T08:09:28.143Z</time>
      </trkpt>
      <trkpt lat="45.1514" lon="6.42019">
        <ele>1543</ele>
        <time>2021-03-29T08:09:30.545Z</time>
      </trkpt>
      <trkpt lat="45.15157" lon="6.42021">
        <ele>1542</ele>
        <time>2021-03-29T08:09:32.744Z</time>
      </trkpt>
      <trkpt lat="45.15172" lon="6.42026">
        <ele>1540</ele>
        <time>2021-03-29T08:09:34.779Z</time>
      </trkpt>
      <trkpt lat="45.15246" lon="6.42069">
        <ele>1535</ele>
        <time>2021-03-29T08:09:44.770Z</time>
      </trkpt>
      <trkpt lat="45.1527" lon="6.42077">
        <ele>1532</ele>
        <time>2021-03-29T08:09:48.027Z</time>
      </trkpt>
      <trkpt lat="45.15313" lon="6.42066">
        <ele>1528</ele>
        <time>2021-03-29T08:09:53.798Z</time>
      </trkpt>
      <trkpt lat="45.15332" lon="6.42066">
        <ele>1526</ele>
        <time>2021-03-29T08:09:56.308Z</time>
      </trkpt>
      <trkpt lat="45.15414" lon="6.42078">
        <ele>1516</ele>
        <time>2021-03-29T08:10:07.197Z</time>
      </trkpt>
      <trkpt lat="45.15444" lon="6.4208">
        <ele>1513</ele>
        <time>2021-03-29T08:10:11.164Z</time>
      </trkpt>
      <trkpt lat="45.1553" lon="6.42068">
        <ele>1506</ele>
        <time>2021-03-29T08:10:22.579Z</time>
      </trkpt>
      <trkpt lat="45.15581" lon="6.42065">
        <ele>1502</ele>
        <time>2021-03-29T08:10:29.322Z</time>
      </trkpt>
      <trkpt lat="45.15853" lon="6.42126">
        <ele>1476</ele>
        <time>2021-03-29T08:11:05.697Z</time>
      </trkpt>
      <trkpt lat="45.15865" lon="6.42134">
        <ele>1474</ele>
        <time>2021-03-29T08:11:07.448Z</time>
      </trkpt>
      <trkpt lat="45.15902" lon="6.42142">
        <ele>1470</ele>
        <time>2021-03-29T08:11:12.392Z</time>
      </trkpt>
      <trkpt lat="45.15928" lon="6.42143">
        <ele>1468</ele>
        <time>2021-03-29T08:11:15.828Z</time>
      </trkpt>
      <trkpt lat="45.1597" lon="6.42152">
        <ele>1464</ele>
        <time>2021-03-29T08:11:21.439Z</time>
      </trkpt>
      <trkpt lat="45.15999" lon="6.4215">
        <ele>1463</ele>
        <time>2021-03-29T08:11:26.088Z</time>
      </trkpt>
      <trkpt lat="45.16004" lon="6.42153">
        <ele>1463</ele>
        <time>2021-03-29T08:11:28.130Z</time>
      </trkpt>
      <trkpt lat="45.16005" lon="6.4216">
        <ele>1462</ele>
        <time>2021-03-29T08:11:28.795Z</time>
      </trkpt>
      <trkpt lat="45.16008" lon="6.42163">
        <ele>1462</ele>
        <time>2021-03-29T08:11:30.176Z</time>
      </trkpt>
      <trkpt lat="45.16015" lon="6.42164">
        <ele>1462</ele>
        <time>2021-03-29T08:11:32.823Z</time>
      </trkpt>
      <trkpt lat="45.16018" lon="6.42162">
        <ele>1462</ele>
        <time>2021-03-29T08:11:34.070Z</time>
      </trkpt>
      <trkpt lat="45.16042" lon="6.42172">
        <ele>1463</ele>
        <time>2021-03-29T08:11:48.915Z</time>
      </trkpt>
      <trkpt lat="45.16194" lon="6.42196">
        <ele>1462</ele>
        <time>2021-03-29T08:12:41.208Z</time>
      </trkpt>
      <trkpt lat="45.16243" lon="6.42216">
        <ele>1457</ele>
        <time>2021-03-29T08:12:47.943Z</time>
      </trkpt>
      <trkpt lat="45.16253" lon="6.42224">
        <ele>1454</ele>
        <time>2021-03-29T08:12:49.460Z</time>
      </trkpt>
      <trkpt lat="45.16269" lon="6.42231">
        <ele>1451</ele>
        <time>2021-03-29T08:12:51.671Z</time>
      </trkpt>
      <trkpt lat="45.16317" lon="6.4225">
        <ele>1443</ele>
        <time>2021-03-29T08:12:58.254Z</time>
      </trkpt>
      <trkpt lat="45.16327" lon="6.4225">
        <ele>1442</ele>
        <time>2021-03-29T08:12:59.575Z</time>
      </trkpt>
      <trkpt lat="45.16363" lon="6.42263">
        <ele>1443</ele>
        <time>2021-03-29T08:13:18.122Z</time>
      </trkpt>
      <trkpt lat="45.16381" lon="6.42273">
        <ele>1443</ele>
        <time>2021-03-29T08:13:25.394Z</time>
      </trkpt>
      <trkpt lat="45.16389" lon="6.42282">
        <ele>1442</ele>
        <time>2021-03-29T08:13:26.743Z</time>
      </trkpt>
      <trkpt lat="45.16397" lon="6.42305">
        <ele>1441</ele>
        <time>2021-03-29T08:13:29.138Z</time>
      </trkpt>
      <trkpt lat="45.16398" lon="6.4232">
        <ele>1440</ele>
        <time>2021-03-29T08:13:30.541Z</time>
      </trkpt>
      <trkpt lat="45.16396" lon="6.42337">
        <ele>1439</ele>
        <time>2021-03-29T08:13:32.146Z</time>
      </trkpt>
      <trkpt lat="45.16379" lon="6.42398">
        <ele>1442</ele>
        <time>2021-03-29T08:14:05.849Z</time>
      </trkpt>
      <trkpt lat="45.16383" lon="6.42413">
        <ele>1441</ele>
        <time>2021-03-29T08:14:07.342Z</time>
      </trkpt>
      <trkpt lat="45.1641" lon="6.42451">
        <ele>1432</ele>
        <time>2021-03-29T08:14:12.367Z</time>
      </trkpt>
      <trkpt lat="45.16406" lon="6.42461">
        <ele>1433</ele>
        <time>2021-03-29T08:14:22.634Z</time>
      </trkpt>
      <trkpt lat="45.1641" lon="6.42471">
        <ele>1431</ele>
        <time>2021-03-29T08:14:23.705Z</time>
      </trkpt>
      <trkpt lat="45.16403" lon="6.42497">
        <ele>1432</ele>
        <time>2021-03-29T08:14:36.693Z</time>
      </trkpt>
      <trkpt lat="45.16414" lon="6.42809">
        <ele>1412</ele>
        <time>2021-03-29T08:15:05.788Z</time>
      </trkpt>
      <trkpt lat="45.16417" lon="6.43003">
        <ele>1413</ele>
        <time>2021-03-29T08:16:00.947Z</time>
      </trkpt>
      <trkpt lat="45.16548" lon="6.42998">
        <ele>1406</ele>
        <time>2021-03-29T08:16:18.576Z</time>
      </trkpt>
      <trkpt lat="45.16542" lon="6.43058">
        <ele>1406</ele>
        <time>2021-03-29T08:16:34.649Z</time>
      </trkpt>
      <trkpt lat="45.16517" lon="6.43174">
        <ele>1409</ele>
        <time>2021-03-29T08:17:22.050Z</time>
      </trkpt>
      <trkpt lat="45.16512" lon="6.43173">
        <ele>1409</ele>
        <time>2021-03-29T08:17:23.950Z</time>
      </trkpt>
      <trkpt lat="45.16508" lon="6.43176">
        <ele>1409</ele>
        <time>2021-03-29T08:17:25.652Z</time>
      </trkpt>
      <trkpt lat="45.16505" lon="6.43185">
        <ele>1411</ele>
        <time>2021-03-29T08:17:35.836Z</time>
      </trkpt>
      <trkpt lat="45.16508" lon="6.43193">
        <ele>1412</ele>
        <time>2021-03-29T08:17:45.106Z</time>
      </trkpt>
      <trkpt lat="45.16513" lon="6.43196">
        <ele>1412</ele>
        <time>2021-03-29T08:17:47.148Z</time>
      </trkpt>
      <trkpt lat="45.1652" lon="6.43192">
        <ele>1411</ele>
        <time>2021-03-29T08:17:48.145Z</time>
      </trkpt>
      <trkpt lat="45.16554" lon="6.43221">
        <ele>1414</ele>
        <time>2021-03-29T08:18:19.504Z</time>
      </trkpt>
      <trkpt lat="45.16618" lon="6.43261">
        <ele>1416</ele>
        <time>2021-03-29T08:18:55.150Z</time>
      </trkpt>
      <trkpt lat="45.1665" lon="6.43284">
        <ele>1419</ele>
        <time>2021-03-29T08:19:25.414Z</time>
      </trkpt>
      <trkpt lat="45.16668" lon="6.43307">
        <ele>1423</ele>
        <time>2021-03-29T08:20:00.566Z</time>
      </trkpt>
      <trkpt lat="45.16689" lon="6.4335">
        <ele>1430</ele>
        <time>2021-03-29T08:20:54.076Z</time>
      </trkpt>
      <trkpt lat="45.16703" lon="6.43369">
        <ele>1431</ele>
        <time>2021-03-29T08:21:06.957Z</time>
      </trkpt>
      <trkpt lat="45.16723" lon="6.43391">
        <ele>1431</ele>
        <time>2021-03-29T08:21:16.478Z</time>
      </trkpt>
      <trkpt lat="45.16768" lon="6.43424">
        <ele>1432</ele>
        <time>2021-03-29T08:21:39.740Z</time>
      </trkpt>
      <trkpt lat="45.16786" lon="6.43434">
        <ele>1435</ele>
        <time>2021-03-29T08:22:07.789Z</time>
      </trkpt>
      <trkpt lat="45.16803" lon="6.43437">
        <ele>1435</ele>
        <time>2021-03-29T08:22:14.233Z</time>
      </trkpt>
      <trkpt lat="45.16852" lon="6.43438">
        <ele>1434</ele>
        <time>2021-03-29T08:22:23.365Z</time>
      </trkpt>
      <trkpt lat="45.1688" lon="6.43447">
        <ele>1437</ele>
        <time>2021-03-29T08:22:52.736Z</time>
      </trkpt>
      <trkpt lat="45.16924" lon="6.43468">
        <ele>1444</ele>
        <time>2021-03-29T08:24:00.095Z</time>
      </trkpt>
      <trkpt lat="45.16947" lon="6.43473">
        <ele>1444</ele>
        <time>2021-03-29T08:24:08.848Z</time>
      </trkpt>
      <trkpt lat="45.16958" lon="6.43471">
        <ele>1444</ele>
        <time>2021-03-29T08:24:13.020Z</time>
      </trkpt>
      <trkpt lat="45.16971" lon="6.43464">
        <ele>1442</ele>
        <time>2021-03-29T08:24:14.856Z</time>
      </trkpt>
      <trkpt lat="45.17032" lon="6.43411">
        <ele>1438</ele>
        <time>2021-03-29T08:24:24.280Z</time>
      </trkpt>
      <trkpt lat="45.17041" lon="6.43408">
        <ele>1439</ele>
        <time>2021-03-29T08:24:34.106Z</time>
      </trkpt>
      <trkpt lat="45.17093" lon="6.43409">
        <ele>1446</ele>
        <time>2021-03-29T08:25:49.562Z</time>
      </trkpt>
      <trkpt lat="45.17114" lon="6.43406">
        <ele>1448</ele>
        <time>2021-03-29T08:26:09.205Z</time>
      </trkpt>
      <trkpt lat="45.17158" lon="6.43387">
        <ele>1450</ele>
        <time>2021-03-29T08:26:37.960Z</time>
      </trkpt>
      <trkpt lat="45.17238" lon="6.43376">
        <ele>1457</ele>
        <time>2021-03-29T08:27:47.800Z</time>
      </trkpt>
      <trkpt lat="45.17255" lon="6.43362">
        <ele>1457</ele>
        <time>2021-03-29T08:27:55.194Z</time>
      </trkpt>
      <trkpt lat="45.17282" lon="6.43322">
        <ele>1455</ele>
        <time>2021-03-29T08:28:00.545Z</time>
      </trkpt>
      <trkpt lat="45.17298" lon="6.43303">
        <ele>1454</ele>
        <time>2021-03-29T08:28:03.488Z</time>
      </trkpt>
      <trkpt lat="45.17326" lon="6.43284">
        <ele>1456</ele>
        <time>2021-03-29T08:28:26.036Z</time>
      </trkpt>
      <trkpt lat="45.17341" lon="6.43278">
        <ele>1457</ele>
        <time>2021-03-29T08:28:37.336Z</time>
      </trkpt>
      <trkpt lat="45.1736" lon="6.43275">
        <ele>1457</ele>
        <time>2021-03-29T08:28:44.528Z</time>
      </trkpt>
      <trkpt lat="45.1738" lon="6.43275">
        <ele>1458</ele>
        <time>2021-03-29T08:28:57.683Z</time>
      </trkpt>
      <trkpt lat="45.17517" lon="6.43308">
        <ele>1465</ele>
        <time>2021-03-29T08:30:29.309Z</time>
      </trkpt>
      <trkpt lat="45.17535" lon="6.43317">
        <ele>1466</ele>
        <time>2021-03-29T08:30:42.063Z</time>
      </trkpt>
      <trkpt lat="45.17551" lon="6.4333">
        <ele>1469</ele>
        <time>2021-03-29T08:31:08.816Z</time>
      </trkpt>
      <trkpt lat="45.17592" lon="6.43377">
        <ele>1477</ele>
        <time>2021-03-29T08:32:25.300Z</time>
      </trkpt>
      <trkpt lat="45.17615" lon="6.43392">
        <ele>1479</ele>
        <time>2021-03-29T08:32:45.858Z</time>
      </trkpt>
      <trkpt lat="45.17638" lon="6.43401">
        <ele>1479</ele>
        <time>2021-03-29T08:32:54.833Z</time>
      </trkpt>
      <trkpt lat="45.17655" lon="6.43411">
        <ele>1480</ele>
        <time>2021-03-29T08:33:07.292Z</time>
      </trkpt>
      <trkpt lat="45.17663" lon="6.43421">
        <ele>1481</ele>
        <time>2021-03-29T08:33:17.127Z</time>
      </trkpt>
      <trkpt lat="45.17669" lon="6.43435">
        <ele>1481</ele>
        <time>2021-03-29T08:33:21.472Z</time>
      </trkpt>
      <trkpt lat="45.17686" lon="6.43611">
        <ele>1492</ele>
        <time>2021-03-29T08:35:10.995Z</time>
      </trkpt>
      <trkpt lat="45.17704" lon="6.43711">
        <ele>1505</ele>
        <time>2021-03-29T08:36:56.556Z</time>
      </trkpt>
      <trkpt lat="45.17715" lon="6.43738">
        <ele>1508</ele>
        <time>2021-03-29T08:37:28.452Z</time>
      </trkpt>
      <trkpt lat="45.17743" lon="6.43785">
        <ele>1511</ele>
        <time>2021-03-29T08:38:01.080Z</time>
      </trkpt>
      <trkpt lat="45.17813" lon="6.4388">
        <ele>1513</ele>
        <time>2021-03-29T08:38:46.019Z</time>
      </trkpt>
      <trkpt lat="45.17835" lon="6.43903">
        <ele>1513</ele>
        <time>2021-03-29T08:38:56.299Z</time>
      </trkpt>
      <trkpt lat="45.17851" lon="6.43915">
        <ele>1516</ele>
        <time>2021-03-29T08:39:22.559Z</time>
      </trkpt>
      <trkpt lat="45.17901" lon="6.43927">
        <ele>1520</ele>
        <time>2021-03-29T08:40:03.698Z</time>
      </trkpt>
      <trkpt lat="45.17937" lon="6.43931">
        <ele>1520</ele>
        <time>2021-03-29T08:40:17.282Z</time>
      </trkpt>
      <trkpt lat="45.18006" lon="6.43933">
        <ele>1520</ele>
        <time>2021-03-29T08:40:43.243Z</time>
      </trkpt>
      <trkpt lat="45.18016" lon="6.43938">
        <ele>1522</ele>
        <time>2021-03-29T08:40:58.627Z</time>
      </trkpt>
      <trkpt lat="45.18032" lon="6.43953">
        <ele>1527</ele>
        <time>2021-03-29T08:41:26.453Z</time>
      </trkpt>
      <trkpt lat="45.18045" lon="6.43961">
        <ele>1530</ele>
        <time>2021-03-29T08:41:47.013Z</time>
      </trkpt>
      <trkpt lat="45.18061" lon="6.43964">
        <ele>1531</ele>
        <time>2021-03-29T08:41:58.532Z</time>
      </trkpt>
      <trkpt lat="45.181" lon="6.43951">
        <ele>1529</ele>
        <time>2021-03-29T08:42:04.084Z</time>
      </trkpt>
      <trkpt lat="45.18122" lon="6.43939">
        <ele>1528</ele>
        <time>2021-03-29T08:42:07.578Z</time>
      </trkpt>
      <trkpt lat="45.18208" lon="6.43904">
        <ele>1528</ele>
        <time>2021-03-29T08:42:41.234Z</time>
      </trkpt>
      <trkpt lat="45.18246" lon="6.43891">
        <ele>1531</ele>
        <time>2021-03-29T08:43:12.408Z</time>
      </trkpt>
      <trkpt lat="45.18261" lon="6.43889">
        <ele>1531</ele>
        <time>2021-03-29T08:43:18.076Z</time>
      </trkpt>
      <trkpt lat="45.18312" lon="6.43895">
        <ele>1535</ele>
        <time>2021-03-29T08:43:59.353Z</time>
      </trkpt>
      <trkpt lat="45.18332" lon="6.43889">
        <ele>1535</ele>
        <time>2021-03-29T08:44:07.043Z</time>
      </trkpt>
      <trkpt lat="45.18381" lon="6.4385">
        <ele>1532</ele>
        <time>2021-03-29T08:44:14.602Z</time>
      </trkpt>
      <trkpt lat="45.18402" lon="6.43841">
        <ele>1533</ele>
        <time>2021-03-29T08:44:28.625Z</time>
      </trkpt>
      <trkpt lat="45.18435" lon="6.43835">
        <ele>1534</ele>
        <time>2021-03-29T08:44:45.895Z</time>
      </trkpt>
      <trkpt lat="45.18464" lon="6.43833">
        <ele>1533</ele>
        <time>2021-03-29T08:44:50.544Z</time>
      </trkpt>
      <trkpt lat="45.18521" lon="6.4385">
        <ele>1535</ele>
        <time>2021-03-29T08:45:22.507Z</time>
      </trkpt>
      <trkpt lat="45.18538" lon="6.43862">
        <ele>1537</ele>
        <time>2021-03-29T08:45:42.100Z</time>
      </trkpt>
      <trkpt lat="45.18567" lon="6.43889">
        <ele>1541</ele>
        <time>2021-03-29T08:46:21.985Z</time>
      </trkpt>
      <trkpt lat="45.18582" lon="6.43899">
        <ele>1542</ele>
        <time>2021-03-29T08:46:33.678Z</time>
      </trkpt>
      <trkpt lat="45.18648" lon="6.43933">
        <ele>1543</ele>
        <time>2021-03-29T08:47:04.053Z</time>
      </trkpt>
      <trkpt lat="45.18664" lon="6.43937">
        <ele>1543</ele>
        <time>2021-03-29T08:47:10.165Z</time>
      </trkpt>
      <trkpt lat="45.18712" lon="6.4394">
        <ele>1542</ele>
        <time>2021-03-29T08:47:19.076Z</time>
      </trkpt>
      <trkpt lat="45.18739" lon="6.43947">
        <ele>1544</ele>
        <time>2021-03-29T08:47:40.311Z</time>
      </trkpt>
      <trkpt lat="45.1886" lon="6.43988">
        <ele>1552</ele>
        <time>2021-03-29T08:49:10.601Z</time>
      </trkpt>
      <trkpt lat="45.18888" lon="6.44002">
        <ele>1553</ele>
        <time>2021-03-29T08:49:26.752Z</time>
      </trkpt>
      <trkpt lat="45.18908" lon="6.44021">
        <ele>1558</ele>
        <time>2021-03-29T08:50:01.674Z</time>
      </trkpt>
      <trkpt lat="45.18949" lon="6.44048">
        <ele>1565</ele>
        <time>2021-03-29T08:51:07.258Z</time>
      </trkpt>
      <trkpt lat="45.18971" lon="6.44054">
        <ele>1564</ele>
        <time>2021-03-29T08:51:10.512Z</time>
      </trkpt>
      <trkpt lat="45.18997" lon="6.44056">
        <ele>1561</ele>
        <time>2021-03-29T08:51:13.951Z</time>
      </trkpt>
      <trkpt lat="45.19022" lon="6.44048">
        <ele>1555</ele>
        <time>2021-03-29T08:51:17.337Z</time>
      </trkpt>
      <trkpt lat="45.19059" lon="6.44043">
        <ele>1551</ele>
        <time>2021-03-29T08:51:22.246Z</time>
      </trkpt>
      <trkpt lat="45.19097" lon="6.44043">
        <ele>1549</ele>
        <time>2021-03-29T08:51:27.392Z</time>
      </trkpt>
      <trkpt lat="45.19152" lon="6.44059">
        <ele>1555</ele>
        <time>2021-03-29T08:52:26.253Z</time>
      </trkpt>
      <trkpt lat="45.19213" lon="6.44066">
        <ele>1548</ele>
        <time>2021-03-29T08:52:34.337Z</time>
      </trkpt>
      <trkpt lat="45.19237" lon="6.44075">
        <ele>1548</ele>
        <time>2021-03-29T08:52:43.675Z</time>
      </trkpt>
      <trkpt lat="45.19256" lon="6.44086">
        <ele>1549</ele>
        <time>2021-03-29T08:52:57.061Z</time>
      </trkpt>
      <trkpt lat="45.19287" lon="6.44121">
        <ele>1559</ele>
        <time>2021-03-29T08:53:54.540Z</time>
      </trkpt>
      <trkpt lat="45.19316" lon="6.44145">
        <ele>1562</ele>
        <time>2021-03-29T08:54:24.296Z</time>
      </trkpt>
      <trkpt lat="45.19387" lon="6.44178">
        <ele>1569</ele>
        <time>2021-03-29T08:55:33.150Z</time>
      </trkpt>
      <trkpt lat="45.19444" lon="6.44187">
        <ele>1566</ele>
        <time>2021-03-29T08:55:40.938Z</time>
      </trkpt>
      <trkpt lat="45.19488" lon="6.44186">
        <ele>1557</ele>
        <time>2021-03-29T08:55:46.750Z</time>
      </trkpt>
      <trkpt lat="45.19501" lon="6.44188">
        <ele>1557</ele>
        <time>2021-03-29T08:55:51.669Z</time>
      </trkpt>
      <trkpt lat="45.19528" lon="6.442">
        <ele>1564</ele>
        <time>2021-03-29T08:56:32.721Z</time>
      </trkpt>
      <trkpt lat="45.19568" lon="6.44225">
        <ele>1577</ele>
        <time>2021-03-29T08:57:36.138Z</time>
      </trkpt>
      <trkpt lat="45.19589" lon="6.44233">
        <ele>1580</ele>
        <time>2021-03-29T08:58:07.687Z</time>
      </trkpt>
      <trkpt lat="45.19625" lon="6.44241">
        <ele>1578</ele>
        <time>2021-03-29T08:58:12.529Z</time>
      </trkpt>
      <trkpt lat="45.19641" lon="6.44241">
        <ele>1575</ele>
        <time>2021-03-29T08:58:14.642Z</time>
      </trkpt>
      <trkpt lat="45.19667" lon="6.44237">
        <ele>1568</ele>
        <time>2021-03-29T08:58:18.097Z</time>
      </trkpt>
      <trkpt lat="45.19686" lon="6.44238">
        <ele>1568</ele>
        <time>2021-03-29T08:58:25.249Z</time>
      </trkpt>
      <trkpt lat="45.19715" lon="6.44245">
        <ele>1572</ele>
        <time>2021-03-29T08:59:07.930Z</time>
      </trkpt>
      <trkpt lat="45.19744" lon="6.44256">
        <ele>1577</ele>
        <time>2021-03-29T08:59:51.485Z</time>
      </trkpt>
      <trkpt lat="45.19783" lon="6.44256">
        <ele>1570</ele>
        <time>2021-03-29T08:59:56.636Z</time>
      </trkpt>
      <trkpt lat="45.19796" lon="6.44252">
        <ele>1565</ele>
        <time>2021-03-29T08:59:58.393Z</time>
      </trkpt>
      <trkpt lat="45.19803" lon="6.44258">
        <ele>1567</ele>
        <time>2021-03-29T09:00:10.259Z</time>
      </trkpt>
      <trkpt lat="45.1982" lon="6.44262">
        <ele>1565</ele>
        <time>2021-03-29T09:00:12.535Z</time>
      </trkpt>
      <trkpt lat="45.19969" lon="6.44338">
        <ele>1566</ele>
        <time>2021-03-29T09:01:15.752Z</time>
      </trkpt>
      <trkpt lat="45.20105" lon="6.44397">
        <ele>1566</ele>
        <time>2021-03-29T09:02:09.248Z</time>
      </trkpt>
      <trkpt lat="45.20115" lon="6.44399">
        <ele>1566</ele>
        <time>2021-03-29T09:02:13.046Z</time>
      </trkpt>
      <trkpt lat="45.20136" lon="6.44386">
        <ele>1559</ele>
        <time>2021-03-29T09:02:16.073Z</time>
      </trkpt>
      <trkpt lat="45.20151" lon="6.44386">
        <ele>1558</ele>
        <time>2021-03-29T09:02:17.888Z</time>
      </trkpt>
      <trkpt lat="45.20224" lon="6.44414">
        <ele>1564</ele>
        <time>2021-03-29T09:03:19.466Z</time>
      </trkpt>
      <trkpt lat="45.2024" lon="6.44422">
        <ele>1564</ele>
        <time>2021-03-29T09:03:25.848Z</time>
      </trkpt>
      <trkpt lat="45.20262" lon="6.44439">
        <ele>1563</ele>
        <time>2021-03-29T09:03:29.650Z</time>
      </trkpt>
      <trkpt lat="45.20267" lon="6.44447">
        <ele>1563</ele>
        <time>2021-03-29T09:03:32.484Z</time>
      </trkpt>
      <trkpt lat="45.20269" lon="6.44461">
        <ele>1563</ele>
        <time>2021-03-29T09:03:36.270Z</time>
      </trkpt>
      <trkpt lat="45.20266" lon="6.44477">
        <ele>1562</ele>
        <time>2021-03-29T09:03:37.811Z</time>
      </trkpt>
      <trkpt lat="45.20193" lon="6.4453">
        <ele>1559</ele>
        <time>2021-03-29T09:03:50.664Z</time>
      </trkpt>
      <trkpt lat="45.20182" lon="6.44534">
        <ele>1559</ele>
        <time>2021-03-29T09:03:54.936Z</time>
      </trkpt>
      <trkpt lat="45.20137" lon="6.44527">
        <ele>1562</ele>
        <time>2021-03-29T09:04:28.265Z</time>
      </trkpt>
      <trkpt lat="45.2013" lon="6.4453">
        <ele>1561</ele>
        <time>2021-03-29T09:04:29.231Z</time>
      </trkpt>
      <trkpt lat="45.20106" lon="6.44561">
        <ele>1548</ele>
        <time>2021-03-29T09:04:33.517Z</time>
      </trkpt>
      <trkpt lat="45.20099" lon="6.44564">
        <ele>1546</ele>
        <time>2021-03-29T09:04:34.483Z</time>
      </trkpt>
      <trkpt lat="45.20091" lon="6.44559">
        <ele>1548</ele>
        <time>2021-03-29T09:04:47.166Z</time>
      </trkpt>
      <trkpt lat="45.20084" lon="6.44549">
        <ele>1552</ele>
        <time>2021-03-29T09:05:01.577Z</time>
      </trkpt>
      <trkpt lat="45.2006" lon="6.44528">
        <ele>1561</ele>
        <time>2021-03-29T09:05:42.487Z</time>
      </trkpt>
      <trkpt lat="45.20047" lon="6.44523">
        <ele>1564</ele>
        <time>2021-03-29T09:06:02.029Z</time>
      </trkpt>
      <trkpt lat="45.20005" lon="6.44514">
        <ele>1569</ele>
        <time>2021-03-29T09:06:52.249Z</time>
      </trkpt>
      <trkpt lat="45.19994" lon="6.44514">
        <ele>1569</ele>
        <time>2021-03-29T09:06:56.387Z</time>
      </trkpt>
      <trkpt lat="45.19989" lon="6.44517">
        <ele>1569</ele>
        <time>2021-03-29T09:06:58.429Z</time>
      </trkpt>
      <trkpt lat="45.19956" lon="6.44594">
        <ele>1535</ele>
        <time>2021-03-29T09:07:06.817Z</time>
      </trkpt>
      <trkpt lat="45.19948" lon="6.44601">
        <ele>1533</ele>
        <time>2021-03-29T09:07:08.058Z</time>
      </trkpt>
      <trkpt lat="45.19939" lon="6.44602">
        <ele>1533</ele>
        <time>2021-03-29T09:07:11.454Z</time>
      </trkpt>
      <trkpt lat="45.19867" lon="6.44556">
        <ele>1549</ele>
        <time>2021-03-29T09:09:06.020Z</time>
      </trkpt>
      <trkpt lat="45.19859" lon="6.44554">
        <ele>1549</ele>
        <time>2021-03-29T09:09:09.076Z</time>
      </trkpt>
      <trkpt lat="45.19849" lon="6.44554">
        <ele>1548</ele>
        <time>2021-03-29T09:09:10.397Z</time>
      </trkpt>
      <trkpt lat="45.19797" lon="6.44573">
        <ele>1534</ele>
        <time>2021-03-29T09:09:17.490Z</time>
      </trkpt>
      <trkpt lat="45.19773" lon="6.44578">
        <ele>1530</ele>
        <time>2021-03-29T09:09:20.694Z</time>
      </trkpt>
      <trkpt lat="45.19706" lon="6.44572">
        <ele>1543</ele>
        <time>2021-03-29T09:10:58.100Z</time>
      </trkpt>
      <trkpt lat="45.19693" lon="6.44576">
        <ele>1542</ele>
        <time>2021-03-29T09:10:59.857Z</time>
      </trkpt>
      <trkpt lat="45.19636" lon="6.44612">
        <ele>1538</ele>
        <time>2021-03-29T09:11:07.556Z</time>
      </trkpt>
      <trkpt lat="45.19622" lon="6.44628">
        <ele>1534</ele>
        <time>2021-03-29T09:11:09.930Z</time>
      </trkpt>
      <trkpt lat="45.19593" lon="6.44682">
        <ele>1518</ele>
        <time>2021-03-29T09:11:16.250Z</time>
      </trkpt>
      <trkpt lat="45.19575" lon="6.44701">
        <ele>1516</ele>
        <time>2021-03-29T09:11:19.213Z</time>
      </trkpt>
      <trkpt lat="45.19544" lon="6.44719">
        <ele>1519</ele>
        <time>2021-03-29T09:11:48.955Z</time>
      </trkpt>
      <trkpt lat="45.19535" lon="6.44728">
        <ele>1518</ele>
        <time>2021-03-29T09:11:50.409Z</time>
      </trkpt>
      <trkpt lat="45.19503" lon="6.44781">
        <ele>1512</ele>
        <time>2021-03-29T09:11:56.906Z</time>
      </trkpt>
      <trkpt lat="45.195" lon="6.44797">
        <ele>1510</ele>
        <time>2021-03-29T09:11:58.447Z</time>
      </trkpt>
      <trkpt lat="45.19501" lon="6.44876">
        <ele>1497</ele>
        <time>2021-03-29T09:12:05.802Z</time>
      </trkpt>
      <trkpt lat="45.19499" lon="6.44902">
        <ele>1494</ele>
        <time>2021-03-29T09:12:08.237Z</time>
      </trkpt>
      <trkpt lat="45.19494" lon="6.44921">
        <ele>1492</ele>
        <time>2021-03-29T09:12:10.124Z</time>
      </trkpt>
      <trkpt lat="45.19366" lon="6.45167">
        <ele>1493</ele>
        <time>2021-03-29T09:13:34.784Z</time>
      </trkpt>
      <trkpt lat="45.19352" lon="6.45223">
        <ele>1496</ele>
        <time>2021-03-29T09:14:06.878Z</time>
      </trkpt>
      <trkpt lat="45.19351" lon="6.45254">
        <ele>1495</ele>
        <time>2021-03-29T09:14:10.024Z</time>
      </trkpt>
      <trkpt lat="45.19361" lon="6.45303">
        <ele>1491</ele>
        <time>2021-03-29T09:14:14.773Z</time>
      </trkpt>
      <trkpt lat="45.1938" lon="6.45328">
        <ele>1480</ele>
        <time>2021-03-29T09:14:18.195Z</time>
      </trkpt>
      <trkpt lat="45.19401" lon="6.45392">
        <ele>1477</ele>
        <time>2021-03-29T09:14:24.521Z</time>
      </trkpt>
      <trkpt lat="45.19428" lon="6.45432">
        <ele>1469</ele>
        <time>2021-03-29T09:14:29.677Z</time>
      </trkpt>
      <trkpt lat="45.19441" lon="6.45459">
        <ele>1466</ele>
        <time>2021-03-29T09:14:32.721Z</time>
      </trkpt>
      <trkpt lat="45.19457" lon="6.45524">
        <ele>1462</ele>
        <time>2021-03-29T09:14:39.130Z</time>
      </trkpt>
      <trkpt lat="45.19458" lon="6.45544">
        <ele>1461</ele>
        <time>2021-03-29T09:14:40.996Z</time>
      </trkpt>
      <trkpt lat="45.1945" lon="6.456">
        <ele>1466</ele>
        <time>2021-03-29T09:15:32.524Z</time>
      </trkpt>
      <trkpt lat="45.19454" lon="6.45621">
        <ele>1465</ele>
        <time>2021-03-29T09:15:34.399Z</time>
      </trkpt>
      <trkpt lat="45.19476" lon="6.45684">
        <ele>1452</ele>
        <time>2021-03-29T09:15:40.944Z</time>
      </trkpt>
      <trkpt lat="45.19478" lon="6.45714">
        <ele>1453</ele>
        <time>2021-03-29T09:15:54.650Z</time>
      </trkpt>
      <trkpt lat="45.19476" lon="6.4574">
        <ele>1458</ele>
        <time>2021-03-29T09:16:21.393Z</time>
      </trkpt>
      <trkpt lat="45.19464" lon="6.45792">
        <ele>1474</ele>
        <time>2021-03-29T09:17:17.340Z</time>
      </trkpt>
      <trkpt lat="45.19467" lon="6.45805">
        <ele>1474</ele>
        <time>2021-03-29T09:17:20.966Z</time>
      </trkpt>
      <trkpt lat="45.19472" lon="6.45812">
        <ele>1473</ele>
        <time>2021-03-29T09:17:21.894Z</time>
      </trkpt>
      <trkpt lat="45.19481" lon="6.45818">
        <ele>1469</ele>
        <time>2021-03-29T09:17:23.207Z</time>
      </trkpt>
      <trkpt lat="45.19549" lon="6.45822">
        <ele>1442</ele>
        <time>2021-03-29T09:17:32.197Z</time>
      </trkpt>
      <trkpt lat="45.19566" lon="6.45825">
        <ele>1436</ele>
        <time>2021-03-29T09:17:34.460Z</time>
      </trkpt>
      <trkpt lat="45.19581" lon="6.45831">
        <ele>1432</ele>
        <time>2021-03-29T09:17:36.518Z</time>
      </trkpt>
      <trkpt lat="45.19614" lon="6.4587">
        <ele>1439</ele>
        <time>2021-03-29T09:18:38.829Z</time>
      </trkpt>
      <trkpt lat="45.19642" lon="6.4589">
        <ele>1437</ele>
        <time>2021-03-29T09:18:42.707Z</time>
      </trkpt>
      <trkpt lat="45.19679" lon="6.45901">
        <ele>1428</ele>
        <time>2021-03-29T09:18:47.700Z</time>
      </trkpt>
      <trkpt lat="45.19767" lon="6.45909">
        <ele>1407</ele>
        <time>2021-03-29T09:18:59.348Z</time>
      </trkpt>
      <trkpt lat="45.19784" lon="6.4592">
        <ele>1407</ele>
        <time>2021-03-29T09:19:06.376Z</time>
      </trkpt>
      <trkpt lat="45.19824" lon="6.45954">
        <ele>1410</ele>
        <time>2021-03-29T09:19:40.226Z</time>
      </trkpt>
      <trkpt lat="45.19876" lon="6.46005">
        <ele>1409</ele>
        <time>2021-03-29T09:19:52.671Z</time>
      </trkpt>
      <trkpt lat="45.19899" lon="6.46034">
        <ele>1404</ele>
        <time>2021-03-29T09:19:56.735Z</time>
      </trkpt>
      <trkpt lat="45.19913" lon="6.46063">
        <ele>1405</ele>
        <time>2021-03-29T09:20:11.520Z</time>
      </trkpt>
      <trkpt lat="45.19939" lon="6.46155">
        <ele>1398</ele>
        <time>2021-03-29T09:20:20.746Z</time>
      </trkpt>
      <trkpt lat="45.19939" lon="6.46167">
        <ele>1398</ele>
        <time>2021-03-29T09:20:23.927Z</time>
      </trkpt>
      <trkpt lat="45.19935" lon="6.46182">
        <ele>1396</ele>
        <time>2021-03-29T09:20:25.420Z</time>
      </trkpt>
      <trkpt lat="45.19928" lon="6.46194">
        <ele>1396</ele>
        <time>2021-03-29T09:20:29.549Z</time>
      </trkpt>
      <trkpt lat="45.19916" lon="6.46206">
        <ele>1399</ele>
        <time>2021-03-29T09:20:50.849Z</time>
      </trkpt>
      <trkpt lat="45.19897" lon="6.46238">
        <ele>1401</ele>
        <time>2021-03-29T09:21:12.809Z</time>
      </trkpt>
      <trkpt lat="45.19882" lon="6.46271">
        <ele>1402</ele>
        <time>2021-03-29T09:21:28.369Z</time>
      </trkpt>
      <trkpt lat="45.19835" lon="6.46408">
        <ele>1384</ele>
        <time>2021-03-29T09:21:42.551Z</time>
      </trkpt>
      <trkpt lat="45.19824" lon="6.46423">
        <ele>1380</ele>
        <time>2021-03-29T09:21:44.566Z</time>
      </trkpt>
      <trkpt lat="45.1981" lon="6.46426">
        <ele>1380</ele>
        <time>2021-03-29T09:21:49.893Z</time>
      </trkpt>
      <trkpt lat="45.19793" lon="6.46424">
        <ele>1382</ele>
        <time>2021-03-29T09:22:09.950Z</time>
      </trkpt>
      <trkpt lat="45.19761" lon="6.46427">
        <ele>1382</ele>
        <time>2021-03-29T09:22:22.014Z</time>
      </trkpt>
      <trkpt lat="45.19718" lon="6.46446">
        <ele>1383</ele>
        <time>2021-03-29T09:22:43.280Z</time>
      </trkpt>
      <trkpt lat="45.197" lon="6.46461">
        <ele>1382</ele>
        <time>2021-03-29T09:22:46.225Z</time>
      </trkpt>
      <trkpt lat="45.1969" lon="6.46481">
        <ele>1378</ele>
        <time>2021-03-29T09:22:48.507Z</time>
      </trkpt>
      <trkpt lat="45.19684" lon="6.46509">
        <ele>1372</ele>
        <time>2021-03-29T09:22:51.232Z</time>
      </trkpt>
      <trkpt lat="45.19678" lon="6.46558">
        <ele>1364</ele>
        <time>2021-03-29T09:22:55.861Z</time>
      </trkpt>
      <trkpt lat="45.1967" lon="6.46594">
        <ele>1360</ele>
        <time>2021-03-29T09:22:59.375Z</time>
      </trkpt>
      <trkpt lat="45.19658" lon="6.46619">
        <ele>1357</ele>
        <time>2021-03-29T09:23:02.190Z</time>
      </trkpt>
      <trkpt lat="45.19624" lon="6.46653">
        <ele>1357</ele>
        <time>2021-03-29T09:23:17.836Z</time>
      </trkpt>
      <trkpt lat="45.1961" lon="6.46663">
        <ele>1358</ele>
        <time>2021-03-29T09:23:29.171Z</time>
      </trkpt>
      <trkpt lat="45.19553" lon="6.46691">
        <ele>1362</ele>
        <time>2021-03-29T09:24:13.594Z</time>
      </trkpt>
      <trkpt lat="45.19543" lon="6.46712">
        <ele>1358</ele>
        <time>2021-03-29T09:24:15.953Z</time>
      </trkpt>
      <trkpt lat="45.19537" lon="6.46736">
        <ele>1352</ele>
        <time>2021-03-29T09:24:18.324Z</time>
      </trkpt>
      <trkpt lat="45.19531" lon="6.46748">
        <ele>1350</ele>
        <time>2021-03-29T09:24:19.693Z</time>
      </trkpt>
      <trkpt lat="45.19524" lon="6.46753">
        <ele>1350</ele>
        <time>2021-03-29T09:24:22.641Z</time>
      </trkpt>
      <trkpt lat="45.19486" lon="6.46766">
        <ele>1351</ele>
        <time>2021-03-29T09:24:41.845Z</time>
      </trkpt>
      <trkpt lat="45.19452" lon="6.46791">
        <ele>1344</ele>
        <time>2021-03-29T09:24:46.904Z</time>
      </trkpt>
      <trkpt lat="45.19435" lon="6.46797">
        <ele>1343</ele>
        <time>2021-03-29T09:24:49.189Z</time>
      </trkpt>
      <trkpt lat="45.19337" lon="6.46801">
        <ele>1346</ele>
        <time>2021-03-29T09:25:40.432Z</time>
      </trkpt>
      <trkpt lat="45.19333" lon="6.46803">
        <ele>1346</ele>
        <time>2021-03-29T09:25:42.027Z</time>
      </trkpt>
      <trkpt lat="45.19328" lon="6.46812">
        <ele>1345</ele>
        <time>2021-03-29T09:25:43.094Z</time>
      </trkpt>
      <trkpt lat="45.19329" lon="6.46822">
        <ele>1341</ele>
        <time>2021-03-29T09:25:44.034Z</time>
      </trkpt>
      <trkpt lat="45.19334" lon="6.46829">
        <ele>1337</ele>
        <time>2021-03-29T09:25:44.962Z</time>
      </trkpt>
      <trkpt lat="45.19358" lon="6.46821">
        <ele>1339</ele>
        <time>2021-03-29T09:26:05.332Z</time>
      </trkpt>
      <trkpt lat="45.19368" lon="6.4682">
        <ele>1339</ele>
        <time>2021-03-29T09:26:09.103Z</time>
      </trkpt>
      <trkpt lat="45.19393" lon="6.46826">
        <ele>1336</ele>
        <time>2021-03-29T09:26:12.452Z</time>
      </trkpt>
      <trkpt lat="45.19405" lon="6.46833">
        <ele>1334</ele>
        <time>2021-03-29T09:26:14.166Z</time>
      </trkpt>
      <trkpt lat="45.19418" lon="6.46845">
        <ele>1330</ele>
        <time>2021-03-29T09:26:16.214Z</time>
      </trkpt>
      <trkpt lat="45.19455" lon="6.46889">
        <ele>1319</ele>
        <time>2021-03-29T09:26:22.591Z</time>
      </trkpt>
      <trkpt lat="45.19466" lon="6.46896">
        <ele>1317</ele>
        <time>2021-03-29T09:26:24.183Z</time>
      </trkpt>
      <trkpt lat="45.19478" lon="6.46897">
        <ele>1318</ele>
        <time>2021-03-29T09:26:34.287Z</time>
      </trkpt>
      <trkpt lat="45.19485" lon="6.46893">
        <ele>1319</ele>
        <time>2021-03-29T09:26:45.093Z</time>
      </trkpt>
      <trkpt lat="45.19497" lon="6.46877">
        <ele>1323</ele>
        <time>2021-03-29T09:27:08.984Z</time>
      </trkpt>
      <trkpt lat="45.19506" lon="6.46869">
        <ele>1324</ele>
        <time>2021-03-29T09:27:18.814Z</time>
      </trkpt>
      <trkpt lat="45.19554" lon="6.46834">
        <ele>1321</ele>
        <time>2021-03-29T09:27:25.943Z</time>
      </trkpt>
      <trkpt lat="45.19575" lon="6.46806">
        <ele>1325</ele>
        <time>2021-03-29T09:28:07.752Z</time>
      </trkpt>
      <trkpt lat="45.19585" lon="6.46798">
        <ele>1325</ele>
        <time>2021-03-29T09:28:12.070Z</time>
      </trkpt>
      <trkpt lat="45.19654" lon="6.46757">
        <ele>1317</ele>
        <time>2021-03-29T09:28:21.951Z</time>
      </trkpt>
      <trkpt lat="45.19674" lon="6.46742">
        <ele>1316</ele>
        <time>2021-03-29T09:28:25.250Z</time>
      </trkpt>
      <trkpt lat="45.19688" lon="6.46725">
        <ele>1317</ele>
        <time>2021-03-29T09:28:37.719Z</time>
      </trkpt>
      <trkpt lat="45.19709" lon="6.46687">
        <ele>1322</ele>
        <time>2021-03-29T09:29:27.094Z</time>
      </trkpt>
      <trkpt lat="45.19715" lon="6.46684">
        <ele>1321</ele>
        <time>2021-03-29T09:29:27.935Z</time>
      </trkpt>
      <trkpt lat="45.19721" lon="6.46686">
        <ele>1318</ele>
        <time>2021-03-29T09:29:28.749Z</time>
      </trkpt>
      <trkpt lat="45.19728" lon="6.46701">
        <ele>1311</ele>
        <time>2021-03-29T09:29:30.423Z</time>
      </trkpt>
      <trkpt lat="45.19727" lon="6.46707">
        <ele>1310</ele>
        <time>2021-03-29T09:29:30.997Z</time>
      </trkpt>
      <trkpt lat="45.19724" lon="6.46714">
        <ele>1309</ele>
        <time>2021-03-29T09:29:31.760Z</time>
      </trkpt>
      <trkpt lat="45.19711" lon="6.46727">
        <ele>1309</ele>
        <time>2021-03-29T09:29:37.742Z</time>
      </trkpt>
      <trkpt lat="45.19689" lon="6.46767">
        <ele>1305</ele>
        <time>2021-03-29T09:29:42.465Z</time>
      </trkpt>
      <trkpt lat="45.1964" lon="6.46824">
        <ele>1302</ele>
        <time>2021-03-29T09:29:51.447Z</time>
      </trkpt>
      <trkpt lat="45.19629" lon="6.46834">
        <ele>1302</ele>
        <time>2021-03-29T09:29:56.362Z</time>
      </trkpt>
      <trkpt lat="45.19619" lon="6.46839">
        <ele>1304</ele>
        <time>2021-03-29T09:30:11.745Z</time>
      </trkpt>
      <trkpt lat="45.19602" lon="6.46837">
        <ele>1309</ele>
        <time>2021-03-29T09:30:36.496Z</time>
      </trkpt>
      <trkpt lat="45.19593" lon="6.46843">
        <ele>1310</ele>
        <time>2021-03-29T09:30:46.277Z</time>
      </trkpt>
      <trkpt lat="45.19591" lon="6.46849">
        <ele>1310</ele>
        <time>2021-03-29T09:30:48.036Z</time>
      </trkpt>
      <trkpt lat="45.19592" lon="6.46863">
        <ele>1307</ele>
        <time>2021-03-29T09:30:49.346Z</time>
      </trkpt>
      <trkpt lat="45.19598" lon="6.46873">
        <ele>1303</ele>
        <time>2021-03-29T09:30:50.569Z</time>
      </trkpt>
      <trkpt lat="45.19603" lon="6.46876">
        <ele>1301</ele>
        <time>2021-03-29T09:30:51.286Z</time>
      </trkpt>
      <trkpt lat="45.19608" lon="6.46875">
        <ele>1300</ele>
        <time>2021-03-29T09:30:51.953Z</time>
      </trkpt>
      <trkpt lat="45.1963" lon="6.46856">
        <ele>1297</ele>
        <time>2021-03-29T09:30:55.355Z</time>
      </trkpt>
      <trkpt lat="45.19659" lon="6.46841">
        <ele>1292</ele>
        <time>2021-03-29T09:30:59.432Z</time>
      </trkpt>
      <trkpt lat="45.19672" lon="6.46837">
        <ele>1290</ele>
        <time>2021-03-29T09:31:01.189Z</time>
      </trkpt>
      <trkpt lat="45.19716" lon="6.46833">
        <ele>1281</ele>
        <time>2021-03-29T09:31:07.013Z</time>
      </trkpt>
      <trkpt lat="45.19736" lon="6.46823">
        <ele>1278</ele>
        <time>2021-03-29T09:31:09.814Z</time>
      </trkpt>
      <trkpt lat="45.19793" lon="6.46743">
        <ele>1278</ele>
        <time>2021-03-29T09:31:39.971Z</time>
      </trkpt>
      <trkpt lat="45.19816" lon="6.4672">
        <ele>1279</ele>
        <time>2021-03-29T09:31:55.664Z</time>
      </trkpt>
      <trkpt lat="45.19838" lon="6.46704">
        <ele>1279</ele>
        <time>2021-03-29T09:32:04.963Z</time>
      </trkpt>
      <trkpt lat="45.19848" lon="6.46699">
        <ele>1280</ele>
        <time>2021-03-29T09:32:14.790Z</time>
      </trkpt>
      <trkpt lat="45.19859" lon="6.46697">
        <ele>1279</ele>
        <time>2021-03-29T09:32:16.255Z</time>
      </trkpt>
      <trkpt lat="45.19876" lon="6.46697">
        <ele>1277</ele>
        <time>2021-03-29T09:32:18.501Z</time>
      </trkpt>
      <trkpt lat="45.19892" lon="6.467">
        <ele>1274</ele>
        <time>2021-03-29T09:32:20.633Z</time>
      </trkpt>
      <trkpt lat="45.19906" lon="6.46699">
        <ele>1272</ele>
        <time>2021-03-29T09:32:22.484Z</time>
      </trkpt>
      <trkpt lat="45.19935" lon="6.46686">
        <ele>1271</ele>
        <time>2021-03-29T09:32:27.431Z</time>
      </trkpt>
      <trkpt lat="45.19946" lon="6.46687">
        <ele>1268</ele>
        <time>2021-03-29T09:32:28.887Z</time>
      </trkpt>
      <trkpt lat="45.1995" lon="6.46691">
        <ele>1266</ele>
        <time>2021-03-29T09:32:29.534Z</time>
      </trkpt>
      <trkpt lat="45.19953" lon="6.46702">
        <ele>1262</ele>
        <time>2021-03-29T09:32:30.631Z</time>
      </trkpt>
      <trkpt lat="45.19951" lon="6.46711">
        <ele>1260</ele>
        <time>2021-03-29T09:32:31.510Z</time>
      </trkpt>
      <trkpt lat="45.19945" lon="6.46715">
        <ele>1260</ele>
        <time>2021-03-29T09:32:34.003Z</time>
      </trkpt>
      <trkpt lat="45.19878" lon="6.4673">
        <ele>1265</ele>
        <time>2021-03-29T09:33:26.826Z</time>
      </trkpt>
      <trkpt lat="45.19854" lon="6.46739">
        <ele>1265</ele>
        <time>2021-03-29T09:33:36.164Z</time>
      </trkpt>
      <trkpt lat="45.19846" lon="6.46746">
        <ele>1263</ele>
        <time>2021-03-29T09:33:37.405Z</time>
      </trkpt>
      <trkpt lat="45.19831" lon="6.46766">
        <ele>1260</ele>
        <time>2021-03-29T09:33:40.124Z</time>
      </trkpt>
      <trkpt lat="45.19811" lon="6.46803">
        <ele>1257</ele>
        <time>2021-03-29T09:33:44.464Z</time>
      </trkpt>
      <trkpt lat="45.19782" lon="6.46875">
        <ele>1252</ele>
        <time>2021-03-29T09:33:52.184Z</time>
      </trkpt>
      <trkpt lat="45.19774" lon="6.46914">
        <ele>1246</ele>
        <time>2021-03-29T09:33:55.964Z</time>
      </trkpt>
      <trkpt lat="45.19767" lon="6.46936">
        <ele>1243</ele>
        <time>2021-03-29T09:33:58.211Z</time>
      </trkpt>
      <trkpt lat="45.1977" lon="6.46952">
        <ele>1238</ele>
        <time>2021-03-29T09:33:59.752Z</time>
      </trkpt>
      <trkpt lat="45.19775" lon="6.46956">
        <ele>1236</ele>
        <time>2021-03-29T09:34:00.510Z</time>
      </trkpt>
      <trkpt lat="45.19781" lon="6.46955">
        <ele>1234</ele>
        <time>2021-03-29T09:34:01.308Z</time>
      </trkpt>
      <trkpt lat="45.1979" lon="6.46946">
        <ele>1234</ele>
        <time>2021-03-29T09:34:05.450Z</time>
      </trkpt>
      <trkpt lat="45.19795" lon="6.46897">
        <ele>1243</ele>
        <time>2021-03-29T09:34:56.071Z</time>
      </trkpt>
      <trkpt lat="45.19801" lon="6.46878">
        <ele>1245</ele>
        <time>2021-03-29T09:35:17.359Z</time>
      </trkpt>
      <trkpt lat="45.1983" lon="6.46825">
        <ele>1244</ele>
        <time>2021-03-29T09:35:26.094Z</time>
      </trkpt>
      <trkpt lat="45.19841" lon="6.46811">
        <ele>1245</ele>
        <time>2021-03-29T09:35:37.086Z</time>
      </trkpt>
      <trkpt lat="45.19855" lon="6.46804">
        <ele>1245</ele>
        <time>2021-03-29T09:35:42.670Z</time>
      </trkpt>
      <trkpt lat="45.19865" lon="6.46804">
        <ele>1243</ele>
        <time>2021-03-29T09:35:43.991Z</time>
      </trkpt>
      <trkpt lat="45.199" lon="6.46817">
        <ele>1232</ele>
        <time>2021-03-29T09:35:48.770Z</time>
      </trkpt>
      <trkpt lat="45.19914" lon="6.46818">
        <ele>1229</ele>
        <time>2021-03-29T09:35:50.621Z</time>
      </trkpt>
      <trkpt lat="45.19923" lon="6.46814">
        <ele>1228</ele>
        <time>2021-03-29T09:35:51.867Z</time>
      </trkpt>
      <trkpt lat="45.19953" lon="6.46792">
        <ele>1229</ele>
        <time>2021-03-29T09:36:09.298Z</time>
      </trkpt>
      <trkpt lat="45.2002" lon="6.4676">
        <ele>1227</ele>
        <time>2021-03-29T09:36:21.361Z</time>
      </trkpt>
      <trkpt lat="45.20079" lon="6.46749">
        <ele>1213</ele>
        <time>2021-03-29T09:36:29.222Z</time>
      </trkpt>
      <trkpt lat="45.20099" lon="6.46733">
        <ele>1211</ele>
        <time>2021-03-29T09:36:32.254Z</time>
      </trkpt>
      <trkpt lat="45.20128" lon="6.46701">
        <ele>1211</ele>
        <time>2021-03-29T09:36:46.072Z</time>
      </trkpt>
      <trkpt lat="45.20154" lon="6.46667">
        <ele>1210</ele>
        <time>2021-03-29T09:36:52.106Z</time>
      </trkpt>
      <trkpt lat="45.20171" lon="6.46633">
        <ele>1206</ele>
        <time>2021-03-29T09:36:55.986Z</time>
      </trkpt>
      <trkpt lat="45.20182" lon="6.46548">
        <ele>1209</ele>
        <time>2021-03-29T09:37:35.848Z</time>
      </trkpt>
      <trkpt lat="45.20187" lon="6.46527">
        <ele>1207</ele>
        <time>2021-03-29T09:37:37.911Z</time>
      </trkpt>
      <trkpt lat="45.20199" lon="6.46497">
        <ele>1203</ele>
        <time>2021-03-29T09:37:41.121Z</time>
      </trkpt>
      <trkpt lat="45.20274" lon="6.46363">
        <ele>1195</ele>
        <time>2021-03-29T09:37:55.748Z</time>
      </trkpt>
      <trkpt lat="45.20294" lon="6.46344">
        <ele>1192</ele>
        <time>2021-03-29T09:37:58.927Z</time>
      </trkpt>
      <trkpt lat="45.20335" lon="6.46322">
        <ele>1180</ele>
        <time>2021-03-29T09:38:04.717Z</time>
      </trkpt>
      <trkpt lat="45.20345" lon="6.46314">
        <ele>1175</ele>
        <time>2021-03-29T09:38:06.234Z</time>
      </trkpt>
      <trkpt lat="45.20353" lon="6.46299">
        <ele>1172</ele>
        <time>2021-03-29T09:38:07.984Z</time>
      </trkpt>
      <trkpt lat="45.20356" lon="6.46282">
        <ele>1173</ele>
        <time>2021-03-29T09:38:18.175Z</time>
      </trkpt>
      <trkpt lat="45.20348" lon="6.46191">
        <ele>1180</ele>
        <time>2021-03-29T09:39:26.970Z</time>
      </trkpt>
      <trkpt lat="45.20347" lon="6.46144">
        <ele>1176</ele>
        <time>2021-03-29T09:39:31.347Z</time>
      </trkpt>
      <trkpt lat="45.20341" lon="6.46122">
        <ele>1175</ele>
        <time>2021-03-29T09:39:33.462Z</time>
      </trkpt>
      <trkpt lat="45.2032" lon="6.46069">
        <ele>1175</ele>
        <time>2021-03-29T09:39:49.579Z</time>
      </trkpt>
      <trkpt lat="45.20319" lon="6.46004">
        <ele>1163</ele>
        <time>2021-03-29T09:39:55.630Z</time>
      </trkpt>
      <trkpt lat="45.20316" lon="6.45984">
        <ele>1160</ele>
        <time>2021-03-29T09:39:57.533Z</time>
      </trkpt>
      <trkpt lat="45.20306" lon="6.45952">
        <ele>1158</ele>
        <time>2021-03-29T09:40:00.791Z</time>
      </trkpt>
      <trkpt lat="45.20295" lon="6.4593">
        <ele>1159</ele>
        <time>2021-03-29T09:40:13.511Z</time>
      </trkpt>
      <trkpt lat="45.20251" lon="6.45858">
        <ele>1157</ele>
        <time>2021-03-29T09:40:24.790Z</time>
      </trkpt>
      <trkpt lat="45.20231" lon="6.45804">
        <ele>1150</ele>
        <time>2021-03-29T09:40:30.468Z</time>
      </trkpt>
      <trkpt lat="45.20222" lon="6.45787">
        <ele>1149</ele>
        <time>2021-03-29T09:40:32.447Z</time>
      </trkpt>
      <trkpt lat="45.20203" lon="6.45766">
        <ele>1150</ele>
        <time>2021-03-29T09:40:47.067Z</time>
      </trkpt>
      <trkpt lat="45.20174" lon="6.45746">
        <ele>1155</ele>
        <time>2021-03-29T09:41:33.849Z</time>
      </trkpt>
      <trkpt lat="45.20165" lon="6.45736">
        <ele>1156</ele>
        <time>2021-03-29T09:41:43.815Z</time>
      </trkpt>
      <trkpt lat="45.20132" lon="6.45693">
        <ele>1160</ele>
        <time>2021-03-29T09:42:23.497Z</time>
      </trkpt>
      <trkpt lat="45.20124" lon="6.45678">
        <ele>1160</ele>
        <time>2021-03-29T09:42:28.483Z</time>
      </trkpt>
      <trkpt lat="45.20121" lon="6.45666">
        <ele>1159</ele>
        <time>2021-03-29T09:42:29.668Z</time>
      </trkpt>
      <trkpt lat="45.20125" lon="6.4565">
        <ele>1159</ele>
        <time>2021-03-29T09:42:34.168Z</time>
      </trkpt>
      <trkpt lat="45.20131" lon="6.45642">
        <ele>1158</ele>
        <time>2021-03-29T09:42:35.256Z</time>
      </trkpt>
      <trkpt lat="45.20177" lon="6.45639">
        <ele>1135</ele>
        <time>2021-03-29T09:42:41.338Z</time>
      </trkpt>
      <trkpt lat="45.20188" lon="6.45635">
        <ele>1131</ele>
        <time>2021-03-29T09:42:42.838Z</time>
      </trkpt>
      <trkpt lat="45.20202" lon="6.45622">
        <ele>1126</ele>
        <time>2021-03-29T09:42:45.048Z</time>
      </trkpt>
      <trkpt lat="45.20205" lon="6.45613">
        <ele>1125</ele>
        <time>2021-03-29T09:42:45.975Z</time>
      </trkpt>
      <trkpt lat="45.20204" lon="6.45604">
        <ele>1126</ele>
        <time>2021-03-29T09:42:55.290Z</time>
      </trkpt>
      <trkpt lat="45.20189" lon="6.4557">
        <ele>1134</ele>
        <time>2021-03-29T09:43:36.301Z</time>
      </trkpt>
      <trkpt lat="45.20186" lon="6.45558">
        <ele>1135</ele>
        <time>2021-03-29T09:43:46.181Z</time>
      </trkpt>
      <trkpt lat="45.20182" lon="6.45538">
        <ele>1136</ele>
        <time>2021-03-29T09:43:57.126Z</time>
      </trkpt>
      <trkpt lat="45.2018" lon="6.45505">
        <ele>1137</ele>
        <time>2021-03-29T09:44:11.576Z</time>
      </trkpt>
      <trkpt lat="45.20183" lon="6.45491">
        <ele>1136</ele>
        <time>2021-03-29T09:44:12.938Z</time>
      </trkpt>
      <trkpt lat="45.20195" lon="6.45478">
        <ele>1133</ele>
        <time>2021-03-29T09:44:14.933Z</time>
      </trkpt>
      <trkpt lat="45.20221" lon="6.45478">
        <ele>1122</ele>
        <time>2021-03-29T09:44:18.367Z</time>
      </trkpt>
      <trkpt lat="45.20228" lon="6.45476">
        <ele>1120</ele>
        <time>2021-03-29T09:44:19.310Z</time>
      </trkpt>
      <trkpt lat="45.20238" lon="6.45469">
        <ele>1117</ele>
        <time>2021-03-29T09:44:20.783Z</time>
      </trkpt>
      <trkpt lat="45.20269" lon="6.45433">
        <ele>1112</ele>
        <time>2021-03-29T09:44:26.074Z</time>
      </trkpt>
      <trkpt lat="45.2029" lon="6.45401">
        <ele>1111</ele>
        <time>2021-03-29T09:44:31.108Z</time>
      </trkpt>
      <trkpt lat="45.20295" lon="6.45399">
        <ele>1111</ele>
        <time>2021-03-29T09:44:33.062Z</time>
      </trkpt>
      <trkpt lat="45.20304" lon="6.45401">
        <ele>1108</ele>
        <time>2021-03-29T09:44:34.265Z</time>
      </trkpt>
      <trkpt lat="45.20308" lon="6.45406">
        <ele>1106</ele>
        <time>2021-03-29T09:44:34.969Z</time>
      </trkpt>
      <trkpt lat="45.2031" lon="6.45418">
        <ele>1104</ele>
        <time>2021-03-29T09:44:36.117Z</time>
      </trkpt>
      <trkpt lat="45.20306" lon="6.45431">
        <ele>1103</ele>
        <time>2021-03-29T09:44:37.437Z</time>
      </trkpt>
      <trkpt lat="45.20274" lon="6.45468">
        <ele>1106</ele>
        <time>2021-03-29T09:45:09.325Z</time>
      </trkpt>
      <trkpt lat="45.20232" lon="6.45524">
        <ele>1114</ele>
        <time>2021-03-29T09:46:32.939Z</time>
      </trkpt>
      <trkpt lat="45.20229" lon="6.45534">
        <ele>1115</ele>
        <time>2021-03-29T09:46:43.611Z</time>
      </trkpt>
      <trkpt lat="45.2023" lon="6.45543">
        <ele>1115</ele>
        <time>2021-03-29T09:46:46.025Z</time>
      </trkpt>
      <trkpt lat="45.2024" lon="6.45553">
        <ele>1110</ele>
        <time>2021-03-29T09:46:47.641Z</time>
      </trkpt>
      <trkpt lat="45.20252" lon="6.45552">
        <ele>1104</ele>
        <time>2021-03-29T09:46:49.229Z</time>
      </trkpt>
      <trkpt lat="45.20283" lon="6.45517">
        <ele>1099</ele>
        <time>2021-03-29T09:46:54.462Z</time>
      </trkpt>
      <trkpt lat="45.2032" lon="6.45494">
        <ele>1092</ele>
        <time>2021-03-29T09:46:59.797Z</time>
      </trkpt>
      <trkpt lat="45.20331" lon="6.45484">
        <ele>1090</ele>
        <time>2021-03-29T09:47:01.523Z</time>
      </trkpt>
      <trkpt lat="45.2035" lon="6.45451">
        <ele>1090</ele>
        <time>2021-03-29T09:47:12.818Z</time>
      </trkpt>
      <trkpt lat="45.2036" lon="6.45426">
        <ele>1090</ele>
        <time>2021-03-29T09:47:20.438Z</time>
      </trkpt>
      <trkpt lat="45.20377" lon="6.45346">
        <ele>1096</ele>
        <time>2021-03-29T09:48:19.123Z</time>
      </trkpt>
      <trkpt lat="45.20383" lon="6.45334">
        <ele>1095</ele>
        <time>2021-03-29T09:48:20.493Z</time>
      </trkpt>
      <trkpt lat="45.20393" lon="6.45325">
        <ele>1095</ele>
        <time>2021-03-29T09:48:24.947Z</time>
      </trkpt>
      <trkpt lat="45.20417" lon="6.45317">
        <ele>1090</ele>
        <time>2021-03-29T09:48:28.204Z</time>
      </trkpt>
      <trkpt lat="45.20557" lon="6.45319">
        <ele>1069</ele>
        <time>2021-03-29T09:48:46.697Z</time>
      </trkpt>
      <trkpt lat="45.20591" lon="6.45325">
        <ele>1063</ele>
        <time>2021-03-29T09:48:51.223Z</time>
      </trkpt>
      <trkpt lat="45.20627" lon="6.45339">
        <ele>1057</ele>
        <time>2021-03-29T09:48:56.154Z</time>
      </trkpt>
      <trkpt lat="45.20643" lon="6.45342">
        <ele>1056</ele>
        <time>2021-03-29T09:48:58.179Z</time>
      </trkpt>
      <trkpt lat="45.20679" lon="6.45342">
        <ele>1054</ele>
        <time>2021-03-29T09:49:02.936Z</time>
      </trkpt>
      <trkpt lat="45.2072" lon="6.45335">
        <ele>1053</ele>
        <time>2021-03-29T09:49:10.304Z</time>
      </trkpt>
      <trkpt lat="45.2075" lon="6.45338">
        <ele>1050</ele>
        <time>2021-03-29T09:49:14.276Z</time>
      </trkpt>
      <trkpt lat="45.20766" lon="6.45342">
        <ele>1052</ele>
        <time>2021-03-29T09:49:34.787Z</time>
      </trkpt>
      <trkpt lat="45.20776" lon="6.45348">
        <ele>1052</ele>
        <time>2021-03-29T09:49:38.871Z</time>
      </trkpt>
      <trkpt lat="45.20785" lon="6.45356">
        <ele>1052</ele>
        <time>2021-03-29T09:49:42.865Z</time>
      </trkpt>
      <trkpt lat="45.20798" lon="6.45376">
        <ele>1048</ele>
        <time>2021-03-29T09:49:45.398Z</time>
      </trkpt>
      <trkpt lat="45.20867" lon="6.4552">
        <ele>1021</ele>
        <time>2021-03-29T09:50:01.604Z</time>
      </trkpt>
      <trkpt lat="45.20892" lon="6.45594">
        <ele>1011</ele>
        <time>2021-03-29T09:50:09.242Z</time>
      </trkpt>
      <trkpt lat="45.20898" lon="6.45602">
        <ele>1010</ele>
        <time>2021-03-29T09:50:10.329Z</time>
      </trkpt>
      <trkpt lat="45.20907" lon="6.45607">
        <ele>1011</ele>
        <time>2021-03-29T09:50:20.114Z</time>
      </trkpt>
      <trkpt lat="45.2094" lon="6.45612">
        <ele>1007</ele>
        <time>2021-03-29T09:50:24.498Z</time>
      </trkpt>
      <trkpt lat="45.20945" lon="6.4561">
        <ele>1006</ele>
        <time>2021-03-29T09:50:25.184Z</time>
      </trkpt>
      <trkpt lat="45.20951" lon="6.456">
        <ele>1007</ele>
        <time>2021-03-29T09:50:35.008Z</time>
      </trkpt>
      <trkpt lat="45.20956" lon="6.45544">
        <ele>1013</ele>
        <time>2021-03-29T09:51:32.710Z</time>
      </trkpt>
      <trkpt lat="45.20966" lon="6.45521">
        <ele>1013</ele>
        <time>2021-03-29T09:51:39.873Z</time>
      </trkpt>
      <trkpt lat="45.21003" lon="6.45484">
        <ele>1010</ele>
        <time>2021-03-29T09:51:45.366Z</time>
      </trkpt>
      <trkpt lat="45.21021" lon="6.45446">
        <ele>1016</ele>
        <time>2021-03-29T09:52:32.173Z</time>
      </trkpt>
      <trkpt lat="45.21026" lon="6.45443">
        <ele>1016</ele>
        <time>2021-03-29T09:52:34.215Z</time>
      </trkpt>
      <trkpt lat="45.21035" lon="6.45446">
        <ele>1013</ele>
        <time>2021-03-29T09:52:35.436Z</time>
      </trkpt>
      <trkpt lat="45.21041" lon="6.45457">
        <ele>1009</ele>
        <time>2021-03-29T09:52:36.731Z</time>
      </trkpt>
      <trkpt lat="45.2104" lon="6.4547">
        <ele>1006</ele>
        <time>2021-03-29T09:52:37.948Z</time>
      </trkpt>
      <trkpt lat="45.21017" lon="6.45517">
        <ele>1001</ele>
        <time>2021-03-29T09:52:43.273Z</time>
      </trkpt>
      <trkpt lat="45.21007" lon="6.45546">
        <ele>1000</ele>
        <time>2021-03-29T09:52:46.598Z</time>
      </trkpt>
      <trkpt lat="45.21001" lon="6.45576">
        <ele>998</ele>
        <time>2021-03-29T09:52:49.500Z</time>
      </trkpt>
      <trkpt lat="45.21001" lon="6.45598">
        <ele>996</ele>
        <time>2021-03-29T09:52:51.547Z</time>
      </trkpt>
      <trkpt lat="45.21008" lon="6.4563">
        <ele>992</ele>
        <time>2021-03-29T09:52:54.665Z</time>
      </trkpt>
      <trkpt lat="45.21018" lon="6.4566">
        <ele>987</ele>
        <time>2021-03-29T09:52:57.754Z</time>
      </trkpt>
      <trkpt lat="45.21031" lon="6.45684">
        <ele>981</ele>
        <time>2021-03-29T09:53:00.571Z</time>
      </trkpt>
      <trkpt lat="45.21073" lon="6.45749">
        <ele>972</ele>
        <time>2021-03-29T09:53:08.779Z</time>
      </trkpt>
      <trkpt lat="45.21074" lon="6.45759">
        <ele>970</ele>
        <time>2021-03-29T09:53:09.719Z</time>
      </trkpt>
      <trkpt lat="45.2107" lon="6.45768">
        <ele>969</ele>
        <time>2021-03-29T09:53:10.709Z</time>
      </trkpt>
      <trkpt lat="45.21061" lon="6.45769">
        <ele>969</ele>
        <time>2021-03-29T09:53:14.105Z</time>
      </trkpt>
      <trkpt lat="45.21036" lon="6.4575">
        <ele>974</ele>
        <time>2021-03-29T09:53:55.251Z</time>
      </trkpt>
      <trkpt lat="45.21023" lon="6.45745">
        <ele>975</ele>
        <time>2021-03-29T09:54:05.783Z</time>
      </trkpt>
      <trkpt lat="45.2098" lon="6.45746">
        <ele>976</ele>
        <time>2021-03-29T09:54:26.338Z</time>
      </trkpt>
      <trkpt lat="45.20968" lon="6.45751">
        <ele>975</ele>
        <time>2021-03-29T09:54:27.990Z</time>
      </trkpt>
      <trkpt lat="45.20938" lon="6.45779">
        <ele>966</ele>
        <time>2021-03-29T09:54:32.733Z</time>
      </trkpt>
      <trkpt lat="45.20919" lon="6.45789">
        <ele>962</ele>
        <time>2021-03-29T09:54:35.410Z</time>
      </trkpt>
      <trkpt lat="45.2087" lon="6.45782">
        <ele>962</ele>
        <time>2021-03-29T09:54:53.935Z</time>
      </trkpt>
      <trkpt lat="45.20835" lon="6.45795">
        <ele>957</ele>
        <time>2021-03-29T09:54:58.714Z</time>
      </trkpt>
      <trkpt lat="45.20785" lon="6.45795">
        <ele>961</ele>
        <time>2021-03-29T09:55:39.648Z</time>
      </trkpt>
      <trkpt lat="45.20775" lon="6.45801">
        <ele>961</ele>
        <time>2021-03-29T09:55:43.732Z</time>
      </trkpt>
      <trkpt lat="45.20768" lon="6.45811">
        <ele>960</ele>
        <time>2021-03-29T09:55:45.044Z</time>
      </trkpt>
      <trkpt lat="45.20714" lon="6.45947">
        <ele>959</ele>
        <time>2021-03-29T09:56:08.658Z</time>
      </trkpt>
      <trkpt lat="45.20713" lon="6.4596">
        <ele>959</ele>
        <time>2021-03-29T09:56:12.124Z</time>
      </trkpt>
      <trkpt lat="45.20718" lon="6.45982">
        <ele>956</ele>
        <time>2021-03-29T09:56:14.275Z</time>
      </trkpt>
      <trkpt lat="45.20743" lon="6.46007">
        <ele>943</ele>
        <time>2021-03-29T09:56:18.315Z</time>
      </trkpt>
      <trkpt lat="45.20745" lon="6.46012">
        <ele>943</ele>
        <time>2021-03-29T09:56:19.839Z</time>
      </trkpt>
      <trkpt lat="45.20749" lon="6.46025">
        <ele>941</ele>
        <time>2021-03-29T09:56:21.159Z</time>
      </trkpt>
      <trkpt lat="45.20752" lon="6.46063">
        <ele>943</ele>
        <time>2021-03-29T09:56:42.225Z</time>
      </trkpt>
      <trkpt lat="45.20768" lon="6.46104">
        <ele>939</ele>
        <time>2021-03-29T09:56:46.586Z</time>
      </trkpt>
      <trkpt lat="45.20774" lon="6.46157">
        <ele>940</ele>
        <time>2021-03-29T09:57:05.360Z</time>
      </trkpt>
      <trkpt lat="45.20799" lon="6.46207">
        <ele>927</ele>
        <time>2021-03-29T09:57:11.066Z</time>
      </trkpt>
      <trkpt lat="45.20802" lon="6.46219">
        <ele>925</ele>
        <time>2021-03-29T09:57:12.251Z</time>
      </trkpt>
      <trkpt lat="45.20797" lon="6.46311">
        <ele>924</ele>
        <time>2021-03-29T09:57:25.120Z</time>
      </trkpt>
      <trkpt lat="45.20784" lon="6.46349">
        <ele>927</ele>
        <time>2021-03-29T09:57:54.462Z</time>
      </trkpt>
      <trkpt lat="45.20782" lon="6.46363">
        <ele>927</ele>
        <time>2021-03-29T09:57:58.248Z</time>
      </trkpt>
      <trkpt lat="45.20785" lon="6.46377">
        <ele>925</ele>
        <time>2021-03-29T09:57:59.610Z</time>
      </trkpt>
      <trkpt lat="45.20792" lon="6.46388">
        <ele>922</ele>
        <time>2021-03-29T09:58:00.990Z</time>
      </trkpt>
      <trkpt lat="45.20802" lon="6.46396">
        <ele>918</ele>
        <time>2021-03-29T09:58:02.506Z</time>
      </trkpt>
      <trkpt lat="45.20847" lon="6.46412">
        <ele>905</ele>
        <time>2021-03-29T09:58:08.634Z</time>
      </trkpt>
      <trkpt lat="45.20862" lon="6.46425">
        <ele>902</ele>
        <time>2021-03-29T09:58:10.955Z</time>
      </trkpt>
      <trkpt lat="45.20865" lon="6.46432">
        <ele>901</ele>
        <time>2021-03-29T09:58:11.718Z</time>
      </trkpt>
      <trkpt lat="45.20867" lon="6.46445">
        <ele>900</ele>
        <time>2021-03-29T09:58:12.956Z</time>
      </trkpt>
      <trkpt lat="45.20868" lon="6.46531">
        <ele>899</ele>
        <time>2021-03-29T09:58:24.788Z</time>
      </trkpt>
      <trkpt lat="45.20878" lon="6.46578">
        <ele>896</ele>
        <time>2021-03-29T09:58:29.357Z</time>
      </trkpt>
      <trkpt lat="45.20873" lon="6.46643">
        <ele>896</ele>
        <time>2021-03-29T09:58:46.685Z</time>
      </trkpt>
      <trkpt lat="45.2089" lon="6.46702">
        <ele>883</ele>
        <time>2021-03-29T09:58:52.617Z</time>
      </trkpt>
      <trkpt lat="45.20892" lon="6.46724">
        <ele>880</ele>
        <time>2021-03-29T09:58:54.682Z</time>
      </trkpt>
      <trkpt lat="45.20886" lon="6.46743">
        <ele>880</ele>
        <time>2021-03-29T09:59:00.200Z</time>
      </trkpt>
      <trkpt lat="45.20868" lon="6.46775">
        <ele>881</ele>
        <time>2021-03-29T09:59:16.100Z</time>
      </trkpt>
      <trkpt lat="45.20854" lon="6.46824">
        <ele>875</ele>
        <time>2021-03-29T09:59:21.021Z</time>
      </trkpt>
      <trkpt lat="45.20844" lon="6.46838">
        <ele>874</ele>
        <time>2021-03-29T09:59:22.877Z</time>
      </trkpt>
      <trkpt lat="45.20779" lon="6.46906">
        <ele>876</ele>
        <time>2021-03-29T10:00:02.165Z</time>
      </trkpt>
      <trkpt lat="45.20773" lon="6.46918">
        <ele>875</ele>
        <time>2021-03-29T10:00:03.534Z</time>
      </trkpt>
      <trkpt lat="45.20773" lon="6.46927">
        <ele>873</ele>
        <time>2021-03-29T10:00:04.372Z</time>
      </trkpt>
      <trkpt lat="45.20776" lon="6.46936">
        <ele>870</ele>
        <time>2021-03-29T10:00:05.298Z</time>
      </trkpt>
      <trkpt lat="45.20781" lon="6.46941">
        <ele>867</ele>
        <time>2021-03-29T10:00:06.106Z</time>
      </trkpt>
      <trkpt lat="45.20788" lon="6.46943">
        <ele>865</ele>
        <time>2021-03-29T10:00:07.050Z</time>
      </trkpt>
      <trkpt lat="45.20854" lon="6.46887">
        <ele>862</ele>
        <time>2021-03-29T10:00:18.822Z</time>
      </trkpt>
      <trkpt lat="45.20908" lon="6.4687">
        <ele>854</ele>
        <time>2021-03-29T10:00:26.128Z</time>
      </trkpt>
      <trkpt lat="45.20926" lon="6.46862">
        <ele>850</ele>
        <time>2021-03-29T10:00:28.619Z</time>
      </trkpt>
      <trkpt lat="45.2095" lon="6.46846">
        <ele>846</ele>
        <time>2021-03-29T10:00:32.122Z</time>
      </trkpt>
      <trkpt lat="45.20962" lon="6.46833">
        <ele>844</ele>
        <time>2021-03-29T10:00:34.116Z</time>
      </trkpt>
      <trkpt lat="45.20984" lon="6.46792">
        <ele>842</ele>
        <time>2021-03-29T10:00:38.933Z</time>
      </trkpt>
      <trkpt lat="45.20991" lon="6.46766">
        <ele>842</ele>
        <time>2021-03-29T10:00:46.309Z</time>
      </trkpt>
      <trkpt lat="45.21004" lon="6.46686">
        <ele>842</ele>
        <time>2021-03-29T10:01:08.067Z</time>
      </trkpt>
      <trkpt lat="45.21009" lon="6.46682">
        <ele>840</ele>
        <time>2021-03-29T10:01:08.825Z</time>
      </trkpt>
      <trkpt lat="45.21017" lon="6.46682">
        <ele>837</ele>
        <time>2021-03-29T10:01:09.882Z</time>
      </trkpt>
      <trkpt lat="45.21021" lon="6.46686">
        <ele>836</ele>
        <time>2021-03-29T10:01:10.528Z</time>
      </trkpt>
      <trkpt lat="45.21024" lon="6.46699">
        <ele>834</ele>
        <time>2021-03-29T10:01:11.801Z</time>
      </trkpt>
      <trkpt lat="45.21018" lon="6.46745">
        <ele>835</ele>
        <time>2021-03-29T10:01:28.971Z</time>
      </trkpt>
      <trkpt lat="45.21018" lon="6.46784">
        <ele>832</ele>
        <time>2021-03-29T10:01:32.600Z</time>
      </trkpt>
      <trkpt lat="45.21015" lon="6.46822">
        <ele>829</ele>
        <time>2021-03-29T10:01:36.158Z</time>
      </trkpt>
      <trkpt lat="45.20998" lon="6.469">
        <ele>823</ele>
        <time>2021-03-29T10:01:43.756Z</time>
      </trkpt>
      <trkpt lat="45.20987" lon="6.46935">
        <ele>820</ele>
        <time>2021-03-29T10:01:47.323Z</time>
      </trkpt>
      <trkpt lat="45.20987" lon="6.46946">
        <ele>817</ele>
        <time>2021-03-29T10:01:48.347Z</time>
      </trkpt>
      <trkpt lat="45.2099" lon="6.46953">
        <ele>815</ele>
        <time>2021-03-29T10:01:49.109Z</time>
      </trkpt>
      <trkpt lat="45.20998" lon="6.46958">
        <ele>812</ele>
        <time>2021-03-29T10:01:50.264Z</time>
      </trkpt>
      <trkpt lat="45.21002" lon="6.46957">
        <ele>811</ele>
        <time>2021-03-29T10:01:50.800Z</time>
      </trkpt>
      <trkpt lat="45.21017" lon="6.46937">
        <ele>812</ele>
        <time>2021-03-29T10:02:04.213Z</time>
      </trkpt>
      <trkpt lat="45.21033" lon="6.46923">
        <ele>812</ele>
        <time>2021-03-29T10:02:11.283Z</time>
      </trkpt>
      <trkpt lat="45.21107" lon="6.46878">
        <ele>800</ele>
        <time>2021-03-29T10:02:21.917Z</time>
      </trkpt>
      <trkpt lat="45.21125" lon="6.46864">
        <ele>797</ele>
        <time>2021-03-29T10:02:24.629Z</time>
      </trkpt>
      <trkpt lat="45.2117" lon="6.46807">
        <ele>791</ele>
        <time>2021-03-29T10:02:32.595Z</time>
      </trkpt>
      <trkpt lat="45.21188" lon="6.46775">
        <ele>787</ele>
        <time>2021-03-29T10:02:36.406Z</time>
      </trkpt>
      <trkpt lat="45.21193" lon="6.46748">
        <ele>786</ele>
        <time>2021-03-29T10:02:39.110Z</time>
      </trkpt>
      <trkpt lat="45.21189" lon="6.46736">
        <ele>786</ele>
        <time>2021-03-29T10:02:42.628Z</time>
      </trkpt>
      <trkpt lat="45.21146" lon="6.46694">
        <ele>795</ele>
        <time>2021-03-29T10:03:58.362Z</time>
      </trkpt>
      <trkpt lat="45.21139" lon="6.46679">
        <ele>796</ele>
        <time>2021-03-29T10:04:08.646Z</time>
      </trkpt>
      <trkpt lat="45.21138" lon="6.46668">
        <ele>795</ele>
        <time>2021-03-29T10:04:09.679Z</time>
      </trkpt>
      <trkpt lat="45.21142" lon="6.46647">
        <ele>795</ele>
        <time>2021-03-29T10:04:15.444Z</time>
      </trkpt>
      <trkpt lat="45.21155" lon="6.46636">
        <ele>791</ele>
        <time>2021-03-29T10:04:17.443Z</time>
      </trkpt>
      <trkpt lat="45.2118" lon="6.4663">
        <ele>785</ele>
        <time>2021-03-29T10:04:20.792Z</time>
      </trkpt>
      <trkpt lat="45.21192" lon="6.46624">
        <ele>783</ele>
        <time>2021-03-29T10:04:22.472Z</time>
      </trkpt>
      <trkpt lat="45.212" lon="6.46616">
        <ele>782</ele>
        <time>2021-03-29T10:04:23.765Z</time>
      </trkpt>
      <trkpt lat="45.21211" lon="6.46596">
        <ele>782</ele>
        <time>2021-03-29T10:04:30.489Z</time>
      </trkpt>
      <trkpt lat="45.21217" lon="6.46592">
        <ele>781</ele>
        <time>2021-03-29T10:04:31.365Z</time>
      </trkpt>
      <trkpt lat="45.21228" lon="6.46591">
        <ele>779</ele>
        <time>2021-03-29T10:04:32.821Z</time>
      </trkpt>
      <trkpt lat="45.21235" lon="6.46594">
        <ele>778</ele>
        <time>2021-03-29T10:04:33.787Z</time>
      </trkpt>
      <trkpt lat="45.21244" lon="6.46605">
        <ele>775</ele>
        <time>2021-03-29T10:04:35.355Z</time>
      </trkpt>
      <trkpt lat="45.21249" lon="6.46624">
        <ele>772</ele>
        <time>2021-03-29T10:04:37.243Z</time>
      </trkpt>
      <trkpt lat="45.21253" lon="6.46721">
        <ele>769</ele>
        <time>2021-03-29T10:04:47.260Z</time>
      </trkpt>
      <trkpt lat="45.21256" lon="6.46739">
        <ele>769</ele>
        <time>2021-03-29T10:04:52.162Z</time>
      </trkpt>
      <trkpt lat="45.2126" lon="6.46747">
        <ele>769</ele>
        <time>2021-03-29T10:04:54.762Z</time>
      </trkpt>
      <trkpt lat="45.21268" lon="6.46754">
        <ele>767</ele>
        <time>2021-03-29T10:04:56.003Z</time>
      </trkpt>
      <trkpt lat="45.21311" lon="6.46763">
        <ele>762</ele>
        <time>2021-03-29T10:05:01.744Z</time>
      </trkpt>
      <trkpt lat="45.21328" lon="6.46769">
        <ele>759</ele>
        <time>2021-03-29T10:05:04.058Z</time>
      </trkpt>
      <trkpt lat="45.21344" lon="6.46778">
        <ele>757</ele>
        <time>2021-03-29T10:05:06.332Z</time>
      </trkpt>
      <trkpt lat="45.21371" lon="6.46803">
        <ele>754</ele>
        <time>2021-03-29T10:05:10.590Z</time>
      </trkpt>
      <trkpt lat="45.2142" lon="6.46871">
        <ele>746</ele>
        <time>2021-03-29T10:05:19.641Z</time>
      </trkpt>
      <trkpt lat="45.21433" lon="6.46905">
        <ele>745</ele>
        <time>2021-03-29T10:05:23.909Z</time>
      </trkpt>
      <trkpt lat="45.21435" lon="6.46967">
        <ele>743</ele>
        <time>2021-03-29T10:05:30.196Z</time>
      </trkpt>
      <trkpt lat="45.21432" lon="6.46989">
        <ele>742</ele>
        <time>2021-03-29T10:05:32.156Z</time>
      </trkpt>
      <trkpt lat="45.21426" lon="6.47005">
        <ele>741</ele>
        <time>2021-03-29T10:05:33.843Z</time>
      </trkpt>
      <trkpt lat="45.21412" lon="6.47029">
        <ele>739</ele>
        <time>2021-03-29T10:05:36.742Z</time>
      </trkpt>
      <trkpt lat="45.21404" lon="6.47038">
        <ele>738</ele>
        <time>2021-03-29T10:05:38.091Z</time>
      </trkpt>
      <trkpt lat="45.21389" lon="6.47043">
        <ele>738</ele>
        <time>2021-03-29T10:05:43.887Z</time>
      </trkpt>
      <trkpt lat="45.21344" lon="6.47036">
        <ele>741</ele>
        <time>2021-03-29T10:06:17.216Z</time>
      </trkpt>
      <trkpt lat="45.21335" lon="6.4704">
        <ele>741</ele>
        <time>2021-03-29T10:06:20.763Z</time>
      </trkpt>
      <trkpt lat="45.21329" lon="6.47049">
        <ele>740</ele>
        <time>2021-03-29T10:06:21.916Z</time>
      </trkpt>
      <trkpt lat="45.21327" lon="6.47057">
        <ele>739</ele>
        <time>2021-03-29T10:06:22.706Z</time>
      </trkpt>
      <trkpt lat="45.2133" lon="6.47083">
        <ele>735</ele>
        <time>2021-03-29T10:06:25.158Z</time>
      </trkpt>
      <trkpt lat="45.2137" lon="6.47221">
        <ele>733</ele>
        <time>2021-03-29T10:06:45.069Z</time>
      </trkpt>
      <trkpt lat="45.21381" lon="6.47248">
        <ele>733</ele>
        <time>2021-03-29T10:06:53.334Z</time>
      </trkpt>
      <trkpt lat="45.21391" lon="6.47261">
        <ele>732</ele>
        <time>2021-03-29T10:06:55.125Z</time>
      </trkpt>
      <trkpt lat="45.21422" lon="6.47291">
        <ele>726</ele>
        <time>2021-03-29T10:07:00.081Z</time>
      </trkpt>
      <trkpt lat="45.21443" lon="6.47317">
        <ele>723</ele>
        <time>2021-03-29T10:07:03.762Z</time>
      </trkpt>
      <trkpt lat="45.21538" lon="6.47466">
        <ele>716</ele>
        <time>2021-03-29T10:07:23.465Z</time>
      </trkpt>
      <trkpt lat="45.21569" lon="6.4749">
        <ele>717</ele>
        <time>2021-03-29T10:07:41.400Z</time>
      </trkpt>
      <trkpt lat="45.2156" lon="6.47504">
        <ele>718</ele>
        <time>2021-03-29T10:07:51.894Z</time>
      </trkpt>
      <trkpt lat="45.21471" lon="6.47615">
        <ele>727</ele>
        <time>2021-03-29T10:09:25.795Z</time>
      </trkpt>
      <trkpt lat="45.21446" lon="6.47641">
        <ele>728</ele>
        <time>2021-03-29T10:09:42.345Z</time>
      </trkpt>
      <trkpt lat="45.21392" lon="6.47685">
        <ele>727</ele>
        <time>2021-03-29T10:09:54.568Z</time>
      </trkpt>
      <trkpt lat="45.21063" lon="6.47912">
        <ele>730</ele>
        <time>2021-03-29T10:12:23.349Z</time>
      </trkpt>
      <trkpt lat="45.21044" lon="6.47933">
        <ele>730</ele>
        <time>2021-03-29T10:12:32.408Z</time>
      </trkpt>
      <trkpt lat="45.21034" lon="6.4795">
        <ele>730</ele>
        <time>2021-03-29T10:12:38.277Z</time>
      </trkpt>
      <trkpt lat="45.21026" lon="6.47976">
        <ele>730</ele>
        <time>2021-03-29T10:12:45.796Z</time>
      </trkpt>
      <trkpt lat="45.21023" lon="6.48004">
        <ele>731</ele>
        <time>2021-03-29T10:12:58.930Z</time>
      </trkpt>
      <trkpt lat="45.21026" lon="6.48039">
        <ele>733</ele>
        <time>2021-03-29T10:13:19.352Z</time>
      </trkpt>
      <trkpt lat="45.21066" lon="6.48221">
        <ele>739</ele>
        <time>2021-03-29T10:14:44.717Z</time>
      </trkpt>
      <trkpt lat="45.21073" lon="6.48301">
        <ele>742</ele>
        <time>2021-03-29T10:15:22.777Z</time>
      </trkpt>
      <trkpt lat="45.21075" lon="6.48404">
        <ele>750</ele>
        <time>2021-03-29T10:16:41.630Z</time>
      </trkpt>
      <trkpt lat="45.21073" lon="6.48472">
        <ele>752</ele>
        <time>2021-03-29T10:17:10.818Z</time>
      </trkpt>
      <trkpt lat="45.21064" lon="6.4851">
        <ele>752</ele>
        <time>2021-03-29T10:17:21.443Z</time>
      </trkpt>
      <trkpt lat="45.21031" lon="6.48604">
        <ele>752</ele>
        <time>2021-03-29T10:17:49.276Z</time>
      </trkpt>
      <trkpt lat="45.21022" lon="6.48636">
        <ele>753</ele>
        <time>2021-03-29T10:18:03.941Z</time>
      </trkpt>
      <trkpt lat="45.21016" lon="6.48673">
        <ele>753</ele>
        <time>2021-03-29T10:18:14.002Z</time>
      </trkpt>
      <trkpt lat="45.21016" lon="6.48706">
        <ele>754</ele>
        <time>2021-03-29T10:18:28.434Z</time>
      </trkpt>
      <trkpt lat="45.21022" lon="6.48823">
        <ele>755</ele>
        <time>2021-03-29T10:19:03.397Z</time>
      </trkpt>
      <trkpt lat="45.21032" lon="6.48898">
        <ele>759</ele>
        <time>2021-03-29T10:19:45.494Z</time>
      </trkpt>
      <trkpt lat="45.21058" lon="6.49027">
        <ele>762</ele>
        <time>2021-03-29T10:20:35.626Z</time>
      </trkpt>
      <trkpt lat="45.21069" lon="6.49091">
        <ele>761</ele>
        <time>2021-03-29T10:20:44.161Z</time>
      </trkpt>
      <trkpt lat="45.21073" lon="6.49133">
        <ele>759</ele>
        <time>2021-03-29T10:20:48.105Z</time>
      </trkpt>
      <trkpt lat="45.21095" lon="6.49909">
        <ele>777</ele>
        <time>2021-03-29T10:25:42.692Z</time>
      </trkpt>
      <trkpt lat="45.21123" lon="6.50445">
        <ele>791</ele>
        <time>2021-03-29T10:29:18.069Z</time>
      </trkpt>
      <trkpt lat="45.21126" lon="6.50565">
        <ele>795</ele>
        <time>2021-03-29T10:30:12.738Z</time>
      </trkpt>
      <trkpt lat="45.21114" lon="6.50905">
        <ele>818</ele>
        <time>2021-03-29T10:33:58.336Z</time>
      </trkpt>
      <trkpt lat="45.21108" lon="6.50956">
        <ele>820</ele>
        <time>2021-03-29T10:34:23.091Z</time>
      </trkpt>
      <trkpt lat="45.21086" lon="6.51048">
        <ele>820</ele>
        <time>2021-03-29T10:34:48.838Z</time>
      </trkpt>
      <trkpt lat="45.21018" lon="6.51242">
        <ele>840</ele>
        <time>2021-03-29T10:38:22.847Z</time>
      </trkpt>
      <trkpt lat="45.21011" lon="6.51271">
        <ele>837</ele>
        <time>2021-03-29T10:38:25.700Z</time>
      </trkpt>
      <trkpt lat="45.20982" lon="6.51522">
        <ele>836</ele>
        <time>2021-03-29T10:39:27.797Z</time>
      </trkpt>
      <trkpt lat="45.20975" lon="6.51562">
        <ele>839</ele>
        <time>2021-03-29T10:39:57.151Z</time>
      </trkpt>
      <trkpt lat="45.20934" lon="6.51679">
        <ele>838</ele>
        <time>2021-03-29T10:40:16.457Z</time>
      </trkpt>
      <trkpt lat="45.20926" lon="6.51714">
        <ele>834</ele>
        <time>2021-03-29T10:40:19.882Z</time>
      </trkpt>
      <trkpt lat="45.20928" lon="6.51821">
        <ele>834</ele>
        <time>2021-03-29T10:40:48.249Z</time>
      </trkpt>
      <trkpt lat="45.20924" lon="6.51853">
        <ele>837</ele>
        <time>2021-03-29T10:41:20.352Z</time>
      </trkpt>
      <trkpt lat="45.20912" lon="6.51888">
        <ele>841</ele>
        <time>2021-03-29T10:42:00.141Z</time>
      </trkpt>
      <trkpt lat="45.20837" lon="6.52055">
        <ele>841</ele>
        <time>2021-03-29T10:42:52.627Z</time>
      </trkpt>
      <trkpt lat="45.20819" lon="6.52105">
        <ele>845</ele>
        <time>2021-03-29T10:43:31.750Z</time>
      </trkpt>
      <trkpt lat="45.20758" lon="6.52565">
        <ele>842</ele>
        <time>2021-03-29T10:44:42.550Z</time>
      </trkpt>
      <trkpt lat="45.20782" lon="6.53021">
        <ele>847</ele>
        <time>2021-03-29T10:47:03.821Z</time>
      </trkpt>
      <trkpt lat="45.20777" lon="6.5308">
        <ele>848</ele>
        <time>2021-03-29T10:47:23.981Z</time>
      </trkpt>
      <trkpt lat="45.20752" lon="6.53192">
        <ele>849</ele>
        <time>2021-03-29T10:47:58.992Z</time>
      </trkpt>
      <trkpt lat="45.2075" lon="6.5321">
        <ele>849</ele>
        <time>2021-03-29T10:48:03.822Z</time>
      </trkpt>
      <trkpt lat="45.20769" lon="6.53534">
        <ele>867</ele>
        <time>2021-03-29T10:51:09.204Z</time>
      </trkpt>
      <trkpt lat="45.20761" lon="6.53612">
        <ele>869</ele>
        <time>2021-03-29T10:51:40.378Z</time>
      </trkpt>
      <trkpt lat="45.20733" lon="6.53784">
        <ele>883</ele>
        <time>2021-03-29T10:53:59.017Z</time>
      </trkpt>
      <trkpt lat="45.20707" lon="6.53918">
        <ele>896</ele>
        <time>2021-03-29T10:56:19.720Z</time>
      </trkpt>
      <trkpt lat="45.20705" lon="6.53955">
        <ele>896</ele>
        <time>2021-03-29T10:56:29.555Z</time>
      </trkpt>
      <trkpt lat="45.20711" lon="6.54082">
        <ele>895</ele>
        <time>2021-03-29T10:56:48.291Z</time>
      </trkpt>
      <trkpt lat="45.20699" lon="6.54208">
        <ele>886</ele>
        <time>2021-03-29T10:57:00.124Z</time>
      </trkpt>
      <trkpt lat="45.207" lon="6.54241">
        <ele>886</ele>
        <time>2021-03-29T10:57:08.878Z</time>
      </trkpt>
      <trkpt lat="45.20736" lon="6.54423">
        <ele>876</ele>
        <time>2021-03-29T10:57:26.470Z</time>
      </trkpt>
      <trkpt lat="45.20748" lon="6.54498">
        <ele>875</ele>
        <time>2021-03-29T10:57:36.803Z</time>
      </trkpt>
      <trkpt lat="45.2075" lon="6.54542">
        <ele>877</ele>
        <time>2021-03-29T10:57:59.362Z</time>
      </trkpt>
      <trkpt lat="45.20741" lon="6.54725">
        <ele>880</ele>
        <time>2021-03-29T10:59:01.108Z</time>
      </trkpt>
      <trkpt lat="45.20726" lon="6.5494">
        <ele>889</ele>
        <time>2021-03-29T11:00:47.597Z</time>
      </trkpt>
      <trkpt lat="45.20709" lon="6.55012">
        <ele>894</ele>
        <time>2021-03-29T11:01:36.796Z</time>
      </trkpt>
      <trkpt lat="45.20712" lon="6.55034">
        <ele>896</ele>
        <time>2021-03-29T11:01:57.666Z</time>
      </trkpt>
      <trkpt lat="45.20705" lon="6.55041">
        <ele>895</ele>
        <time>2021-03-29T11:01:58.797Z</time>
      </trkpt>
      <trkpt lat="45.20704" lon="6.55051">
        <ele>896</ele>
        <time>2021-03-29T11:02:09.122Z</time>
      </trkpt>
      <trkpt lat="45.20707" lon="6.55059">
        <ele>898</ele>
        <time>2021-03-29T11:02:18.386Z</time>
      </trkpt>
      <trkpt lat="45.20711" lon="6.55063">
        <ele>899</ele>
        <time>2021-03-29T11:02:25.486Z</time>
      </trkpt>
      <trkpt lat="45.20716" lon="6.55064">
        <ele>900</ele>
        <time>2021-03-29T11:02:32.812Z</time>
      </trkpt>
      <trkpt lat="45.20667" lon="6.55453">
        <ele>916</ele>
        <time>2021-03-29T11:05:45.362Z</time>
      </trkpt>
      <trkpt lat="45.20661" lon="6.55529">
        <ele>920</ele>
        <time>2021-03-29T11:06:27.493Z</time>
      </trkpt>
      <trkpt lat="45.20665" lon="6.55577">
        <ele>917</ele>
        <time>2021-03-29T11:06:31.992Z</time>
      </trkpt>
      <trkpt lat="45.2069" lon="6.55695">
        <ele>922</ele>
        <time>2021-03-29T11:07:32.084Z</time>
      </trkpt>
      <trkpt lat="45.20706" lon="6.55792">
        <ele>932</ele>
        <time>2021-03-29T11:09:13.924Z</time>
      </trkpt>
      <trkpt lat="45.20704" lon="6.55825">
        <ele>935</ele>
        <time>2021-03-29T11:09:45.554Z</time>
      </trkpt>
      <trkpt lat="45.20682" lon="6.55981">
        <ele>937</ele>
        <time>2021-03-29T11:10:35.956Z</time>
      </trkpt>
      <trkpt lat="45.20685" lon="6.56045">
        <ele>938</ele>
        <time>2021-03-29T11:10:57.277Z</time>
      </trkpt>
      <trkpt lat="45.20705" lon="6.56104">
        <ele>942</ele>
        <time>2021-03-29T11:11:37.229Z</time>
      </trkpt>
      <trkpt lat="45.20711" lon="6.56139">
        <ele>941</ele>
        <time>2021-03-29T11:11:41.100Z</time>
      </trkpt>
      <trkpt lat="45.20714" lon="6.56163">
        <ele>940</ele>
        <time>2021-03-29T11:11:43.320Z</time>
      </trkpt>
      <trkpt lat="45.20715" lon="6.56213">
        <ele>938</ele>
        <time>2021-03-29T11:11:47.931Z</time>
      </trkpt>
      <trkpt lat="45.20736" lon="6.56307">
        <ele>934</ele>
        <time>2021-03-29T11:11:56.961Z</time>
      </trkpt>
      <trkpt lat="45.20742" lon="6.56344">
        <ele>931</ele>
        <time>2021-03-29T11:12:00.495Z</time>
      </trkpt>
      <trkpt lat="45.20744" lon="6.56404">
        <ele>924</ele>
        <time>2021-03-29T11:12:06.085Z</time>
      </trkpt>
      <trkpt lat="45.20741" lon="6.56424">
        <ele>923</ele>
        <time>2021-03-29T11:12:07.988Z</time>
      </trkpt>
      <trkpt lat="45.20713" lon="6.56524">
        <ele>925</ele>
        <time>2021-03-29T11:12:45.594Z</time>
      </trkpt>
      <trkpt lat="45.20705" lon="6.56568">
        <ele>927</ele>
        <time>2021-03-29T11:13:08.526Z</time>
      </trkpt>
      <trkpt lat="45.20701" lon="6.56605">
        <ele>928</ele>
        <time>2021-03-29T11:13:23.726Z</time>
      </trkpt>
      <trkpt lat="45.20702" lon="6.56676">
        <ele>927</ele>
        <time>2021-03-29T11:13:33.095Z</time>
      </trkpt>
      <trkpt lat="45.20693" lon="6.56833">
        <ele>924</ele>
        <time>2021-03-29T11:13:52.291Z</time>
      </trkpt>
      <trkpt lat="45.20524" lon="6.57841">
        <ele>923</ele>
        <time>2021-03-29T11:18:21.260Z</time>
      </trkpt>
      <trkpt lat="45.2051" lon="6.57912">
        <ele>923</ele>
        <time>2021-03-29T11:18:40.801Z</time>
      </trkpt>
      <trkpt lat="45.20476" lon="6.58023">
        <ele>929</ele>
        <time>2021-03-29T11:19:45.526Z</time>
      </trkpt>
      <trkpt lat="45.20349" lon="6.58337">
        <ele>936</ele>
        <time>2021-03-29T11:21:53.704Z</time>
      </trkpt>
      <trkpt lat="45.20319" lon="6.58442">
        <ele>936</ele>
        <time>2021-03-29T11:22:23.735Z</time>
      </trkpt>
      <trkpt lat="45.20254" lon="6.58691">
        <ele>941</ele>
        <time>2021-03-29T11:23:56.928Z</time>
      </trkpt>
      <trkpt lat="45.20223" lon="6.58768">
        <ele>945</ele>
        <time>2021-03-29T11:24:42.184Z</time>
      </trkpt>
      <trkpt lat="45.20197" lon="6.58821">
        <ele>948</ele>
        <time>2021-03-29T11:25:15.602Z</time>
      </trkpt>
      <trkpt lat="45.20179" lon="6.58878">
        <ele>949</ele>
        <time>2021-03-29T11:25:36.509Z</time>
      </trkpt>
      <trkpt lat="45.20166" lon="6.58943">
        <ele>949</ele>
        <time>2021-03-29T11:25:54.418Z</time>
      </trkpt>
      <trkpt lat="45.20149" lon="6.59112">
        <ele>955</ele>
        <time>2021-03-29T11:27:13.476Z</time>
      </trkpt>
      <trkpt lat="45.20135" lon="6.59199">
        <ele>958</ele>
        <time>2021-03-29T11:27:54.224Z</time>
      </trkpt>
      <trkpt lat="45.20107" lon="6.59301">
        <ele>959</ele>
        <time>2021-03-29T11:28:27.149Z</time>
      </trkpt>
      <trkpt lat="45.20047" lon="6.59466">
        <ele>974</ele>
        <time>2021-03-29T11:30:56.446Z</time>
      </trkpt>
      <trkpt lat="45.20028" lon="6.59526">
        <ele>978</ele>
        <time>2021-03-29T11:31:36.447Z</time>
      </trkpt>
      <trkpt lat="45.20023" lon="6.59551">
        <ele>977</ele>
        <time>2021-03-29T11:31:38.886Z</time>
      </trkpt>
      <trkpt lat="45.20014" lon="6.59609">
        <ele>974</ele>
        <time>2021-03-29T11:31:44.414Z</time>
      </trkpt>
      <trkpt lat="45.20011" lon="6.59647">
        <ele>972</ele>
        <time>2021-03-29T11:31:47.973Z</time>
      </trkpt>
      <trkpt lat="45.20012" lon="6.59703">
        <ele>970</ele>
        <time>2021-03-29T11:31:53.408Z</time>
      </trkpt>
      <trkpt lat="45.20022" lon="6.59794">
        <ele>966</ele>
        <time>2021-03-29T11:32:01.573Z</time>
      </trkpt>
      <trkpt lat="45.20019" lon="6.59849">
        <ele>966</ele>
        <time>2021-03-29T11:32:16.195Z</time>
      </trkpt>
      <trkpt lat="45.20012" lon="6.59886">
        <ele>965</ele>
        <time>2021-03-29T11:32:20.407Z</time>
      </trkpt>
      <trkpt lat="45.20003" lon="6.59917">
        <ele>964</ele>
        <time>2021-03-29T11:32:23.913Z</time>
      </trkpt>
      <trkpt lat="45.19992" lon="6.59943">
        <ele>967</ele>
        <time>2021-03-29T11:32:54.918Z</time>
      </trkpt>
      <trkpt lat="45.19973" lon="6.59981">
        <ele>972</ele>
        <time>2021-03-29T11:33:42.556Z</time>
      </trkpt>
      <trkpt lat="45.19896" lon="6.60111">
        <ele>994</ele>
        <time>2021-03-29T11:36:36.185Z</time>
      </trkpt>
      <trkpt lat="45.19881" lon="6.60152">
        <ele>1003</ele>
        <time>2021-03-29T11:37:23.417Z</time>
      </trkpt>
      <trkpt lat="45.19875" lon="6.60186">
        <ele>1001</ele>
        <time>2021-03-29T11:37:26.679Z</time>
      </trkpt>
      <trkpt lat="45.19873" lon="6.60214">
        <ele>997</ele>
        <time>2021-03-29T11:37:29.299Z</time>
      </trkpt>
      <trkpt lat="45.19877" lon="6.60264">
        <ele>987</ele>
        <time>2021-03-29T11:37:33.983Z</time>
      </trkpt>
      <trkpt lat="45.19895" lon="6.60349">
        <ele>982</ele>
        <time>2021-03-29T11:37:42.244Z</time>
      </trkpt>
      <trkpt lat="45.19898" lon="6.60376">
        <ele>982</ele>
        <time>2021-03-29T11:37:49.489Z</time>
      </trkpt>
      <trkpt lat="45.19903" lon="6.60649">
        <ele>990</ele>
        <time>2021-03-29T11:39:46.394Z</time>
      </trkpt>
      <trkpt lat="45.199" lon="6.60711">
        <ele>992</ele>
        <time>2021-03-29T11:40:14.403Z</time>
      </trkpt>
      <trkpt lat="45.19869" lon="6.61008">
        <ele>1007</ele>
        <time>2021-03-29T11:42:55.640Z</time>
      </trkpt>
      <trkpt lat="45.19864" lon="6.61185">
        <ele>1018</ele>
        <time>2021-03-29T11:44:45.081Z</time>
      </trkpt>
      <trkpt lat="45.19857" lon="6.61243">
        <ele>1019</ele>
        <time>2021-03-29T11:45:05.102Z</time>
      </trkpt>
      <trkpt lat="45.19846" lon="6.61281">
        <ele>1017</ele>
        <time>2021-03-29T11:45:08.925Z</time>
      </trkpt>
      <trkpt lat="45.19832" lon="6.61318">
        <ele>1013</ele>
        <time>2021-03-29T11:45:12.834Z</time>
      </trkpt>
      <trkpt lat="45.19801" lon="6.61387">
        <ele>1024</ele>
        <time>2021-03-29T11:46:36.500Z</time>
      </trkpt>
      <trkpt lat="45.19783" lon="6.61437">
        <ele>1028</ele>
        <time>2021-03-29T11:47:15.623Z</time>
      </trkpt>
      <trkpt lat="45.19749" lon="6.61573">
        <ele>1021</ele>
        <time>2021-03-29T11:47:29.055Z</time>
      </trkpt>
      <trkpt lat="45.19741" lon="6.61596">
        <ele>1025</ele>
        <time>2021-03-29T11:47:55.279Z</time>
      </trkpt>
      <trkpt lat="45.19697" lon="6.61674">
        <ele>1033</ele>
        <time>2021-03-29T11:49:14.698Z</time>
      </trkpt>
      <trkpt lat="45.19637" lon="6.61761">
        <ele>1032</ele>
        <time>2021-03-29T11:49:32.501Z</time>
      </trkpt>
      <trkpt lat="45.19621" lon="6.61796">
        <ele>1036</ele>
        <time>2021-03-29T11:50:15.158Z</time>
      </trkpt>
      <trkpt lat="45.19605" lon="6.61934">
        <ele>1030</ele>
        <time>2021-03-29T11:50:27.631Z</time>
      </trkpt>
      <trkpt lat="45.19604" lon="6.61963">
        <ele>1029</ele>
        <time>2021-03-29T11:50:30.492Z</time>
      </trkpt>
      <trkpt lat="45.19606" lon="6.61987">
        <ele>1027</ele>
        <time>2021-03-29T11:50:32.742Z</time>
      </trkpt>
      <trkpt lat="45.19621" lon="6.62059">
        <ele>1025</ele>
        <time>2021-03-29T11:50:40.937Z</time>
      </trkpt>
      <trkpt lat="45.19622" lon="6.62089">
        <ele>1025</ele>
        <time>2021-03-29T11:50:48.899Z</time>
      </trkpt>
      <trkpt lat="45.19615" lon="6.62107">
        <ele>1026</ele>
        <time>2021-03-29T11:50:59.785Z</time>
      </trkpt>
      <trkpt lat="45.196" lon="6.62118">
        <ele>1028</ele>
        <time>2021-03-29T11:51:19.922Z</time>
      </trkpt>
      <trkpt lat="45.19591" lon="6.62134">
        <ele>1028</ele>
        <time>2021-03-29T11:51:25.349Z</time>
      </trkpt>
      <trkpt lat="45.19544" lon="6.6232">
        <ele>1034</ele>
        <time>2021-03-29T11:52:51.883Z</time>
      </trkpt>
      <trkpt lat="45.19511" lon="6.62593">
        <ele>1032</ele>
        <time>2021-03-29T11:53:33.150Z</time>
      </trkpt>
      <trkpt lat="45.19484" lon="6.62735">
        <ele>1033</ele>
        <time>2021-03-29T11:54:15.918Z</time>
      </trkpt>
      <trkpt lat="45.19447" lon="6.6289">
        <ele>1034</ele>
        <time>2021-03-29T11:55:03.043Z</time>
      </trkpt>
      <trkpt lat="45.19442" lon="6.629">
        <ele>1034</ele>
        <time>2021-03-29T11:55:06.293Z</time>
      </trkpt>
      <trkpt lat="45.19423" lon="6.62916">
        <ele>1036</ele>
        <time>2021-03-29T11:55:26.079Z</time>
      </trkpt>
      <trkpt lat="45.1942" lon="6.62929">
        <ele>1036</ele>
        <time>2021-03-29T11:55:29.705Z</time>
      </trkpt>
      <trkpt lat="45.19421" lon="6.62958">
        <ele>1036</ele>
        <time>2021-03-29T11:55:37.402Z</time>
      </trkpt>
      <trkpt lat="45.19399" lon="6.63063">
        <ele>1039</ele>
        <time>2021-03-29T11:56:22.491Z</time>
      </trkpt>
      <trkpt lat="45.19387" lon="6.63115">
        <ele>1043</ele>
        <time>2021-03-29T11:57:01.636Z</time>
      </trkpt>
      <trkpt lat="45.1936" lon="6.63205">
        <ele>1052</ele>
        <time>2021-03-29T11:58:37.668Z</time>
      </trkpt>
      <trkpt lat="45.19341" lon="6.63286">
        <ele>1055</ele>
        <time>2021-03-29T11:59:17.204Z</time>
      </trkpt>
      <trkpt lat="45.19274" lon="6.63682">
        <ele>1063</ele>
        <time>2021-03-29T12:01:42.181Z</time>
      </trkpt>
      <trkpt lat="45.19254" lon="6.63752">
        <ele>1056</ele>
        <time>2021-03-29T12:01:49.212Z</time>
      </trkpt>
      <trkpt lat="45.19243" lon="6.6378">
        <ele>1055</ele>
        <time>2021-03-29T12:01:52.505Z</time>
      </trkpt>
      <trkpt lat="45.1922" lon="6.63822">
        <ele>1053</ele>
        <time>2021-03-29T12:01:57.550Z</time>
      </trkpt>
      <trkpt lat="45.19174" lon="6.63891">
        <ele>1051</ele>
        <time>2021-03-29T12:02:08.782Z</time>
      </trkpt>
      <trkpt lat="45.19118" lon="6.63966">
        <ele>1053</ele>
        <time>2021-03-29T12:02:46.791Z</time>
      </trkpt>
      <trkpt lat="45.191" lon="6.63994">
        <ele>1053</ele>
        <time>2021-03-29T12:02:56.838Z</time>
      </trkpt>
      <trkpt lat="45.19085" lon="6.64026">
        <ele>1052</ele>
        <time>2021-03-29T12:03:01.069Z</time>
      </trkpt>
      <trkpt lat="45.1907" lon="6.64081">
        <ele>1051</ele>
        <time>2021-03-29T12:03:08.498Z</time>
      </trkpt>
      <trkpt lat="45.19064" lon="6.64142">
        <ele>1052</ele>
        <time>2021-03-29T12:03:29.193Z</time>
      </trkpt>
      <trkpt lat="45.19057" lon="6.64349">
        <ele>1052</ele>
        <time>2021-03-29T12:04:24.133Z</time>
      </trkpt>
      <trkpt lat="45.19059" lon="6.64424">
        <ele>1051</ele>
        <time>2021-03-29T12:04:34.166Z</time>
      </trkpt>
      <trkpt lat="45.19062" lon="6.64452">
        <ele>1052</ele>
        <time>2021-03-29T12:04:47.303Z</time>
      </trkpt>
      <trkpt lat="45.19105" lon="6.64676">
        <ele>1056</ele>
        <time>2021-03-29T12:06:06.609Z</time>
      </trkpt>
      <trkpt lat="45.19106" lon="6.64719">
        <ele>1055</ele>
        <time>2021-03-29T12:06:11.536Z</time>
      </trkpt>
      <trkpt lat="45.19112" lon="6.64727">
        <ele>1055</ele>
        <time>2021-03-29T12:06:14.634Z</time>
      </trkpt>
      <trkpt lat="45.19122" lon="6.64759">
        <ele>1054</ele>
        <time>2021-03-29T12:06:18.356Z</time>
      </trkpt>
      <trkpt lat="45.1913" lon="6.64816">
        <ele>1055</ele>
        <time>2021-03-29T12:06:38.202Z</time>
      </trkpt>
      <trkpt lat="45.19258" lon="6.65526">
        <ele>1057</ele>
        <time>2021-03-29T12:09:59.628Z</time>
      </trkpt>
      <trkpt lat="45.19279" lon="6.65625">
        <ele>1058</ele>
        <time>2021-03-29T12:10:30.977Z</time>
      </trkpt>
      <trkpt lat="45.19301" lon="6.65694">
        <ele>1058</ele>
        <time>2021-03-29T12:10:51.053Z</time>
      </trkpt>
      <trkpt lat="45.19353" lon="6.65837">
        <ele>1060</ele>
        <time>2021-03-29T12:11:41.930Z</time>
      </trkpt>
      <trkpt lat="45.19405" lon="6.65954">
        <ele>1059</ele>
        <time>2021-03-29T12:12:02.536Z</time>
      </trkpt>
      <trkpt lat="45.19415" lon="6.65972">
        <ele>1059</ele>
        <time>2021-03-29T12:12:08.612Z</time>
      </trkpt>
      <trkpt lat="45.19558" lon="6.66178">
        <ele>1058</ele>
        <time>2021-03-29T12:13:19.904Z</time>
      </trkpt>
      <trkpt lat="45.19792" lon="6.66482">
        <ele>1061</ele>
        <time>2021-03-29T12:15:30.560Z</time>
      </trkpt>
      <trkpt lat="45.19807" lon="6.66511">
        <ele>1061</ele>
        <time>2021-03-29T12:15:40.096Z</time>
      </trkpt>
      <trkpt lat="45.19821" lon="6.66552">
        <ele>1062</ele>
        <time>2021-03-29T12:15:56.994Z</time>
      </trkpt>
      <trkpt lat="45.19864" lon="6.66695">
        <ele>1068</ele>
        <time>2021-03-29T12:17:11.378Z</time>
      </trkpt>
      <trkpt lat="45.19885" lon="6.66732">
        <ele>1068</ele>
        <time>2021-03-29T12:17:23.971Z</time>
      </trkpt>
      <trkpt lat="45.19976" lon="6.66827">
        <ele>1065</ele>
        <time>2021-03-29T12:17:43.613Z</time>
      </trkpt>
      <trkpt lat="45.1998" lon="6.66837">
        <ele>1065</ele>
        <time>2021-03-29T12:17:46.661Z</time>
      </trkpt>
      <trkpt lat="45.19977" lon="6.66857">
        <ele>1066</ele>
        <time>2021-03-29T12:17:57.519Z</time>
      </trkpt>
      <trkpt lat="45.19981" lon="6.66864">
        <ele>1066</ele>
        <time>2021-03-29T12:17:59.907Z</time>
      </trkpt>
      <trkpt lat="45.19991" lon="6.66866">
        <ele>1064</ele>
        <time>2021-03-29T12:18:01.241Z</time>
      </trkpt>
      <trkpt lat="45.19998" lon="6.66855">
        <ele>1063</ele>
        <time>2021-03-29T12:18:02.621Z</time>
      </trkpt>
      <trkpt lat="45.20012" lon="6.6686">
        <ele>1063</ele>
        <time>2021-03-29T12:18:08.052Z</time>
      </trkpt>
      <trkpt lat="45.20105" lon="6.6695">
        <ele>1064</ele>
        <time>2021-03-29T12:18:54.145Z</time>
      </trkpt>
      <trkpt lat="45.2017" lon="6.67025">
        <ele>1065</ele>
        <time>2021-03-29T12:19:29.527Z</time>
      </trkpt>
      <trkpt lat="45.20219" lon="6.67103">
        <ele>1065</ele>
        <time>2021-03-29T12:19:57.224Z</time>
      </trkpt>
      <trkpt lat="45.20215" lon="6.67114">
        <ele>1066</ele>
        <time>2021-03-29T12:20:07.178Z</time>
      </trkpt>
      <trkpt lat="45.20216" lon="6.6712">
        <ele>1066</ele>
        <time>2021-03-29T12:20:08.812Z</time>
      </trkpt>
      <trkpt lat="45.20219" lon="6.67125">
        <ele>1066</ele>
        <time>2021-03-29T12:20:10.552Z</time>
      </trkpt>
      <trkpt lat="45.20227" lon="6.6713">
        <ele>1066</ele>
        <time>2021-03-29T12:20:13.841Z</time>
      </trkpt>
      <trkpt lat="45.20235" lon="6.67124">
        <ele>1066</ele>
        <time>2021-03-29T12:20:17.244Z</time>
      </trkpt>
      <trkpt lat="45.20237" lon="6.67119">
        <ele>1066</ele>
        <time>2021-03-29T12:20:18.768Z</time>
      </trkpt>
      <trkpt lat="45.20235" lon="6.67103">
        <ele>1065</ele>
        <time>2021-03-29T12:20:20.281Z</time>
      </trkpt>
      <trkpt lat="45.20239" lon="6.67097">
        <ele>1065</ele>
        <time>2021-03-29T12:20:22.470Z</time>
      </trkpt>
      <trkpt lat="45.20261" lon="6.67067">
        <ele>1064</ele>
        <time>2021-03-29T12:20:27.438Z</time>
      </trkpt>
      <trkpt lat="45.20318" lon="6.67002">
        <ele>1067</ele>
        <time>2021-03-29T12:21:11.504Z</time>
      </trkpt>
      <trkpt lat="45.20325" lon="6.6701">
        <ele>1067</ele>
        <time>2021-03-29T12:21:14.885Z</time>
      </trkpt>
      <trkpt lat="45.20353" lon="6.67071">
        <ele>1066</ele>
        <time>2021-03-29T12:21:24.547Z</time>
      </trkpt>
      <trkpt lat="45.20387" lon="6.67124">
        <ele>1067</ele>
        <time>2021-03-29T12:21:47.753Z</time>
      </trkpt>
      <trkpt lat="45.20456" lon="6.67212">
        <ele>1069</ele>
        <time>2021-03-29T12:22:31.236Z</time>
      </trkpt>
      <trkpt lat="45.20485" lon="6.67255">
        <ele>1068</ele>
        <time>2021-03-29T12:22:38.750Z</time>
      </trkpt>
      <trkpt lat="45.20512" lon="6.67284">
        <ele>1070</ele>
        <time>2021-03-29T12:23:02.428Z</time>
      </trkpt>
      <trkpt lat="45.20547" lon="6.67313">
        <ele>1076</ele>
        <time>2021-03-29T12:24:01.231Z</time>
      </trkpt>
      <trkpt lat="45.20559" lon="6.67326">
        <ele>1077</ele>
        <time>2021-03-29T12:24:12.343Z</time>
      </trkpt>
      <trkpt lat="45.20567" lon="6.6734">
        <ele>1078</ele>
        <time>2021-03-29T12:24:22.634Z</time>
      </trkpt>
      <trkpt lat="45.20591" lon="6.67401">
        <ele>1081</ele>
        <time>2021-03-29T12:24:57.514Z</time>
      </trkpt>
      <trkpt lat="45.20636" lon="6.67482">
        <ele>1100</ele>
        <time>2021-03-29T12:26:42.963Z</time>
      </trkpt>
      <trkpt lat="45.20686" lon="6.67631">
        <ele>1102</ele>
        <time>2021-03-29T12:27:34.883Z</time>
      </trkpt>
      <trkpt lat="45.20697" lon="6.67657">
        <ele>1105</ele>
        <time>2021-03-29T12:28:05.886Z</time>
      </trkpt>
      <trkpt lat="45.20719" lon="6.67698">
        <ele>1110</ele>
        <time>2021-03-29T12:28:58.569Z</time>
      </trkpt>
      <trkpt lat="45.20746" lon="6.67779">
        <ele>1103</ele>
        <time>2021-03-29T12:29:06.909Z</time>
      </trkpt>
      <trkpt lat="45.20776" lon="6.67859">
        <ele>1107</ele>
        <time>2021-03-29T12:29:52.701Z</time>
      </trkpt>
      <trkpt lat="45.20801" lon="6.67917">
        <ele>1112</ele>
        <time>2021-03-29T12:30:41.649Z</time>
      </trkpt>
      <trkpt lat="45.20829" lon="6.67972">
        <ele>1117</ele>
        <time>2021-03-29T12:31:30.603Z</time>
      </trkpt>
      <trkpt lat="45.20914" lon="6.68114">
        <ele>1134</ele>
        <time>2021-03-29T12:34:30.824Z</time>
      </trkpt>
      <trkpt lat="45.20958" lon="6.68221">
        <ele>1144</ele>
        <time>2021-03-29T12:36:10.334Z</time>
      </trkpt>
      <trkpt lat="45.20965" lon="6.68247">
        <ele>1146</ele>
        <time>2021-03-29T12:36:29.896Z</time>
      </trkpt>
      <trkpt lat="45.20969" lon="6.68329">
        <ele>1143</ele>
        <time>2021-03-29T12:36:37.793Z</time>
      </trkpt>
      <trkpt lat="45.20979" lon="6.68357">
        <ele>1143</ele>
        <time>2021-03-29T12:36:46.113Z</time>
      </trkpt>
      <trkpt lat="45.21009" lon="6.68418">
        <ele>1144</ele>
        <time>2021-03-29T12:37:10.003Z</time>
      </trkpt>
      <trkpt lat="45.21055" lon="6.685">
        <ele>1151</ele>
        <time>2021-03-29T12:38:18.752Z</time>
      </trkpt>
      <trkpt lat="45.21114" lon="6.68559">
        <ele>1160</ele>
        <time>2021-03-29T12:39:51.735Z</time>
      </trkpt>
      <trkpt lat="45.21126" lon="6.68574">
        <ele>1161</ele>
        <time>2021-03-29T12:40:03.194Z</time>
      </trkpt>
      <trkpt lat="45.21159" lon="6.6863">
        <ele>1166</ele>
        <time>2021-03-29T12:40:52.177Z</time>
      </trkpt>
      <trkpt lat="45.21269" lon="6.68931">
        <ele>1182</ele>
        <time>2021-03-29T12:43:48.971Z</time>
      </trkpt>
      <trkpt lat="45.21284" lon="6.6898">
        <ele>1187</ele>
        <time>2021-03-29T12:44:43.120Z</time>
      </trkpt>
      <trkpt lat="45.21286" lon="6.68999">
        <ele>1188</ele>
        <time>2021-03-29T12:44:53.674Z</time>
      </trkpt>
      <trkpt lat="45.21288" lon="6.69003">
        <ele>1188</ele>
        <time>2021-03-29T12:44:54.974Z</time>
      </trkpt>
      <trkpt lat="45.21295" lon="6.69006">
        <ele>1188</ele>
        <time>2021-03-29T12:44:57.725Z</time>
      </trkpt>
      <trkpt lat="45.21302" lon="6.69002">
        <ele>1189</ele>
        <time>2021-03-29T12:45:08.531Z</time>
      </trkpt>
      <trkpt lat="45.21319" lon="6.69006">
        <ele>1191</ele>
        <time>2021-03-29T12:45:28.516Z</time>
      </trkpt>
      <trkpt lat="45.21392" lon="6.69087">
        <ele>1192</ele>
        <time>2021-03-29T12:46:07.194Z</time>
      </trkpt>
      <trkpt lat="45.21417" lon="6.69118">
        <ele>1194</ele>
        <time>2021-03-29T12:46:30.600Z</time>
      </trkpt>
      <trkpt lat="45.21428" lon="6.69141">
        <ele>1196</ele>
        <time>2021-03-29T12:46:50.162Z</time>
      </trkpt>
      <trkpt lat="45.21433" lon="6.69167">
        <ele>1195</ele>
        <time>2021-03-29T12:46:52.732Z</time>
      </trkpt>
      <trkpt lat="45.21434" lon="6.69195">
        <ele>1195</ele>
        <time>2021-03-29T12:47:00.162Z</time>
      </trkpt>
      <trkpt lat="45.21444" lon="6.69261">
        <ele>1194</ele>
        <time>2021-03-29T12:47:08.960Z</time>
      </trkpt>
      <trkpt lat="45.21453" lon="6.69279">
        <ele>1194</ele>
        <time>2021-03-29T12:47:14.810Z</time>
      </trkpt>
      <trkpt lat="45.21466" lon="6.693">
        <ele>1195</ele>
        <time>2021-03-29T12:47:27.830Z</time>
      </trkpt>
      <trkpt lat="45.21485" lon="6.69319">
        <ele>1197</ele>
        <time>2021-03-29T12:47:47.845Z</time>
      </trkpt>
      <trkpt lat="45.21539" lon="6.69351">
        <ele>1209</ele>
        <time>2021-03-29T12:49:12.748Z</time>
      </trkpt>
      <trkpt lat="45.21555" lon="6.69369">
        <ele>1210</ele>
        <time>2021-03-29T12:49:26.088Z</time>
      </trkpt>
      <trkpt lat="45.21563" lon="6.69387">
        <ele>1209</ele>
        <time>2021-03-29T12:49:27.901Z</time>
      </trkpt>
      <trkpt lat="45.21571" lon="6.69409">
        <ele>1207</ele>
        <time>2021-03-29T12:49:30.205Z</time>
      </trkpt>
      <trkpt lat="45.21604" lon="6.69551">
        <ele>1220</ele>
        <time>2021-03-29T12:51:43.711Z</time>
      </trkpt>
      <trkpt lat="45.21607" lon="6.69581">
        <ele>1223</ele>
        <time>2021-03-29T12:52:14.681Z</time>
      </trkpt>
      <trkpt lat="45.21605" lon="6.6961">
        <ele>1224</ele>
        <time>2021-03-29T12:52:28.069Z</time>
      </trkpt>
      <trkpt lat="45.21598" lon="6.69652">
        <ele>1222</ele>
        <time>2021-03-29T12:52:31.773Z</time>
      </trkpt>
      <trkpt lat="45.21581" lon="6.69719">
        <ele>1218</ele>
        <time>2021-03-29T12:52:38.400Z</time>
      </trkpt>
      <trkpt lat="45.21579" lon="6.69748">
        <ele>1220</ele>
        <time>2021-03-29T12:52:57.990Z</time>
      </trkpt>
      <trkpt lat="45.21583" lon="6.69769">
        <ele>1222</ele>
        <time>2021-03-29T12:53:19.323Z</time>
      </trkpt>
      <trkpt lat="45.21593" lon="6.69804">
        <ele>1227</ele>
        <time>2021-03-29T12:53:57.927Z</time>
      </trkpt>
      <trkpt lat="45.21634" lon="6.69905">
        <ele>1236</ele>
        <time>2021-03-29T12:55:26.546Z</time>
      </trkpt>
      <trkpt lat="45.21644" lon="6.69936">
        <ele>1236</ele>
        <time>2021-03-29T12:55:35.581Z</time>
      </trkpt>
      <trkpt lat="45.21674" lon="6.70104">
        <ele>1242</ele>
        <time>2021-03-29T12:56:55.437Z</time>
      </trkpt>
      <trkpt lat="45.21694" lon="6.70171">
        <ele>1244</ele>
        <time>2021-03-29T12:57:25.443Z</time>
      </trkpt>
      <trkpt lat="45.21761" lon="6.70368">
        <ele>1259</ele>
        <time>2021-03-29T12:59:52.378Z</time>
      </trkpt>
      <trkpt lat="45.21765" lon="6.7039">
        <ele>1261</ele>
        <time>2021-03-29T13:00:13.067Z</time>
      </trkpt>
      <trkpt lat="45.21764" lon="6.70413">
        <ele>1260</ele>
        <time>2021-03-29T13:00:15.109Z</time>
      </trkpt>
      <trkpt lat="45.21746" lon="6.70492">
        <ele>1257</ele>
        <time>2021-03-29T13:00:23.120Z</time>
      </trkpt>
      <trkpt lat="45.21744" lon="6.70546">
        <ele>1257</ele>
        <time>2021-03-29T13:00:37.449Z</time>
      </trkpt>
      <trkpt lat="45.2175" lon="6.70611">
        <ele>1260</ele>
        <time>2021-03-29T13:01:11.125Z</time>
      </trkpt>
      <trkpt lat="45.21762" lon="6.70683">
        <ele>1266</ele>
        <time>2021-03-29T13:02:10.921Z</time>
      </trkpt>
      <trkpt lat="45.21766" lon="6.70735">
        <ele>1271</ele>
        <time>2021-03-29T13:03:04.384Z</time>
      </trkpt>
      <trkpt lat="45.21756" lon="6.70918">
        <ele>1274</ele>
        <time>2021-03-29T13:04:06.148Z</time>
      </trkpt>
      <trkpt lat="45.21769" lon="6.71053">
        <ele>1282</ele>
        <time>2021-03-29T13:05:26.932Z</time>
      </trkpt>
      <trkpt lat="45.2177" lon="6.71106">
        <ele>1275</ele>
        <time>2021-03-29T13:05:31.865Z</time>
      </trkpt>
      <trkpt lat="45.2178" lon="6.71134">
        <ele>1276</ele>
        <time>2021-03-29T13:05:45.969Z</time>
      </trkpt>
      <trkpt lat="45.21818" lon="6.71206">
        <ele>1283</ele>
        <time>2021-03-29T13:06:54.995Z</time>
      </trkpt>
      <trkpt lat="45.21858" lon="6.71258">
        <ele>1291</ele>
        <time>2021-03-29T13:08:13.691Z</time>
      </trkpt>
      <trkpt lat="45.21914" lon="6.7131">
        <ele>1307</ele>
        <time>2021-03-29T13:09:50.781Z</time>
      </trkpt>
      <trkpt lat="45.21941" lon="6.71339">
        <ele>1311</ele>
        <time>2021-03-29T13:10:31.014Z</time>
      </trkpt>
      <trkpt lat="45.21952" lon="6.7136">
        <ele>1314</ele>
        <time>2021-03-29T13:10:57.761Z</time>
      </trkpt>
      <trkpt lat="45.21957" lon="6.71428">
        <ele>1308</ele>
        <time>2021-03-29T13:11:04.122Z</time>
      </trkpt>
      <trkpt lat="45.21965" lon="6.7145">
        <ele>1309</ele>
        <time>2021-03-29T13:11:16.173Z</time>
      </trkpt>
      <trkpt lat="45.22008" lon="6.71502">
        <ele>1323</ele>
        <time>2021-03-29T13:12:38.130Z</time>
      </trkpt>
      <trkpt lat="45.22028" lon="6.71543">
        <ele>1327</ele>
        <time>2021-03-29T13:13:17.863Z</time>
      </trkpt>
      <trkpt lat="45.22037" lon="6.71589">
        <ele>1324</ele>
        <time>2021-03-29T13:13:22.305Z</time>
      </trkpt>
      <trkpt lat="45.2204" lon="6.71698">
        <ele>1316</ele>
        <time>2021-03-29T13:13:32.454Z</time>
      </trkpt>
      <trkpt lat="45.22061" lon="6.71771">
        <ele>1328</ele>
        <time>2021-03-29T13:14:53.043Z</time>
      </trkpt>
      <trkpt lat="45.22065" lon="6.71822">
        <ele>1332</ele>
        <time>2021-03-29T13:15:32.502Z</time>
      </trkpt>
      <trkpt lat="45.22071" lon="6.71939">
        <ele>1342</ele>
        <time>2021-03-29T13:17:14.156Z</time>
      </trkpt>
      <trkpt lat="45.22059" lon="6.71987">
        <ele>1341</ele>
        <time>2021-03-29T13:17:20.305Z</time>
      </trkpt>
      <trkpt lat="45.22053" lon="6.72023">
        <ele>1337</ele>
        <time>2021-03-29T13:17:23.747Z</time>
      </trkpt>
      <trkpt lat="45.22057" lon="6.72052">
        <ele>1336</ele>
        <time>2021-03-29T13:17:26.680Z</time>
      </trkpt>
      <trkpt lat="45.22071" lon="6.72087">
        <ele>1341</ele>
        <time>2021-03-29T13:18:07.816Z</time>
      </trkpt>
      <trkpt lat="45.22092" lon="6.72108">
        <ele>1349</ele>
        <time>2021-03-29T13:18:45.086Z</time>
      </trkpt>
      <trkpt lat="45.22135" lon="6.72133">
        <ele>1359</ele>
        <time>2021-03-29T13:19:52.505Z</time>
      </trkpt>
      <trkpt lat="45.22155" lon="6.72153">
        <ele>1361</ele>
        <time>2021-03-29T13:20:12.823Z</time>
      </trkpt>
      <trkpt lat="45.2219" lon="6.7221">
        <ele>1365</ele>
        <time>2021-03-29T13:20:54.752Z</time>
      </trkpt>
      <trkpt lat="45.22212" lon="6.72251">
        <ele>1371</ele>
        <time>2021-03-29T13:21:47.427Z</time>
      </trkpt>
      <trkpt lat="45.22219" lon="6.72271">
        <ele>1374</ele>
        <time>2021-03-29T13:22:10.251Z</time>
      </trkpt>
      <trkpt lat="45.22222" lon="6.72315">
        <ele>1372</ele>
        <time>2021-03-29T13:22:14.090Z</time>
      </trkpt>
      <trkpt lat="45.22227" lon="6.72339">
        <ele>1373</ele>
        <time>2021-03-29T13:22:26.220Z</time>
      </trkpt>
      <trkpt lat="45.22258" lon="6.72388">
        <ele>1384</ele>
        <time>2021-03-29T13:23:33.531Z</time>
      </trkpt>
      <trkpt lat="45.22264" lon="6.72405">
        <ele>1384</ele>
        <time>2021-03-29T13:23:38.569Z</time>
      </trkpt>
      <trkpt lat="45.22261" lon="6.72432">
        <ele>1384</ele>
        <time>2021-03-29T13:23:45.812Z</time>
      </trkpt>
      <trkpt lat="45.22252" lon="6.72449">
        <ele>1385</ele>
        <time>2021-03-29T13:23:56.880Z</time>
      </trkpt>
      <trkpt lat="45.2223" lon="6.72479">
        <ele>1380</ele>
        <time>2021-03-29T13:24:00.909Z</time>
      </trkpt>
      <trkpt lat="45.22216" lon="6.72508">
        <ele>1375</ele>
        <time>2021-03-29T13:24:04.180Z</time>
      </trkpt>
      <trkpt lat="45.22213" lon="6.72531">
        <ele>1373</ele>
        <time>2021-03-29T13:24:06.356Z</time>
      </trkpt>
      <trkpt lat="45.22216" lon="6.72554">
        <ele>1375</ele>
        <time>2021-03-29T13:24:26.717Z</time>
      </trkpt>
      <trkpt lat="45.22242" lon="6.72604">
        <ele>1391</ele>
        <time>2021-03-29T13:25:30.233Z</time>
      </trkpt>
      <trkpt lat="45.22252" lon="6.72639">
        <ele>1398</ele>
        <time>2021-03-29T13:26:08.833Z</time>
      </trkpt>
      <trkpt lat="45.22263" lon="6.72691">
        <ele>1400</ele>
        <time>2021-03-29T13:26:34.372Z</time>
      </trkpt>
      <trkpt lat="45.22301" lon="6.72794">
        <ele>1410</ele>
        <time>2021-03-29T13:28:16.479Z</time>
      </trkpt>
      <trkpt lat="45.22331" lon="6.72857">
        <ele>1413</ele>
        <time>2021-03-29T13:28:53.154Z</time>
      </trkpt>
      <trkpt lat="45.2236" lon="6.72899">
        <ele>1417</ele>
        <time>2021-03-29T13:29:32.363Z</time>
      </trkpt>
      <trkpt lat="45.22406" lon="6.72956">
        <ele>1421</ele>
        <time>2021-03-29T13:30:17.067Z</time>
      </trkpt>
      <trkpt lat="45.22439" lon="6.73002">
        <ele>1419</ele>
        <time>2021-03-29T13:30:23.871Z</time>
      </trkpt>
      <trkpt lat="45.22477" lon="6.73074">
        <ele>1418</ele>
        <time>2021-03-29T13:30:36.354Z</time>
      </trkpt>
      <trkpt lat="45.2251" lon="6.73153">
        <ele>1421</ele>
        <time>2021-03-29T13:31:17.917Z</time>
      </trkpt>
      <trkpt lat="45.22566" lon="6.73306">
        <ele>1426</ele>
        <time>2021-03-29T13:32:31.259Z</time>
      </trkpt>
      <trkpt lat="45.22583" lon="6.73338">
        <ele>1425</ele>
        <time>2021-03-29T13:32:35.736Z</time>
      </trkpt>
      <trkpt lat="45.22594" lon="6.7335">
        <ele>1424</ele>
        <time>2021-03-29T13:32:37.568Z</time>
      </trkpt>
      <trkpt lat="45.22605" lon="6.73357">
        <ele>1425</ele>
        <time>2021-03-29T13:32:47.680Z</time>
      </trkpt>
      <trkpt lat="45.22663" lon="6.73379">
        <ele>1429</ele>
        <time>2021-03-29T13:33:31.996Z</time>
      </trkpt>
      <trkpt lat="45.22676" lon="6.73392">
        <ele>1426</ele>
        <time>2021-03-29T13:33:34.097Z</time>
      </trkpt>
      <trkpt lat="45.22686" lon="6.7341">
        <ele>1421</ele>
        <time>2021-03-29T13:33:36.230Z</time>
      </trkpt>
      <trkpt lat="45.2269" lon="6.73431">
        <ele>1420</ele>
        <time>2021-03-29T13:33:38.104Z</time>
      </trkpt>
      <trkpt lat="45.22691" lon="6.73454">
        <ele>1422</ele>
        <time>2021-03-29T13:33:58.626Z</time>
      </trkpt>
      <trkpt lat="45.22686" lon="6.73471">
        <ele>1423</ele>
        <time>2021-03-29T13:34:09.000Z</time>
      </trkpt>
      <trkpt lat="45.22668" lon="6.73491">
        <ele>1423</ele>
        <time>2021-03-29T13:34:17.598Z</time>
      </trkpt>
      <trkpt lat="45.22641" lon="6.73502">
        <ele>1425</ele>
        <time>2021-03-29T13:34:39.055Z</time>
      </trkpt>
      <trkpt lat="45.22534" lon="6.73517">
        <ele>1429</ele>
        <time>2021-03-29T13:35:40.407Z</time>
      </trkpt>
      <trkpt lat="45.22495" lon="6.73533">
        <ele>1432</ele>
        <time>2021-03-29T13:36:12.067Z</time>
      </trkpt>
      <trkpt lat="45.22478" lon="6.73549">
        <ele>1434</ele>
        <time>2021-03-29T13:36:31.648Z</time>
      </trkpt>
      <trkpt lat="45.22461" lon="6.73575">
        <ele>1438</ele>
        <time>2021-03-29T13:37:07.903Z</time>
      </trkpt>
      <trkpt lat="45.22452" lon="6.73601">
        <ele>1440</ele>
        <time>2021-03-29T13:37:27.485Z</time>
      </trkpt>
      <trkpt lat="45.22441" lon="6.73653">
        <ele>1442</ele>
        <time>2021-03-29T13:37:53.023Z</time>
      </trkpt>
      <trkpt lat="45.22446" lon="6.73696">
        <ele>1446</ele>
        <time>2021-03-29T13:38:35.637Z</time>
      </trkpt>
      <trkpt lat="45.22461" lon="6.7375">
        <ele>1451</ele>
        <time>2021-03-29T13:39:26.732Z</time>
      </trkpt>
      <trkpt lat="45.22539" lon="6.74015">
        <ele>1466</ele>
        <time>2021-03-29T13:42:04.801Z</time>
      </trkpt>
      <trkpt lat="45.22548" lon="6.74034">
        <ele>1467</ele>
        <time>2021-03-29T13:42:16.315Z</time>
      </trkpt>
      <trkpt lat="45.22565" lon="6.74057">
        <ele>1469</ele>
        <time>2021-03-29T13:42:36.385Z</time>
      </trkpt>
      <trkpt lat="45.22598" lon="6.7407">
        <ele>1472</ele>
        <time>2021-03-29T13:43:06.275Z</time>
      </trkpt>
      <trkpt lat="45.22611" lon="6.74072">
        <ele>1473</ele>
        <time>2021-03-29T13:43:16.681Z</time>
      </trkpt>
      <trkpt lat="45.22624" lon="6.74068">
        <ele>1474</ele>
        <time>2021-03-29T13:43:27.159Z</time>
      </trkpt>
      <trkpt lat="45.2264" lon="6.74058">
        <ele>1476</ele>
        <time>2021-03-29T13:43:47.052Z</time>
      </trkpt>
      <trkpt lat="45.22651" lon="6.74044">
        <ele>1476</ele>
        <time>2021-03-29T13:43:52.609Z</time>
      </trkpt>
      <trkpt lat="45.2272" lon="6.7398">
        <ele>1479</ele>
        <time>2021-03-29T13:44:39.119Z</time>
      </trkpt>
      <trkpt lat="45.22741" lon="6.73966">
        <ele>1479</ele>
        <time>2021-03-29T13:44:47.846Z</time>
      </trkpt>
      <trkpt lat="45.22762" lon="6.73966">
        <ele>1479</ele>
        <time>2021-03-29T13:44:55.746Z</time>
      </trkpt>
      <trkpt lat="45.22796" lon="6.73984">
        <ele>1480</ele>
        <time>2021-03-29T13:45:14.005Z</time>
      </trkpt>
      <trkpt lat="45.22821" lon="6.73979">
        <ele>1480</ele>
        <time>2021-03-29T13:45:23.502Z</time>
      </trkpt>
      <trkpt lat="45.22865" lon="6.74006">
        <ele>1484</ele>
        <time>2021-03-29T13:46:03.880Z</time>
      </trkpt>
      <trkpt lat="45.22885" lon="6.74038">
        <ele>1487</ele>
        <time>2021-03-29T13:46:33.230Z</time>
      </trkpt>
      <trkpt lat="45.22902" lon="6.74059">
        <ele>1489</ele>
        <time>2021-03-29T13:46:53.097Z</time>
      </trkpt>
      <trkpt lat="45.22917" lon="6.74129">
        <ele>1488</ele>
        <time>2021-03-29T13:47:02.813Z</time>
      </trkpt>
      <trkpt lat="45.22939" lon="6.74152">
        <ele>1488</ele>
        <time>2021-03-29T13:47:13.090Z</time>
      </trkpt>
      <trkpt lat="45.22962" lon="6.74171">
        <ele>1487</ele>
        <time>2021-03-29T13:47:17.220Z</time>
      </trkpt>
      <trkpt lat="45.23058" lon="6.74193">
        <ele>1490</ele>
        <time>2021-03-29T13:48:08.208Z</time>
      </trkpt>
      <trkpt lat="45.23076" lon="6.74204">
        <ele>1490</ele>
        <time>2021-03-29T13:48:15.580Z</time>
      </trkpt>
      <trkpt lat="45.23151" lon="6.74276">
        <ele>1492</ele>
        <time>2021-03-29T13:48:58.275Z</time>
      </trkpt>
      <trkpt lat="45.23168" lon="6.74303">
        <ele>1492</ele>
        <time>2021-03-29T13:49:07.869Z</time>
      </trkpt>
      <trkpt lat="45.23175" lon="6.74331">
        <ele>1490</ele>
        <time>2021-03-29T13:49:10.633Z</time>
      </trkpt>
      <trkpt lat="45.23183" lon="6.74526">
        <ele>1480</ele>
        <time>2021-03-29T13:49:28.804Z</time>
      </trkpt>
      <trkpt lat="45.23189" lon="6.74555">
        <ele>1477</ele>
        <time>2021-03-29T13:49:31.615Z</time>
      </trkpt>
      <trkpt lat="45.232" lon="6.74581">
        <ele>1476</ele>
        <time>2021-03-29T13:49:34.658Z</time>
      </trkpt>
      <trkpt lat="45.23223" lon="6.74604">
        <ele>1482</ele>
        <time>2021-03-29T13:50:15.474Z</time>
      </trkpt>
      <trkpt lat="45.23238" lon="6.74613">
        <ele>1486</ele>
        <time>2021-03-29T13:50:39.102Z</time>
      </trkpt>
      <trkpt lat="45.23277" lon="6.74627">
        <ele>1494</ele>
        <time>2021-03-29T13:51:37.468Z</time>
      </trkpt>
      <trkpt lat="45.23291" lon="6.74637">
        <ele>1497</ele>
        <time>2021-03-29T13:52:00.207Z</time>
      </trkpt>
      <trkpt lat="45.23299" lon="6.74651">
        <ele>1496</ele>
        <time>2021-03-29T13:52:01.884Z</time>
      </trkpt>
      <trkpt lat="45.23303" lon="6.74664">
        <ele>1495</ele>
        <time>2021-03-29T13:52:03.204Z</time>
      </trkpt>
      <trkpt lat="45.23302" lon="6.7468">
        <ele>1497</ele>
        <time>2021-03-29T13:52:19.616Z</time>
      </trkpt>
      <trkpt lat="45.23296" lon="6.74694">
        <ele>1499</ele>
        <time>2021-03-29T13:52:36.362Z</time>
      </trkpt>
      <trkpt lat="45.23287" lon="6.74703">
        <ele>1498</ele>
        <time>2021-03-29T13:52:37.816Z</time>
      </trkpt>
      <trkpt lat="45.23259" lon="6.74709">
        <ele>1493</ele>
        <time>2021-03-29T13:52:41.557Z</time>
      </trkpt>
      <trkpt lat="45.23224" lon="6.74728">
        <ele>1489</ele>
        <time>2021-03-29T13:52:46.506Z</time>
      </trkpt>
      <trkpt lat="45.23195" lon="6.74757">
        <ele>1487</ele>
        <time>2021-03-29T13:52:51.161Z</time>
      </trkpt>
      <trkpt lat="45.23186" lon="6.7479">
        <ele>1490</ele>
        <time>2021-03-29T13:53:21.580Z</time>
      </trkpt>
      <trkpt lat="45.23168" lon="6.74947">
        <ele>1506</ele>
        <time>2021-03-29T13:56:04.117Z</time>
      </trkpt>
      <trkpt lat="45.23147" lon="6.75003">
        <ele>1512</ele>
        <time>2021-03-29T13:57:08.945Z</time>
      </trkpt>
      <trkpt lat="45.2314" lon="6.75199">
        <ele>1520</ele>
        <time>2021-03-29T13:58:44.804Z</time>
      </trkpt>
      <trkpt lat="45.23128" lon="6.75238">
        <ele>1520</ele>
        <time>2021-03-29T13:58:56.079Z</time>
      </trkpt>
      <trkpt lat="45.23089" lon="6.75299">
        <ele>1518</ele>
        <time>2021-03-29T13:59:05.366Z</time>
      </trkpt>
      <trkpt lat="45.23076" lon="6.75339">
        <ele>1517</ele>
        <time>2021-03-29T13:59:10.446Z</time>
      </trkpt>
      <trkpt lat="45.23071" lon="6.75379">
        <ele>1513</ele>
        <time>2021-03-29T13:59:14.226Z</time>
      </trkpt>
      <trkpt lat="45.23071" lon="6.75427">
        <ele>1511</ele>
        <time>2021-03-29T13:59:18.563Z</time>
      </trkpt>
      <trkpt lat="45.23088" lon="6.7551">
        <ele>1507</ele>
        <time>2021-03-29T13:59:25.983Z</time>
      </trkpt>
      <trkpt lat="45.23097" lon="6.75575">
        <ele>1502</ele>
        <time>2021-03-29T13:59:32.146Z</time>
      </trkpt>
      <trkpt lat="45.2311" lon="6.75624">
        <ele>1500</ele>
        <time>2021-03-29T13:59:37.072Z</time>
      </trkpt>
      <trkpt lat="45.23136" lon="6.75693">
        <ele>1496</ele>
        <time>2021-03-29T13:59:44.352Z</time>
      </trkpt>
      <trkpt lat="45.23158" lon="6.75727">
        <ele>1492</ele>
        <time>2021-03-29T13:59:48.647Z</time>
      </trkpt>
      <trkpt lat="45.232" lon="6.75772">
        <ele>1493</ele>
        <time>2021-03-29T14:00:12.611Z</time>
      </trkpt>
      <trkpt lat="45.23214" lon="6.75796">
        <ele>1494</ele>
        <time>2021-03-29T14:00:26.639Z</time>
      </trkpt>
      <trkpt lat="45.23218" lon="6.75814">
        <ele>1494</ele>
        <time>2021-03-29T14:00:31.639Z</time>
      </trkpt>
      <trkpt lat="45.23217" lon="6.75894">
        <ele>1484</ele>
        <time>2021-03-29T14:00:39.082Z</time>
      </trkpt>
      <trkpt lat="45.2322" lon="6.75909">
        <ele>1483</ele>
        <time>2021-03-29T14:00:40.533Z</time>
      </trkpt>
      <trkpt lat="45.23224" lon="6.75922">
        <ele>1482</ele>
        <time>2021-03-29T14:00:41.852Z</time>
      </trkpt>
      <trkpt lat="45.23262" lon="6.75999">
        <ele>1476</ele>
        <time>2021-03-29T14:00:50.599Z</time>
      </trkpt>
      <trkpt lat="45.23288" lon="6.76036">
        <ele>1475</ele>
        <time>2021-03-29T14:00:56.957Z</time>
      </trkpt>
      <trkpt lat="45.23301" lon="6.76047">
        <ele>1476</ele>
        <time>2021-03-29T14:01:08.083Z</time>
      </trkpt>
      <trkpt lat="45.23323" lon="6.76048">
        <ele>1483</ele>
        <time>2021-03-29T14:01:40.020Z</time>
      </trkpt>
      <trkpt lat="45.23341" lon="6.76054">
        <ele>1487</ele>
        <time>2021-03-29T14:02:06.847Z</time>
      </trkpt>
      <trkpt lat="45.23352" lon="6.76062">
        <ele>1488</ele>
        <time>2021-03-29T14:02:17.040Z</time>
      </trkpt>
      <trkpt lat="45.23358" lon="6.76072">
        <ele>1487</ele>
        <time>2021-03-29T14:02:18.262Z</time>
      </trkpt>
      <trkpt lat="45.23361" lon="6.76088">
        <ele>1485</ele>
        <time>2021-03-29T14:02:19.803Z</time>
      </trkpt>
      <trkpt lat="45.23348" lon="6.76128">
        <ele>1477</ele>
        <time>2021-03-29T14:02:23.901Z</time>
      </trkpt>
      <trkpt lat="45.23346" lon="6.76141">
        <ele>1476</ele>
        <time>2021-03-29T14:02:25.138Z</time>
      </trkpt>
      <trkpt lat="45.23347" lon="6.76159">
        <ele>1474</ele>
        <time>2021-03-29T14:02:26.818Z</time>
      </trkpt>
      <trkpt lat="45.23359" lon="6.7619">
        <ele>1476</ele>
        <time>2021-03-29T14:02:47.260Z</time>
      </trkpt>
      <trkpt lat="45.23425" lon="6.76318">
        <ele>1477</ele>
        <time>2021-03-29T14:03:33.038Z</time>
      </trkpt>
      <trkpt lat="45.23436" lon="6.76336">
        <ele>1477</ele>
        <time>2021-03-29T14:03:39.352Z</time>
      </trkpt>
      <trkpt lat="45.23447" lon="6.76348">
        <ele>1478</ele>
        <time>2021-03-29T14:03:50.020Z</time>
      </trkpt>
      <trkpt lat="45.23508" lon="6.76395">
        <ele>1484</ele>
        <time>2021-03-29T14:04:49.993Z</time>
      </trkpt>
      <trkpt lat="45.2352" lon="6.76409">
        <ele>1485</ele>
        <time>2021-03-29T14:05:01.272Z</time>
      </trkpt>
      <trkpt lat="45.23576" lon="6.76506">
        <ele>1484</ele>
        <time>2021-03-29T14:05:19.684Z</time>
      </trkpt>
      <trkpt lat="45.23615" lon="6.76583">
        <ele>1482</ele>
        <time>2021-03-29T14:05:30.884Z</time>
      </trkpt>
      <trkpt lat="45.23639" lon="6.76623">
        <ele>1479</ele>
        <time>2021-03-29T14:05:35.772Z</time>
      </trkpt>
      <trkpt lat="45.23684" lon="6.76666">
        <ele>1483</ele>
        <time>2021-03-29T14:06:18.022Z</time>
      </trkpt>
      <trkpt lat="45.23693" lon="6.76678">
        <ele>1483</ele>
        <time>2021-03-29T14:06:22.666Z</time>
      </trkpt>
      <trkpt lat="45.23726" lon="6.7674">
        <ele>1479</ele>
        <time>2021-03-29T14:06:29.895Z</time>
      </trkpt>
      <trkpt lat="45.23777" lon="6.76778">
        <ele>1483</ele>
        <time>2021-03-29T14:07:13.311Z</time>
      </trkpt>
      <trkpt lat="45.23792" lon="6.76798">
        <ele>1484</ele>
        <time>2021-03-29T14:07:26.721Z</time>
      </trkpt>
      <trkpt lat="45.23808" lon="6.76836">
        <ele>1482</ele>
        <time>2021-03-29T14:07:30.567Z</time>
      </trkpt>
      <trkpt lat="45.2382" lon="6.76901">
        <ele>1480</ele>
        <time>2021-03-29T14:07:37.592Z</time>
      </trkpt>
      <trkpt lat="45.23838" lon="6.76954">
        <ele>1482</ele>
        <time>2021-03-29T14:08:04.540Z</time>
      </trkpt>
      <trkpt lat="45.23845" lon="6.76964">
        <ele>1484</ele>
        <time>2021-03-29T14:08:18.946Z</time>
      </trkpt>
      <trkpt lat="45.23876" lon="6.76991">
        <ele>1491</ele>
        <time>2021-03-29T14:09:11.711Z</time>
      </trkpt>
      <trkpt lat="45.23905" lon="6.77036">
        <ele>1495</ele>
        <time>2021-03-29T14:09:51.091Z</time>
      </trkpt>
      <trkpt lat="45.23907" lon="6.77051">
        <ele>1494</ele>
        <time>2021-03-29T14:09:52.511Z</time>
      </trkpt>
      <trkpt lat="45.23905" lon="6.77074">
        <ele>1493</ele>
        <time>2021-03-29T14:09:54.569Z</time>
      </trkpt>
      <trkpt lat="45.23895" lon="6.77101">
        <ele>1492</ele>
        <time>2021-03-29T14:09:57.636Z</time>
      </trkpt>
      <trkpt lat="45.23878" lon="6.77135">
        <ele>1493</ele>
        <time>2021-03-29T14:10:13.690Z</time>
      </trkpt>
      <trkpt lat="45.23827" lon="6.77218">
        <ele>1502</ele>
        <time>2021-03-29T14:11:43.613Z</time>
      </trkpt>
      <trkpt lat="45.23821" lon="6.7725">
        <ele>1505</ele>
        <time>2021-03-29T14:12:15.260Z</time>
      </trkpt>
      <trkpt lat="45.23823" lon="6.7727">
        <ele>1505</ele>
        <time>2021-03-29T14:12:20.611Z</time>
      </trkpt>
      <trkpt lat="45.23832" lon="6.77301">
        <ele>1504</ele>
        <time>2021-03-29T14:12:24.114Z</time>
      </trkpt>
      <trkpt lat="45.23949" lon="6.7755">
        <ele>1509</ele>
        <time>2021-03-29T14:14:05.415Z</time>
      </trkpt>
      <trkpt lat="45.2406" lon="6.77737">
        <ele>1512</ele>
        <time>2021-03-29T14:15:22.498Z</time>
      </trkpt>
      <trkpt lat="45.24094" lon="6.77782">
        <ele>1511</ele>
        <time>2021-03-29T14:15:31.048Z</time>
      </trkpt>
      <trkpt lat="45.24161" lon="6.77841">
        <ele>1508</ele>
        <time>2021-03-29T14:15:43.229Z</time>
      </trkpt>
      <trkpt lat="45.24181" lon="6.77863">
        <ele>1508</ele>
        <time>2021-03-29T14:15:52.745Z</time>
      </trkpt>
      <trkpt lat="45.24334" lon="6.78063">
        <ele>1503</ele>
        <time>2021-03-29T14:16:29.916Z</time>
      </trkpt>
      <trkpt lat="45.24512" lon="6.78414">
        <ele>1504</ele>
        <time>2021-03-29T14:18:28.036Z</time>
      </trkpt>
      <trkpt lat="45.24567" lon="6.78503">
        <ele>1501</ele>
        <time>2021-03-29T14:18:41.184Z</time>
      </trkpt>
      <trkpt lat="45.24657" lon="6.78624">
        <ele>1489</ele>
        <time>2021-03-29T14:18:57.553Z</time>
      </trkpt>
      <trkpt lat="45.24672" lon="6.78653">
        <ele>1488</ele>
        <time>2021-03-29T14:19:01.415Z</time>
      </trkpt>
      <trkpt lat="45.2469" lon="6.78711">
        <ele>1482</ele>
        <time>2021-03-29T14:19:07.310Z</time>
      </trkpt>
      <trkpt lat="45.24695" lon="6.78722">
        <ele>1481</ele>
        <time>2021-03-29T14:19:08.527Z</time>
      </trkpt>
      <trkpt lat="45.24706" lon="6.78736">
        <ele>1480</ele>
        <time>2021-03-29T14:19:10.478Z</time>
      </trkpt>
      <trkpt lat="45.24712" lon="6.78739">
        <ele>1479</ele>
        <time>2021-03-29T14:19:11.319Z</time>
      </trkpt>
      <trkpt lat="45.24719" lon="6.78737">
        <ele>1479</ele>
        <time>2021-03-29T14:19:14.005Z</time>
      </trkpt>
      <trkpt lat="45.24724" lon="6.78735">
        <ele>1479</ele>
        <time>2021-03-29T14:19:15.959Z</time>
      </trkpt>
      <trkpt lat="45.24729" lon="6.78727">
        <ele>1479</ele>
        <time>2021-03-29T14:19:18.792Z</time>
      </trkpt>
      <trkpt lat="45.24732" lon="6.78702">
        <ele>1479</ele>
        <time>2021-03-29T14:19:25.508Z</time>
      </trkpt>
      <trkpt lat="45.24729" lon="6.78678">
        <ele>1479</ele>
        <time>2021-03-29T14:19:31.964Z</time>
      </trkpt>
      <trkpt lat="45.24681" lon="6.78504">
        <ele>1476</ele>
        <time>2021-03-29T14:19:55.816Z</time>
      </trkpt>
      <trkpt lat="45.24648" lon="6.78419">
        <ele>1473</ele>
        <time>2021-03-29T14:20:05.810Z</time>
      </trkpt>
      <trkpt lat="45.24645" lon="6.78401">
        <ele>1472</ele>
        <time>2021-03-29T14:20:07.531Z</time>
      </trkpt>
      <trkpt lat="45.24647" lon="6.78384">
        <ele>1471</ele>
        <time>2021-03-29T14:20:09.133Z</time>
      </trkpt>
      <trkpt lat="45.24656" lon="6.78368">
        <ele>1468</ele>
        <time>2021-03-29T14:20:11.038Z</time>
      </trkpt>
      <trkpt lat="45.24667" lon="6.78359">
        <ele>1465</ele>
        <time>2021-03-29T14:20:12.715Z</time>
      </trkpt>
      <trkpt lat="45.24738" lon="6.78337">
        <ele>1456</ele>
        <time>2021-03-29T14:20:22.314Z</time>
      </trkpt>
      <trkpt lat="45.2476" lon="6.78317">
        <ele>1458</ele>
        <time>2021-03-29T14:20:43.116Z</time>
      </trkpt>
      <trkpt lat="45.24778" lon="6.78286">
        <ele>1466</ele>
        <time>2021-03-29T14:21:24.164Z</time>
      </trkpt>
      <trkpt lat="45.24787" lon="6.78283">
        <ele>1468</ele>
        <time>2021-03-29T14:21:37.577Z</time>
      </trkpt>
      <trkpt lat="45.24795" lon="6.78288">
        <ele>1468</ele>
        <time>2021-03-29T14:21:40.865Z</time>
      </trkpt>
      <trkpt lat="45.248" lon="6.78296">
        <ele>1466</ele>
        <time>2021-03-29T14:21:41.859Z</time>
      </trkpt>
      <trkpt lat="45.24807" lon="6.7833">
        <ele>1458</ele>
        <time>2021-03-29T14:21:45.154Z</time>
      </trkpt>
      <trkpt lat="45.24814" lon="6.78343">
        <ele>1455</ele>
        <time>2021-03-29T14:21:46.676Z</time>
      </trkpt>
      <trkpt lat="45.24837" lon="6.78368">
        <ele>1449</ele>
        <time>2021-03-29T14:21:50.501Z</time>
      </trkpt>
      <trkpt lat="45.24884" lon="6.78408">
        <ele>1441</ele>
        <time>2021-03-29T14:21:57.739Z</time>
      </trkpt>
      <trkpt lat="45.24897" lon="6.78416">
        <ele>1439</ele>
        <time>2021-03-29T14:21:59.610Z</time>
      </trkpt>
      <trkpt lat="45.24939" lon="6.78431">
        <ele>1432</ele>
        <time>2021-03-29T14:22:05.331Z</time>
      </trkpt>
      <trkpt lat="45.24948" lon="6.78429">
        <ele>1431</ele>
        <time>2021-03-29T14:22:06.534Z</time>
      </trkpt>
      <trkpt lat="45.24952" lon="6.78425">
        <ele>1432</ele>
        <time>2021-03-29T14:22:13.632Z</time>
      </trkpt>
      <trkpt lat="45.2498" lon="6.7837">
        <ele>1443</ele>
        <time>2021-03-29T14:23:22.964Z</time>
      </trkpt>
      <trkpt lat="45.2499" lon="6.78365">
        <ele>1442</ele>
        <time>2021-03-29T14:23:24.364Z</time>
      </trkpt>
      <trkpt lat="45.24995" lon="6.78366">
        <ele>1441</ele>
        <time>2021-03-29T14:23:25.031Z</time>
      </trkpt>
      <trkpt lat="45.25005" lon="6.78374">
        <ele>1440</ele>
        <time>2021-03-29T14:23:26.547Z</time>
      </trkpt>
      <trkpt lat="45.2501" lon="6.78382">
        <ele>1440</ele>
        <time>2021-03-29T14:23:29.380Z</time>
      </trkpt>
      <trkpt lat="45.25023" lon="6.78439">
        <ele>1430</ele>
        <time>2021-03-29T14:23:34.952Z</time>
      </trkpt>
      <trkpt lat="45.25036" lon="6.78465">
        <ele>1427</ele>
        <time>2021-03-29T14:23:37.918Z</time>
      </trkpt>
      <trkpt lat="45.25054" lon="6.78483">
        <ele>1426</ele>
        <time>2021-03-29T14:23:41.093Z</time>
      </trkpt>
      <trkpt lat="45.25103" lon="6.78504">
        <ele>1430</ele>
        <time>2021-03-29T14:24:22.372Z</time>
      </trkpt>
      <trkpt lat="45.25164" lon="6.78568">
        <ele>1429</ele>
        <time>2021-03-29T14:24:37.804Z</time>
      </trkpt>
      <trkpt lat="45.25205" lon="6.78597">
        <ele>1430</ele>
        <time>2021-03-29T14:24:59.341Z</time>
      </trkpt>
      <trkpt lat="45.25281" lon="6.78633">
        <ele>1434</ele>
        <time>2021-03-29T14:25:52.011Z</time>
      </trkpt>
      <trkpt lat="45.25302" lon="6.78648">
        <ele>1434</ele>
        <time>2021-03-29T14:26:00.853Z</time>
      </trkpt>
      <trkpt lat="45.25352" lon="6.78707">
        <ele>1424</ele>
        <time>2021-03-29T14:26:09.439Z</time>
      </trkpt>
      <trkpt lat="45.25412" lon="6.78787">
        <ele>1418</ele>
        <time>2021-03-29T14:26:20.309Z</time>
      </trkpt>
      <trkpt lat="45.25444" lon="6.78839">
        <ele>1412</ele>
        <time>2021-03-29T14:26:26.732Z</time>
      </trkpt>
      <trkpt lat="45.25461" lon="6.78884">
        <ele>1413</ele>
        <time>2021-03-29T14:26:44.879Z</time>
      </trkpt>
      <trkpt lat="45.25477" lon="6.78945">
        <ele>1410</ele>
        <time>2021-03-29T14:26:50.475Z</time>
      </trkpt>
      <trkpt lat="45.25492" lon="6.78981">
        <ele>1407</ele>
        <time>2021-03-29T14:26:54.365Z</time>
      </trkpt>
      <trkpt lat="45.25512" lon="6.79014">
        <ele>1404</ele>
        <time>2021-03-29T14:26:58.414Z</time>
      </trkpt>
      <trkpt lat="45.25564" lon="6.7906">
        <ele>1403</ele>
        <time>2021-03-29T14:27:10.401Z</time>
      </trkpt>
      <trkpt lat="45.25625" lon="6.79124">
        <ele>1403</ele>
        <time>2021-03-29T14:27:38.927Z</time>
      </trkpt>
      <trkpt lat="45.25817" lon="6.79256">
        <ele>1411</ele>
        <time>2021-03-29T14:29:41.155Z</time>
      </trkpt>
      <trkpt lat="45.25827" lon="6.79277">
        <ele>1411</ele>
        <time>2021-03-29T14:29:47.869Z</time>
      </trkpt>
      <trkpt lat="45.25825" lon="6.79343">
        <ele>1402</ele>
        <time>2021-03-29T14:29:54.011Z</time>
      </trkpt>
      <trkpt lat="45.25861" lon="6.79439">
        <ele>1392</ele>
        <time>2021-03-29T14:30:04.125Z</time>
      </trkpt>
      <trkpt lat="45.25872" lon="6.79451">
        <ele>1392</ele>
        <time>2021-03-29T14:30:09.342Z</time>
      </trkpt>
      <trkpt lat="45.259" lon="6.79453">
        <ele>1399</ele>
        <time>2021-03-29T14:30:50.020Z</time>
      </trkpt>
      <trkpt lat="45.25908" lon="6.79456">
        <ele>1400</ele>
        <time>2021-03-29T14:31:00.179Z</time>
      </trkpt>
      <trkpt lat="45.25915" lon="6.79462">
        <ele>1401</ele>
        <time>2021-03-29T14:31:10.399Z</time>
      </trkpt>
      <trkpt lat="45.25921" lon="6.79475">
        <ele>1399</ele>
        <time>2021-03-29T14:31:11.844Z</time>
      </trkpt>
      <trkpt lat="45.25932" lon="6.79526">
        <ele>1390</ele>
        <time>2021-03-29T14:31:16.804Z</time>
      </trkpt>
      <trkpt lat="45.25946" lon="6.79553">
        <ele>1388</ele>
        <time>2021-03-29T14:31:19.922Z</time>
      </trkpt>
      <trkpt lat="45.25967" lon="6.79579">
        <ele>1388</ele>
        <time>2021-03-29T14:31:30.400Z</time>
      </trkpt>
      <trkpt lat="45.26132" lon="6.79763">
        <ele>1377</ele>
        <time>2021-03-29T14:31:58.850Z</time>
      </trkpt>
      <trkpt lat="45.2617" lon="6.79809">
        <ele>1372</ele>
        <time>2021-03-29T14:32:05.445Z</time>
      </trkpt>
      <trkpt lat="45.26206" lon="6.7986">
        <ele>1369</ele>
        <time>2021-03-29T14:32:11.976Z</time>
      </trkpt>
      <trkpt lat="45.26289" lon="6.79954">
        <ele>1359</ele>
        <time>2021-03-29T14:32:25.997Z</time>
      </trkpt>
      <trkpt lat="45.26301" lon="6.79964">
        <ele>1358</ele>
        <time>2021-03-29T14:32:27.834Z</time>
      </trkpt>
      <trkpt lat="45.26323" lon="6.79994">
        <ele>1353</ele>
        <time>2021-03-29T14:32:31.862Z</time>
      </trkpt>
      <trkpt lat="45.2634" lon="6.80022">
        <ele>1350</ele>
        <time>2021-03-29T14:32:35.300Z</time>
      </trkpt>
      <trkpt lat="45.26354" lon="6.8006">
        <ele>1345</ele>
        <time>2021-03-29T14:32:39.288Z</time>
      </trkpt>
      <trkpt lat="45.26364" lon="6.80112">
        <ele>1338</ele>
        <time>2021-03-29T14:32:44.300Z</time>
      </trkpt>
      <trkpt lat="45.26364" lon="6.80149">
        <ele>1333</ele>
        <time>2021-03-29T14:32:47.740Z</time>
      </trkpt>
      <trkpt lat="45.26357" lon="6.80198">
        <ele>1327</ele>
        <time>2021-03-29T14:32:52.388Z</time>
      </trkpt>
      <trkpt lat="45.26356" lon="6.80249">
        <ele>1324</ele>
        <time>2021-03-29T14:32:57.132Z</time>
      </trkpt>
      <trkpt lat="45.26379" lon="6.80469">
        <ele>1310</ele>
        <time>2021-03-29T14:33:17.810Z</time>
      </trkpt>
      <trkpt lat="45.26387" lon="6.80499">
        <ele>1310</ele>
        <time>2021-03-29T14:33:26.304Z</time>
      </trkpt>
      <trkpt lat="45.26415" lon="6.80555">
        <ele>1312</ele>
        <time>2021-03-29T14:33:55.586Z</time>
      </trkpt>
      <trkpt lat="45.26456" lon="6.8065">
        <ele>1311</ele>
        <time>2021-03-29T14:34:11.637Z</time>
      </trkpt>
      <trkpt lat="45.26459" lon="6.80669">
        <ele>1310</ele>
        <time>2021-03-29T14:34:13.447Z</time>
      </trkpt>
      <trkpt lat="45.26455" lon="6.80704">
        <ele>1308</ele>
        <time>2021-03-29T14:34:16.744Z</time>
      </trkpt>
      <trkpt lat="45.2645" lon="6.80717">
        <ele>1307</ele>
        <time>2021-03-29T14:34:18.121Z</time>
      </trkpt>
      <trkpt lat="45.26437" lon="6.80738">
        <ele>1305</ele>
        <time>2021-03-29T14:34:20.721Z</time>
      </trkpt>
      <trkpt lat="45.26426" lon="6.80745">
        <ele>1304</ele>
        <time>2021-03-29T14:34:22.313Z</time>
      </trkpt>
      <trkpt lat="45.26386" lon="6.80759">
        <ele>1300</ele>
        <time>2021-03-29T14:34:27.755Z</time>
      </trkpt>
      <trkpt lat="45.26347" lon="6.80782">
        <ele>1295</ele>
        <time>2021-03-29T14:34:33.333Z</time>
      </trkpt>
      <trkpt lat="45.2633" lon="6.80786">
        <ele>1293</ele>
        <time>2021-03-29T14:34:35.609Z</time>
      </trkpt>
      <trkpt lat="45.26306" lon="6.80781">
        <ele>1289</ele>
        <time>2021-03-29T14:34:38.813Z</time>
      </trkpt>
      <trkpt lat="45.26302" lon="6.80778">
        <ele>1288</ele>
        <time>2021-03-29T14:34:39.410Z</time>
      </trkpt>
      <trkpt lat="45.26289" lon="6.80751">
        <ele>1286</ele>
        <time>2021-03-29T14:34:42.452Z</time>
      </trkpt>
      <trkpt lat="45.26286" lon="6.80749">
        <ele>1285</ele>
        <time>2021-03-29T14:34:42.889Z</time>
      </trkpt>
      <trkpt lat="45.26278" lon="6.80752">
        <ele>1284</ele>
        <time>2021-03-29T14:34:43.982Z</time>
      </trkpt>
      <trkpt lat="45.26276" lon="6.80757">
        <ele>1283</ele>
        <time>2021-03-29T14:34:44.517Z</time>
      </trkpt>
      <trkpt lat="45.26282" lon="6.80883">
        <ele>1279</ele>
        <time>2021-03-29T14:34:57.387Z</time>
      </trkpt>
      <trkpt lat="45.26327" lon="6.81005">
        <ele>1276</ele>
        <time>2021-03-29T14:35:13.474Z</time>
      </trkpt>
      <trkpt lat="45.2633" lon="6.81027">
        <ele>1276</ele>
        <time>2021-03-29T14:35:19.407Z</time>
      </trkpt>
      <trkpt lat="45.26323" lon="6.81045">
        <ele>1275</ele>
        <time>2021-03-29T14:35:21.319Z</time>
      </trkpt>
      <trkpt lat="45.26314" lon="6.81053">
        <ele>1274</ele>
        <time>2021-03-29T14:35:22.721Z</time>
      </trkpt>
      <trkpt lat="45.26324" lon="6.81074">
        <ele>1273</ele>
        <time>2021-03-29T14:35:25.070Z</time>
      </trkpt>
      <trkpt lat="45.26345" lon="6.81104">
        <ele>1274</ele>
        <time>2021-03-29T14:35:41.249Z</time>
      </trkpt>
      <trkpt lat="45.26379" lon="6.81135">
        <ele>1274</ele>
        <time>2021-03-29T14:35:56.446Z</time>
      </trkpt>
    </trkseg>
  </trk>
</gpx>